ftp/pub/palmer/observations_modified/2019/October/original_files/AR191029_BASE.txt

Download

Sample DateTime	Unit Id	WS Avg 2min	WD Avg 2min	WGS 10min	WGD 10min	Air Temp	Rel Humidity	Dew Point	Pyranometer	Quantum	Air Pressure	Snow Level	Rainfall	PW Current	Visibility	CBase 1	CBase 2	CBase 3	Vert Vis
2019/10/29 00:00:01	BASE	10.71	287	13.89	286	-3.2	100	-3.2	2	0	974.7	NA	0.0000		9999	1410	0	0	0
2019/10/29 00:01:01	BASE	10.46	283	13.89	286	-3.2	100	-3.2	2	0	974.8	NA	0.0000		9999	1380	0	0	0
2019/10/29 00:02:01	BASE	9.14	282	13.89	286	-3.2	100	-3.2	2	0	974.8	NA	0.0000		9999	1350	0	0	0
2019/10/29 00:03:01	BASE	8.57	284	13.89	286	-3.2	100	-3.2	2	0	974.8	NA	0.0000		9999	1410	0	0	0
2019/10/29 00:04:01	BASE	9.40	283	13.89	286	-3.2	100	-3.2	2	0	974.8	NA	0.0000		9999	1280	0	0	0
2019/10/29 00:05:01	BASE	11.03	281	13.79	277	-3.2	100	-3.2	2	0	974.8	NA	0.0000		9999	1310	0	0	0
2019/10/29 00:06:00	BASE	11.80	282	13.12	281	-3.2	100	-3.2	2	0	974.8	NA	0.0000		9999	1840	0	0	0
2019/10/29 00:07:01	BASE	11.51	285	13.38	285	-3.2	100	-3.2	2	0	974.8	NA	0.0000		9999	1840	0	0	0
2019/10/29 00:08:01	BASE	10.70	279	13.38	285	-3.1	100	-3.1	2	0	974.9	NA	0.0000		9999	2000	0	0	0
2019/10/29 00:09:00	BASE	9.98	276	13.38	285	-3.1	100	-3.1	2	0	974.9	NA	0.0000		9999	1970	0	0	0
2019/10/29 00:10:02	BASE	11.19	280	14.04	278	-3.1	100	-3.1	2	0	974.9	NA	0.0000		9999	1670	0	0	0
2019/10/29 00:11:01	BASE	11.52	281	14.04	278	-3.1	100	-3.1	2	0	974.9	NA	0.0000		9999	1510	2300	0	0
2019/10/29 00:12:01	BASE	11.27	281	14.04	278	-3.1	100	-3.1	1	0	974.9	NA	0.0000		9999	1380	2000	0	0
2019/10/29 00:13:01	BASE	12.37	280	14.71	283	-3.2	100	-3.2	1	0	974.9	NA	0.0000		9999	2260	0	0	0
2019/10/29 00:14:01	BASE	13.55	278	15.95	283	-3.2	100	-3.2	1	0	974.9	NA	0.0000		9999	2300	0	0	0
2019/10/29 00:15:01	BASE	14.10	277	15.95	283	-3.2	100	-3.2	1	0	974.9	NA	0.0000		9999	2200	0	0	0
2019/10/29 00:16:01	BASE	13.31	273	15.95	283	-3.2	100	-3.2	1	0	975.0	NA	0.0000		9999	2100	0	0	0
2019/10/29 00:17:01	BASE	11.85	277	15.95	283	-3.2	100	-3.2	1	0	975.0	NA	0.0000		9999	1940	0	0	0
2019/10/29 00:18:01	BASE	11.42	282	15.95	283	-3.2	100	-3.2	1	0	975.0	NA	0.0000		9999	1970	0	0	0
2019/10/29 00:19:00	BASE	11.45	281	15.95	283	-3.2	100	-3.2	1	0	975.1	NA	0.0000		9999	1900	0	0	0
2019/10/29 00:20:01	BASE	10.79	281	15.95	283	-3.1	100	-3.1	1	0	975.1	NA	0.0000		9999	1840	0	0	0
2019/10/29 00:21:00	BASE	9.54	283	15.95	283	-3.1	100	-3.1	1	0	975.2	NA	0.0000		9999	1770	0	0	0
2019/10/29 00:22:01	BASE	9.65	284	15.95	283	-3.1	100	-3.1	1	0	975.1	NA	0.0000		9999	1670	0	0	0
2019/10/29 00:23:01	BASE	10.58	284	15.95	283	-3.1	100	-3.1	1	0	975.1	NA	0.0000		9999	1710	0	0	0
2019/10/29 00:24:01	BASE	10.51	285	15.74	282	-3.2	100	-3.2	1	0	975.1	NA	0.0000		9999	1670	0	0	0
2019/10/29 00:25:00	BASE	10.56	286	14.10	260	-3.2	100	-3.2	1	0	975.2	NA	0.0000		9999	1510	2530	0	0
2019/10/29 00:26:00	BASE	10.35	284	13.43	289	-3.2	100	-3.2	1	0	975.2	NA	0.0000		9999	1350	0	0	0
2019/10/29 00:27:01	BASE	9.99	284	13.43	289	-3.2	100	-3.2	1	0	975.2	NA	0.0000		9999	1610	2260	0	0
2019/10/29 00:28:01	BASE	10.16	284	13.43	289	-3.2	100	-3.2	1	0	975.2	NA	0.0000		9999	1510	2330	0	0
2019/10/29 00:29:01	BASE	10.32	284	13.43	289	-3.2	100	-3.2	1	0	975.3	NA	0.0000		9999	1570	0	0	0
2019/10/29 00:30:01	BASE	9.32	285	13.43	289	-3.2	100	-3.2	1	0	975.3	NA	0.0000		9999	1770	2430	0	0
2019/10/29 00:31:00	BASE	8.22	286	13.43	289	-3.2	100	-3.2	1	0	975.4	NA	0.0000		9999	1480	0	0	0
2019/10/29 00:32:00	BASE	8.10	288	13.43	289	-3.2	100	-3.2	1	0	975.4	NA	0.0000		9999	1380	2560	0	0
2019/10/29 00:33:00	BASE	8.70	291	13.43	289	-3.2	100	-3.2	0	0	975.4	NA	0.0000		9999	1540	2400	0	0
2019/10/29 00:34:01	BASE	9.87	289	13.43	289	-3.2	100	-3.2	0	0	975.4	NA	0.0000		9999	1570	2460	0	0
2019/10/29 00:35:01	BASE	10.64	282	13.12	280	-3.2	100	-3.2	0	0	975.4	NA	0.0000		9999	1440	0	0	0
2019/10/29 00:36:00	BASE	9.72	284	13.12	280	-3.2	100	-3.2	0	0	975.4	NA	0.0000		9999	1410	2230	0	0
2019/10/29 00:37:01	BASE	9.33	286	13.12	280	-3.2	100	-3.2	0	0	975.4	NA	0.0000		9999	1640	2460	0	0
2019/10/29 00:38:01	BASE	10.59	288	13.12	280	-3.2	100	-3.2	0	0	975.4	NA	0.0000		9999	1480	2620	0	0
2019/10/29 00:39:00	BASE	9.64	286	13.12	280	-3.2	100	-3.2	0	0	975.4	NA	0.0000		9999	1410	2660	0	0
2019/10/29 00:40:00	BASE	9.13	282	13.12	280	-3.2	100	-3.2	0	0	975.4	NA	0.0000		9999	1380	2620	0	0
2019/10/29 00:41:01	BASE	10.88	281	14.25	279	-3.2	100	-3.2	0	0	975.4	NA	0.0000		9999	1380	2460	0	0
2019/10/29 00:42:00	BASE	11.39	278	14.25	279	-3.2	100	-3.2	0	0	975.4	NA	0.0000		9999	2200	0	0	0
2019/10/29 00:43:01	BASE	12.02	275	14.82	272	-3.2	100	-3.2	0	0	975.4	NA	0.0000		9999	1510	0	0	0
2019/10/29 00:44:01	BASE	12.97	275	16.36	273	-3.3	100	-3.3	0	0	975.4	NA	0.0000		9999	1440	0	0	0
2019/10/29 00:45:01	BASE	12.28	280	16.36	273	-3.3	100	-3.3	0	0	975.5	NA	0.0000		9999	1510	2300	0	0
2019/10/29 00:46:01	BASE	12.17	279	16.36	273	-3.3	100	-3.3	0	0	975.4	NA	0.0000		9999	1440	2560	0	0
2019/10/29 00:47:01	BASE	11.68	274	16.36	273	-3.3	100	-3.3	0	0	975.5	NA	0.0000		9999	1480	2460	0	0
2019/10/29 00:48:01	BASE	11.54	280	16.36	273	-3.3	100	-3.3	0	0	975.5	NA	0.0000		9999	1510	0	0	0
2019/10/29 00:49:01	BASE	13.21	282	16.36	273	-3.3	100	-3.3	0	0	975.5	NA	0.0000		9999	1440	0	0	0
2019/10/29 00:50:00	BASE	13.20	280	16.36	273	-3.3	100	-3.3	0	0	975.6	NA	0.0000		9999	1480	0	0	0
2019/10/29 00:51:00	BASE	12.32	281	16.36	273	-3.3	100	-3.3	0	0	975.6	NA	0.0000		9999	1410	2260	0	0
2019/10/29 00:52:00	BASE	12.32	282	16.36	273	-3.3	100	-3.3	0	0	975.6	NA	0.0000		9999	1380	2260	0	0
2019/10/29 00:53:00	BASE	12.70	280	16.36	273	-3.3	100	-3.3	0	0	975.6	NA	0.0000		9999	1310	0	0	0
2019/10/29 00:54:00	BASE	12.10	280	16.36	273	-3.3	100	-3.3	0	0	975.6	NA	0.0000		9999	1310	0	0	0
2019/10/29 00:55:01	BASE	12.13	278	16.36	273	-3.3	100	-3.3	0	0	975.6	NA	0.0000		9999	1380	1870	0	0
2019/10/29 00:56:00	BASE	12.34	277	16.36	273	-3.3	100	-3.3	0	0	975.7	NA	0.0000		9999	1480	0	0	0
2019/10/29 00:57:01	BASE	11.35	278	16.36	273	-3.3	100	-3.3	0	0	975.7	NA	0.0000		9999	1480	2330	0	0
2019/10/29 00:58:00	BASE	10.91	277	16.36	273	-3.3	100	-3.3	0	0	975.7	NA	0.0000		9999	1380	1840	2330	0
2019/10/29 00:59:00	BASE	10.13	274	15.23	283	-3.3	100	-3.3	0	0	975.8	NA	0.0000		9999	1380	2460	0	0
2019/10/29 01:00:01	BASE	9.14	272	15.23	283	-3.3	100	-3.3	0	0	975.8	NA	0.0000		9999	1350	2360	0	0
2019/10/29 01:01:00	BASE	8.42	274	15.23	283	-3.3	100	-3.3	0	0	975.8	NA	0.0000		9999	1280	0	0	0
2019/10/29 01:02:01	BASE	7.89	276	14.82	283	-3.3	100	-3.3	0	0	975.9	NA	0.0000		9999	1210	2260	0	0
2019/10/29 01:03:01	BASE	8.19	280	14.82	283	-3.3	100	-3.3	0	0	975.9	NA	0.0000		9999	1180	0	0	0
2019/10/29 01:04:00	BASE	8.57	286	14.82	283	-3.3	100	-3.3	0	0	975.9	NA	0.0000		9999	2430	0	0	0
2019/10/29 01:05:00	BASE	8.16	282	13.48	280	-3.3	100	-3.3	0	0	975.9	NA	0.0000		9999	2400	0	0	0
2019/10/29 01:06:00	BASE	8.04	278	12.45	271	-3.3	100	-3.3	0	0	975.9	NA	0.0000		9999	2300	0	0	0
2019/10/29 01:07:01	BASE	8.15	280	12.45	271	-3.3	100	-3.3	0	0	975.9	NA	0.0000		9999	1440	2330	0	0
2019/10/29 01:08:00	BASE	7.99	279	10.75	288	-3.3	100	-3.3	0	0	976.0	NA	0.0000		9999	2360	0	0	0
2019/10/29 01:09:00	BASE	7.62	279	10.75	288	-3.3	100	-3.3	0	0	976.0	NA	0.0000		9999	1570	2400	0	0
2019/10/29 01:10:01	BASE	6.72	279	10.75	288	-3.3	100	-3.3	0	0	976.0	NA	0.0000		9999	1510	0	0	0
2019/10/29 01:11:00	BASE	6.32	277	10.75	288	-3.3	100	-3.3	0	0	976.0	NA	0.0000		9999	1280	0	0	0
2019/10/29 01:12:01	BASE	6.58	277	10.75	288	-3.3	100	-3.3	0	0	976.0	NA	0.0000		9999	1380	2100	0	0
2019/10/29 01:13:01	BASE	7.29	280	10.75	288	-3.3	100	-3.3	0	0	976.0	NA	0.0000		9999	1310	0	0	0
2019/10/29 01:14:00	BASE	8.12	281	10.49	281	-3.3	100	-3.3	0	0	976.0	NA	0.0000		9999	1310	2260	0	0
2019/10/29 01:15:01	BASE	8.39	281	10.49	281	-3.4	100	-3.4	0	0	976.0	NA	0.0000		9999	1410	2330	0	0
2019/10/29 01:16:01	BASE	8.59	279	10.49	281	-3.4	100	-3.4	0	0	976.0	NA	0.0000		9999	1350	2300	0	0
2019/10/29 01:17:01	BASE	8.74	278	10.49	281	-3.4	100	-3.4	0	0	976.1	NA	0.0000		9999	1670	2230	0	0
2019/10/29 01:18:01	BASE	8.82	281	10.49	281	-3.4	100	-3.4	0	0	976.1	NA	0.0000		9999	1380	0	0	0
2019/10/29 01:19:00	BASE	9.01	279	10.49	281	-3.4	100	-3.4	0	0	976.2	NA	0.0000		9999	1210	2230	0	0
2019/10/29 01:20:01	BASE	8.10	280	10.49	281	-3.4	100	-3.4	0	0	976.2	NA	0.0000		9999	1350	2230	0	0
2019/10/29 01:21:01	BASE	6.78	283	10.49	281	-3.4	100	-3.4	0	0	976.2	NA	0.0000		9999	2230	0	0	0
2019/10/29 01:22:00	BASE	7.67	283	10.49	281	-3.4	100	-3.4	0	0	976.2	NA	0.0000		9999	2230	0	0	0
2019/10/29 01:23:01	BASE	8.48	281	10.49	281	-3.4	100	-3.4	0	0	976.2	NA	0.0000		9999	2200	0	0	0
2019/10/29 01:24:01	BASE	7.75	281	10.44	270	-3.4	100	-3.4	0	0	976.2	NA	0.0000		9999	2170	0	0	0
2019/10/29 01:25:01	BASE	7.59	282	10.44	270	-3.4	100	-3.4	0	0	976.2	NA	0.0000		9999	2130	0	0	0
2019/10/29 01:26:01	BASE	6.65	279	10.44	270	-3.3	100	-3.3	0	0	976.2	NA	0.0000		9999	1940	0	0	0
2019/10/29 01:27:01	BASE	5.68	274	10.44	270	-3.3	100	-3.3	0	0	976.3	NA	0.0000		9999	1740	0	0	0
2019/10/29 01:28:00	BASE	6.43	274	10.44	270	-3.3	100	-3.3	0	0	976.3	NA	0.0000		9999	1740	0	0	0
2019/10/29 01:29:01	BASE	6.96	278	9.62	286	-3.4	100	-3.4	0	0	976.3	NA	0.0000		9999	1480	2070	0	0
2019/10/29 01:30:01	BASE	7.16	278	9.62	286	-3.4	100	-3.4	0	0	976.3	NA	0.0000		9999	1440	0	0	0
2019/10/29 01:31:00	BASE	6.41	280	9.62	286	-3.4	100	-3.4	0	0	976.4	NA	0.0000		9999	1410	0	0	0
2019/10/29 01:32:01	BASE	5.84	282	9.05	282	-3.4	100	-3.4	0	0	976.4	NA	0.0000		9999	1310	0	0	0
2019/10/29 01:33:01	BASE	6.34	284	8.90	280	-3.4	100	-3.4	0	0	976.4	NA	0.0000		9999	1440	0	0	0
2019/10/29 01:34:00	BASE	5.79	288	8.90	280	-3.4	100	-3.4	0	0	976.4	NA	0.0000		9999	1350	0	0	0
2019/10/29 01:35:01	BASE	5.78	292	8.90	280	-3.4	100	-3.4	0	0	976.4	NA	0.0000		9999	1280	0	0	0
2019/10/29 01:36:00	BASE	6.37	291	8.90	280	-3.4	100	-3.4	0	0	976.5	NA	0.0000		9999	1250	0	0	0
2019/10/29 01:37:00	BASE	6.77	284	8.90	280	-3.4	100	-3.4	0	0	976.5	NA	0.0000		9999	1210	0	0	0
2019/10/29 01:38:01	BASE	7.96	278	9.77	281	-3.4	100	-3.4	0	0	976.5	NA	0.0000		9999	1210	1710	0	0
2019/10/29 01:39:01	BASE	7.42	277	9.77	281	-3.4	100	-3.4	0	0	976.5	NA	0.0000		9999	1380	0	0	0
2019/10/29 01:40:00	BASE	6.52	275	9.77	281	-3.3	100	-3.3	0	0	976.5	NA	0.0000		9999	1310	0	0	0
2019/10/29 01:41:00	BASE	7.13	274	9.77	281	-3.3	100	-3.3	0	0	976.5	NA	0.0000		9999	1310	0	0	0
2019/10/29 01:42:00	BASE	7.13	275	9.77	281	-3.3	100	-3.3	0	0	976.5	NA	0.0000		9999	1350	2400	0	0
2019/10/29 01:43:00	BASE	6.68	273	9.77	281	-3.3	100	-3.3	0	0	976.5	NA	0.0000		9999	1350	1800	0	0
2019/10/29 01:44:01	BASE	6.64	271	9.77	281	-3.3	100	-3.3	0	0	976.6	NA	0.0000		9999	1570	0	0	0
2019/10/29 01:45:00	BASE	7.16	262	9.77	281	-3.3	100	-3.3	0	0	976.6	NA	0.0000		9999	1410	0	0	0
2019/10/29 01:46:01	BASE	6.64	261	9.77	281	-3.3	100	-3.3	0	0	976.6	NA	0.0000		9999	1350	0	0	0
2019/10/29 01:47:01	BASE	5.92	266	9.77	281	-3.3	100	-3.3	0	0	976.6	NA	0.0000		9999	1250	0	0	0
2019/10/29 01:48:01	BASE	6.58	262	8.95	266	-3.3	100	-3.3	0	0	976.6	NA	0.0000		9999	1310	2230	0	0
2019/10/29 01:49:00	BASE	7.04	257	8.95	266	-3.3	100	-3.3	0	0	976.7	NA	0.0000		9999	1380	0	0	0
2019/10/29 01:50:00	BASE	7.34	255	8.75	260	-3.3	100	-3.3	0	0	976.7	NA	0.0000		9999	1280	0	0	0
2019/10/29 01:51:01	BASE	7.33	254	8.75	260	-3.3	100	-3.3	0	0	976.7	NA	0.0000		9999	1410	2170	0	0
2019/10/29 01:52:01	BASE	7.11	254	8.75	260	-3.4	100	-3.4	0	0	976.7	NA	0.0000		9999	1350	0	0	0
2019/10/29 01:53:00	BASE	6.73	255	8.75	260	-3.4	100	-3.4	0	0	976.7	NA	0.0000		9999	1310	0	0	0
2019/10/29 01:54:00	BASE	5.61	255	8.75	260	-3.5	100	-3.5	0	0	976.7	NA	0.0000		9999	1280	1970	0	0
2019/10/29 01:55:01	BASE	5.54	253	8.75	260	-3.5	100	-3.5	0	0	976.7	NA	0.0000		9999	1410	2100	0	0
2019/10/29 01:56:01	BASE	5.64	254	8.75	260	-3.5	100	-3.5	0	0	976.7	NA	0.0000		9999	1380	0	0	0
2019/10/29 01:57:01	BASE	5.62	254	8.75	260	-3.5	100	-3.5	0	0	976.7	NA	0.0000		9999	1540	0	0	0
2019/10/29 01:58:01	BASE	6.16	251	8.49	251	-3.5	100	-3.5	0	0	976.7	NA	0.0000		9999	1350	0	0	0
2019/10/29 01:59:00	BASE	5.80	251	8.49	251	-3.5	100	-3.5	0	0	976.7	NA	0.0000		9999	2200	2720	0	0
2019/10/29 02:00:00	BASE	4.87	259	7.92	260	-3.5	100	-3.5	0	0	976.7	NA	0.0000		9999	2690	0	0	0
2019/10/29 02:01:01	BASE	4.66	260	7.92	260	-3.5	100	-3.5	0	0	976.7	NA	0.0000		9999	1670	0	0	0
2019/10/29 02:02:01	BASE	4.95	253	7.31	245	-3.5	100	-3.5	0	0	976.8	NA	0.0000		9999	1410	0	0	0
2019/10/29 02:03:00	BASE	5.14	253	7.31	245	-3.5	100	-3.5	0	0	976.8	NA	0.0000		9999	1250	0	0	0
2019/10/29 02:04:00	BASE	4.95	254	7.31	245	-3.5	100	-3.5	0	0	976.8	NA	0.0000		9999	1740	0	0	0
2019/10/29 02:05:01	BASE	4.43	252	7.31	245	-3.5	100	-3.5	0	0	976.8	NA	0.0000		9999	1770	0	0	0
2019/10/29 02:06:00	BASE	3.67	253	7.31	245	-3.5	100	-3.5	0	0	976.8	NA	0.0000		9999	1710	2360	0	0
2019/10/29 02:07:01	BASE	3.44	252	7.31	245	-3.5	100	-3.5	0	0	976.8	NA	0.0000		9999	1510	0	0	0
2019/10/29 02:08:01	BASE	3.80	250	6.17	250	-3.5	100	-3.5	0	0	976.9	NA	0.0000		9999	1480	0	0	0
2019/10/29 02:09:00	BASE	4.27	254	6.07	253	-3.5	100	-3.5	0	0	976.9	NA	0.0000		9999	1380	2260	0	0
2019/10/29 02:10:02	BASE	4.26	257	6.07	253	-3.5	100	-3.5	0	0	976.8	NA	0.0000		9999	1710	2260	0	0
2019/10/29 02:11:01	BASE	3.69	257	6.07	253	-3.5	100	-3.5	0	0	976.9	NA	0.0000		9999	1510	0	0	0
2019/10/29 02:12:00	BASE	3.43	265	6.02	255	-3.5	100	-3.5	0	0	977.0	NA	0.0000		9999	1440	0	0	0
2019/10/29 02:13:00	BASE	3.61	274	5.14	250	-3.5	100	-3.5	0	0	977.0	NA	0.0000		9999	1310	0	0	0
2019/10/29 02:14:00	BASE	3.86	278	6.58	269	-3.5	100	-3.5	0	0	977.0	NA	0.0000		9999	1310	0	0	0
2019/10/29 02:15:01	BASE	4.00	269	6.58	269	-3.5	100	-3.5	0	0	977.0	NA	0.0000		9999	1800	0	0	0
2019/10/29 02:16:01	BASE	4.17	260	6.58	269	-3.5	100	-3.5	0	0	976.9	NA	0.0000		9999	1670	0	0	0
2019/10/29 02:17:01	BASE	5.07	276	6.69	272	-3.4	100	-3.4	0	0	976.9	NA	0.0000		9999	1610	0	0	0
2019/10/29 02:18:01	BASE	5.98	283	6.69	272	-3.4	100	-3.4	0	0	977.0	NA	0.0000		9999	1480	0	0	0
2019/10/29 02:19:01	BASE	5.35	284	6.69	272	-3.4	100	-3.4	0	0	977.1	NA	0.0000		9999	1280	0	0	0
2019/10/29 02:20:01	BASE	4.36	285	6.69	272	-3.4	100	-3.4	0	0	977.1	NA	0.0000		9999	1310	0	0	0
2019/10/29 02:21:01	BASE	3.57	282	6.69	272	-3.4	100	-3.4	0	0	977.1	NA	0.0000		9999	1180	0	0	0
2019/10/29 02:22:01	BASE	3.58	289	6.69	272	-3.3	100	-3.3	0	0	977.1	NA	0.0000		9999	1350	0	0	0
2019/10/29 02:23:01	BASE	3.63	278	6.69	272	-3.3	100	-3.3	0	0	977.1	NA	0.0000		9999	1250	0	0	0
2019/10/29 02:24:01	BASE	3.87	262	6.69	272	-3.3	100	-3.3	0	0	977.1	NA	0.0000		9999	1250	0	0	0
2019/10/29 02:25:00	BASE	4.30	264	6.69	272	-3.3	100	-3.3	0	0	977.2	NA	0.0000		9999	1380	0	0	0
2019/10/29 02:26:01	BASE	3.78	264	6.69	272	-3.3	100	-3.3	0	0	977.2	NA	0.0000		9999	1380	0	0	0
2019/10/29 02:27:01	BASE	3.76	261	6.53	284	-3.4	100	-3.4	0	0	977.2	NA	0.0000		9999	1380	0	0	0
2019/10/29 02:28:01	BASE	3.97	259	5.76	263	-3.4	100	-3.4	0	0	977.2	NA	0.0000		9999	1210	0	0	0
2019/10/29 02:29:01	BASE	4.45	263	5.76	263	-3.4	100	-3.4	0	0	977.2	NA	0.0000		9999	1310	0	0	0
2019/10/29 02:30:01	BASE	4.69	269	5.76	263	-3.4	100	-3.4	0	0	977.2	NA	0.0000		9999	1380	0	0	0
2019/10/29 02:31:01	BASE	3.98	274	5.76	263	-3.4	100	-3.4	0	0	977.2	NA	0.0000		9999	1310	0	0	0
2019/10/29 02:32:01	BASE	3.82	278	5.76	263	-3.4	100	-3.4	0	0	977.2	NA	0.0000		9999	1350	0	0	0
2019/10/29 02:33:01	BASE	4.18	279	5.76	263	-3.4	100	-3.4	0	0	977.2	NA	0.0000		9999	1250	0	0	0
2019/10/29 02:34:00	BASE	4.29	280	5.61	256	-3.4	100	-3.4	0	0	977.3	NA	0.0000		9999	1210	0	0	0
2019/10/29 02:35:01	BASE	4.15	282	5.61	256	-3.3	100	-3.3	0	0	977.3	NA	0.0000		9999	1150	0	0	0
2019/10/29 02:36:01	BASE	3.80	285	5.61	256	-3.3	100	-3.3	0	0	977.3	NA	0.0000		9999	1250	0	0	0
2019/10/29 02:37:02	BASE	3.88	288	5.61	256	-3.3	100	-3.3	0	0	977.3	NA	0.0000		9999	1310	0	0	0
2019/10/29 02:38:01	BASE	4.25	291	5.61	256	-3.3	100	-3.3	0	0	977.3	NA	0.0000		9999	1350	0	0	0
2019/10/29 02:39:00	BASE	4.08	294	5.14	281	-3.3	100	-3.3	0	0	977.3	NA	0.0000		9999	1410	0	0	0
2019/10/29 02:40:00	BASE	3.82	298	5.04	279	-3.3	100	-3.3	0	0	977.3	NA	0.0000		9999	1380	0	0	0
2019/10/29 02:41:01	BASE	3.90	302	5.04	279	-3.3	100	-3.3	0	0	977.3	NA	0.0000		9999	1350	0	0	0
2019/10/29 02:42:01	BASE	4.12	306	5.04	279	-3.3	100	-3.3	0	0	977.3	NA	0.0000		9999	1350	0	0	0
2019/10/29 02:43:01	BASE	4.40	306	4.94	275	-3.3	100	-3.3	0	0	977.3	NA	0.0000		9999	1310	0	0	0
2019/10/29 02:44:01	BASE	4.06	305	4.94	275	-3.3	100	-3.3	0	0	977.3	NA	0.0000		9999	1280	0	0	0
2019/10/29 02:45:02	BASE	3.58	305	4.84	287	-3.3	100	-3.3	0	0	977.3	NA	0.0000		9999	1310	0	0	0
2019/10/29 02:46:01	BASE	3.75	305	4.84	287	-3.3	100	-3.3	0	0	977.3	NA	0.0000		9999	1310	0	0	0
2019/10/29 02:47:01	BASE	4.21	304	4.84	287	-3.3	100	-3.3	0	0	977.3	NA	0.0000		9999	1280	0	0	0
2019/10/29 02:48:00	BASE	4.41	301	4.89	293	-3.3	100	-3.3	0	0	977.3	NA	0.0000		9999	1280	0	0	0
2019/10/29 02:49:01	BASE	4.20	301	4.89	293	-3.3	100	-3.3	0	0	977.3	NA	0.0000		9999	1250	0	0	0
2019/10/29 02:50:01	BASE	3.99	300	4.89	293	-3.3	100	-3.3	0	0	977.3	NA	0.0000		9999	1280	0	0	0
2019/10/29 02:51:01	BASE	3.70	299	4.89	293	-3.3	100	-3.3	0	0	977.3	NA	0.0000		9999	1280	0	0	0
2019/10/29 02:52:01	BASE	3.69	301	4.89	293	-3.3	100	-3.3	0	0	977.4	NA	0.0000		9999	1280	0	0	0
2019/10/29 02:53:01	BASE	3.81	303	4.89	293	-3.3	100	-3.3	0	0	977.4	NA	0.0000		9999	1250	0	0	0
2019/10/29 02:54:01	BASE	3.49	306	4.89	293	-3.3	100	-3.3	0	0	977.4	NA	0.0000		9999	1250	0	0	0
2019/10/29 02:55:01	BASE	3.23	306	4.89	293	-3.3	100	-3.3	0	0	977.4	NA	0.0000		9999	1210	0	0	0
2019/10/29 02:56:01	BASE	3.17	302	4.89	293	-3.3	100	-3.3	0	0	977.4	NA	0.0000		9999	1210	0	0	0
2019/10/29 02:57:01	BASE	3.47	296	4.89	293	-3.3	100	-3.3	0	0	977.4	NA	0.0000		9999	1180	0	0	0
2019/10/29 02:58:01	BASE	3.71	293	4.32	295	-3.3	100	-3.3	0	0	977.4	NA	0.0000		9999	1210	0	0	0
2019/10/29 02:59:01	BASE	3.45	295	4.32	295	-3.3	100	-3.3	0	0	977.5	NA	0.0000		9999	1210	0	0	0
2019/10/29 03:00:01	BASE	2.93	299	4.32	295	-3.3	100	-3.3	0	0	977.4	NA	0.0000		9999	1250	0	0	0
2019/10/29 03:01:01	BASE	2.61	300	4.32	295	-3.3	100	-3.3	0	0	977.5	NA	0.0000		9999	1280	0	0	0
2019/10/29 03:02:00	BASE	2.70	295	4.32	295	-3.3	100	-3.3	0	0	977.6	NA	0.0000		9999	1250	0	0	0
2019/10/29 03:03:01	BASE	2.63	292	4.32	295	-3.3	100	-3.3	0	0	977.6	NA	0.0000		9999	1210	0	0	0
2019/10/29 03:04:01	BASE	2.49	295	4.32	295	-3.3	100	-3.3	0	0	977.6	NA	0.0000		9999	1250	0	0	0
2019/10/29 03:05:01	BASE	2.45	300	4.32	295	-3.3	100	-3.3	0	0	977.5	NA	0.0000		9999	1280	0	0	0
2019/10/29 03:06:01	BASE	2.32	308	4.32	295	-3.3	100	-3.3	0	0	977.5	NA	0.0000		9999	1280	0	0	0
2019/10/29 03:07:01	BASE	2.40	317	4.12	289	-3.3	100	-3.3	0	0	977.5	NA	0.0000		9999	1180	0	0	0
2019/10/29 03:08:01	BASE	2.48	319	3.65	293	-3.3	100	-3.3	0	0	977.6	NA	0.0000		9999	1210	0	0	0
2019/10/29 03:09:01	BASE	2.50	311	3.09	291	-3.4	100	-3.4	0	0	977.6	NA	0.0000		9999	1210	0	0	0
2019/10/29 03:10:03	BASE	2.75	304	3.09	302	-3.4	100	-3.4	0	0	977.6	NA	0.0000		9999	1280	0	0	0
2019/10/29 03:11:01	BASE	2.71	313	3.09	302	-3.4	100	-3.4	0	0	977.6	NA	0.0000		9999	1280	0	0	0
2019/10/29 03:12:01	BASE	2.52	325	3.09	302	-3.4	100	-3.4	0	0	977.5	NA	0.0000	-SN	9999	1180	0	0	0
2019/10/29 03:13:01	BASE	2.60	324	3.09	302	-3.4	100	-3.4	0	0	977.6	NA	0.0000	-SN	9999	1150	0	0	0
2019/10/29 03:14:00	BASE	2.79	322	3.14	321	-3.3	100	-3.3	0	0	977.6	NA	0.0000	-SN	9999	1120	0	0	0
2019/10/29 03:15:00	BASE	2.76	325	3.14	321	-3.3	100	-3.3	0	0	977.6	NA	0.0000	-SN	9999	1180	0	0	0
2019/10/29 03:16:01	BASE	2.56	329	3.14	321	-3.3	100	-3.3	0	0	977.6	NA	0.0000	-SN	9999	1180	0	0	0
2019/10/29 03:17:00	BASE	2.61	336	3.14	321	-3.3	100	-3.3	0	0	977.6	NA	0.0000	-SN	9999	1150	0	0	0
2019/10/29 03:18:00	BASE	2.55	342	3.14	321	-3.3	100	-3.3	0	0	977.6	NA	0.0000	-SN	9999	1120	0	0	0
2019/10/29 03:19:01	BASE	2.27	350	3.14	321	-3.3	100	-3.3	0	0	977.6	NA	0.0000	-SN	9999	1120	0	0	0
2019/10/29 03:20:00	BASE	1.85	352	3.14	321	-3.3	100	-3.3	0	0	977.6	NA	0.0000	-SN	9999	1080	0	0	0
2019/10/29 03:21:01	BASE	1.54	343	3.14	321	-3.3	100	-3.3	0	0	977.7	NA	0.0000	-SN	9999	1080	0	0	0
2019/10/29 03:22:00	BASE	1.51	339	3.14	321	-3.3	100	-3.3	0	0	977.6	NA	0.0000	-SN	9999	1080	0	0	0
2019/10/29 03:23:01	BASE	1.76	338	3.14	321	-3.3	100	-3.3	0	0	977.6	NA	0.0000	-SN	9999	980	0	0	0
2019/10/29 03:24:00	BASE	2.00	339	2.88	344	-3.3	100	-3.3	0	0	977.7	NA	0.0000	-SN	9999	1020	0	0	0
2019/10/29 03:25:00	BASE	2.05	339	2.88	344	-3.3	100	-3.3	0	0	977.7	NA	0.0000	-SN	9999	980	0	0	0
2019/10/29 03:26:00	BASE	2.21	335	2.88	344	-3.3	100	-3.3	0	0	977.7	NA	0.0000	-SN	9999	980	0	0	0
2019/10/29 03:27:00	BASE	2.36	327	2.88	344	-3.3	100	-3.3	0	0	977.7	NA	0.0000	-SN	9999	430	0	0	0
2019/10/29 03:28:00	BASE	2.53	324	2.78	330	-3.2	100	-3.2	0	0	977.7	NA	0.0000	-SN	9999	980	0	0	0
2019/10/29 03:29:01	BASE	2.64	334	3.19	340	-3.2	100	-3.2	0	0	977.7	NA	0.0000	-SN	9999	1020	0	0	0
2019/10/29 03:30:00	BASE	3.10	335	4.12	332	-3.2	100	-3.2	0	0	977.7	NA	0.0000	-SN	9999	1080	0	0	0
2019/10/29 03:31:01	BASE	3.50	330	4.12	332	-3.2	100	-3.2	0	0	977.7	NA	0.0000	-SN	9999	950	0	0	0
2019/10/29 03:32:00	BASE	3.44	331	4.12	332	-3.2	100	-3.2	0	0	977.7	NA	0.0000	-SN	9999	560	0	0	0
2019/10/29 03:33:00	BASE	3.82	334	4.48	335	-3.2	100	-3.2	0	0	977.7	NA	0.0000	-SN	9999	430	0	0	0
2019/10/29 03:34:00	BASE	4.22	334	4.48	335	-3.1	100	-3.1	0	0	977.7	NA	0.0000	-SN	9999	1280	0	0	0
2019/10/29 03:35:00	BASE	4.25	332	4.48	329	-3.1	100	-3.1	0	0	977.7	NA	0.0000	-SN	9999	1280	0	0	0
2019/10/29 03:36:01	BASE	4.03	328	4.48	329	-3.1	100	-3.1	0	0	977.8	NA	0.0000	-SN	9999	1210	0	0	0
2019/10/29 03:37:01	BASE	3.63	320	4.48	329	-3.1	100	-3.1	0	0	977.8	NA	0.0000	-SN	9999	1150	0	0	0
2019/10/29 03:38:01	BASE	3.82	311	4.58	309	-3.1	100	-3.1	0	0	977.9	NA	0.0000	-SN	9999	1120	0	0	0
2019/10/29 03:39:01	BASE	4.43	311	5.14	314	-3.1	100	-3.1	0	0	977.9	NA	0.0000	-SN	9999	1080	0	0	0
2019/10/29 03:40:01	BASE	4.74	318	5.14	314	-3.1	100	-3.1	0	0	977.8	NA	0.0000	-SN	9999	1050	0	0	0
2019/10/29 03:41:01	BASE	4.93	323	5.61	326	-3.1	100	-3.1	0	0	977.8	NA	0.0000	-SN	9999	1120	0	0	0
2019/10/29 03:42:01	BASE	5.44	324	6.17	329	-3.1	100	-3.1	0	0	977.9	NA	0.0000		9999	1120	0	0	0
2019/10/29 03:43:00	BASE	5.67	326	6.28	327	-3.1	100	-3.1	0	0	977.9	NA	0.0000		9999	1120	0	0	0
2019/10/29 03:44:00	BASE	5.52	332	6.28	327	-3.0	100	-3.0	0	0	977.9	NA	0.0000		9999	1310	0	0	0
2019/10/29 03:45:00	BASE	5.78	336	6.84	333	-3.0	100	-3.0	0	0	977.9	NA	0.0000		9999	1150	0	0	0
2019/10/29 03:46:00	BASE	6.18	335	6.84	333	-3.0	100	-3.0	0	0	977.9	NA	0.0000		9999	1120	0	0	0
2019/10/29 03:47:00	BASE	5.92	335	6.84	333	-3.0	100	-3.0	0	0	977.9	NA	0.0000		9999	1080	0	0	0
2019/10/29 03:48:01	BASE	5.50	334	6.84	333	-3.0	100	-3.0	0	0	977.9	NA	0.0000		9999	1080	0	0	0
2019/10/29 03:49:01	BASE	5.77	336	6.84	333	-3.0	100	-3.0	0	0	977.9	NA	0.0000		9999	1180	1710	0	0
2019/10/29 03:50:01	BASE	6.32	340	7.36	340	-3.0	100	-3.0	0	0	977.9	NA	0.0000		9999	1180	0	0	0
2019/10/29 03:51:01	BASE	6.76	340	7.51	337	-3.0	100	-3.0	0	0	977.9	NA	0.0000		9999	1150	0	0	0
2019/10/29 03:52:00	BASE	6.79	342	7.51	337	-3.0	100	-3.0	0	0	977.9	NA	0.0000		9999	1120	0	0	0
2019/10/29 03:53:01	BASE	6.70	343	7.51	337	-2.9	100	-2.9	0	0	977.9	NA	0.0000		9999	1050	0	0	0
2019/10/29 03:54:00	BASE	6.64	339	7.51	337	-2.9	100	-2.9	0	0	977.9	NA	0.0000		9999	1050	0	0	0
2019/10/29 03:55:00	BASE	6.65	335	7.92	340	-2.9	100	-2.9	0	0	977.9	NA	0.0000		9999	1080	0	0	0
2019/10/29 03:56:01	BASE	6.53	333	7.92	340	-2.9	100	-2.9	0	0	977.9	NA	0.0000		9999	1150	3380	0	0
2019/10/29 03:57:01	BASE	5.89	332	7.92	340	-2.8	100	-2.8	0	0	977.9	NA	0.0000		9999	1150	3450	0	0
2019/10/29 03:58:00	BASE	5.77	330	7.92	340	-2.8	100	-2.8	0	0	977.9	NA	0.0000		9999	1250	7190	0	0
2019/10/29 03:59:01	BASE	6.12	330	7.92	340	-2.8	100	-2.8	0	0	977.9	NA	0.0000		9999	1770	3710	7190	0
2019/10/29 04:00:01	BASE	6.19	332	7.92	340	-2.8	100	-2.8	0	0	977.9	NA	0.0000		9999	1310	3540	0	0
2019/10/29 04:02:00	BASE	6.20	331	7.92	340	-2.8	100	-2.8	0	0	978.0	NA	0.0000		9999	1440	2950	0	0
2019/10/29 04:03:00	BASE	6.34	330	7.92	340	-2.8	100	-2.8	0	0	978.1	NA	0.0000		9999	1280	3020	0	0
2019/10/29 04:04:00	BASE	6.37	334	7.92	340	-2.8	100	-2.8	0	0	978.1	NA	0.0000		9999	2790	0	0	0
2019/10/29 04:05:00	BASE	6.17	334	6.94	333	-2.8	100	-2.8	0	0	978.1	NA	0.0000		9999	1640	2660	0	0
2019/10/29 04:06:00	BASE	5.66	333	6.94	333	-2.8	100	-2.8	0	0	978.1	NA	0.0000		9999	1870	2620	0	0
2019/10/29 04:07:00	BASE	5.44	331	6.94	333	-2.8	100	-2.8	0	0	978.1	NA	0.0000		9999	2030	2660	0	0
2019/10/29 04:08:00	BASE	5.72	326	6.94	333	-2.7	100	-2.7	0	0	978.1	NA	0.0000		9999	1570	2790	0	0
2019/10/29 04:09:00	BASE	5.61	327	6.94	333	-2.7	100	-2.7	0	0	978.1	NA	0.0000		9999	1480	2820	0	0
2019/10/29 04:10:00	BASE	5.43	329	6.94	333	-2.6	100	-2.6	0	0	978.0	NA	0.0000		9999	1570	2330	2760	0
2019/10/29 04:11:00	BASE	5.67	328	6.94	333	-2.6	100	-2.6	0	0	978.0	NA	0.0000		9999	1710	2720	0	0
2019/10/29 04:12:00	BASE	5.28	329	6.94	333	-2.6	100	-2.6	0	0	978.0	NA	0.0000		9999	1570	0	0	0
2019/10/29 04:13:00	BASE	5.10	332	6.84	330	-2.5	100	-2.5	0	0	978.1	NA	0.0000		9999	1710	0	0	0
2019/10/29 04:14:00	BASE	5.35	331	6.84	330	-2.5	100	-2.5	0	0	978.1	NA	0.0000		9999	1480	2000	0	0
2019/10/29 04:15:00	BASE	5.26	328	6.84	330	-2.5	100	-2.5	0	0	978.1	NA	0.0000		9999	1380	2330	0	0
2019/10/29 04:16:00	BASE	5.32	325	6.84	330	-2.6	100	-2.6	0	0	978.0	NA	0.0000		9999	1440	0	0	0
2019/10/29 04:17:00	BASE	5.12	321	6.84	330	-2.6	100	-2.6	0	0	978.0	NA	0.0000		9999	1540	2330	0	0
2019/10/29 04:18:00	BASE	4.70	322	6.74	343	-2.6	100	-2.6	0	0	978.1	NA	0.0000		9999	2660	0	0	0
2019/10/29 04:19:00	BASE	4.71	322	6.74	343	-2.5	100	-2.5	0	0	978.1	NA	0.0000		9999	1670	0	0	0
2019/10/29 04:20:00	BASE	5.51	320	6.84	320	-2.5	100	-2.5	0	0	978.1	NA	0.0000		9999	390	0	0	0
2019/10/29 04:21:00	BASE	6.33	321	7.00	320	-2.5	100	-2.5	0	0	978.1	NA	0.0000		9999	260	0	0	0
2019/10/29 04:22:00	BASE	6.60	324	8.08	327	-2.5	100	-2.5	0	0	978.1	NA	0.0000	-SN	4000	0	0	0	1540
2019/10/29 04:23:00	BASE	7.58	326	9.67	329	-2.5	100	-2.5	0	0	978.1	NA	0.0000	-SN BR	3000	0	0	0	1250
2019/10/29 04:24:00	BASE	8.60	325	9.67	326	-2.5	100	-2.5	0	0	978.1	NA	0.0000	-SN BR	5000	0	0	0	1020
2019/10/29 04:25:00	BASE	9.32	315	12.96	293	-2.5	100	-2.5	0	0	978.1	NA	0.0000	-SN BR	5000	0	0	0	1080
2019/10/29 04:26:00	BASE	11.59	296	15.12	279	-2.5	100	-2.5	0	0	978.0	NA	0.0000	-SN BR	2500	0	0	0	660
2019/10/29 04:27:00	BASE	12.70	278	15.12	279	-2.5	100	-2.5	0	0	978.1	NA	0.0000	-SN BR	1900	0	0	0	590
2019/10/29 04:28:00	BASE	12.22	272	15.12	279	-2.6	100	-2.6	0	0	978.1	NA	0.0000	-SN BR	2200	0	0	0	720
2019/10/29 04:29:00	BASE	12.10	278	15.12	279	-2.6	100	-2.6	0	0	978.2	NA	0.0000	-SN BR	2400	0	0	0	750
2019/10/29 04:30:00	BASE	11.85	283	15.12	279	-2.5	100	-2.5	0	0	978.1	NA	0.0000	-SN BR	2400	0	0	0	720
2019/10/29 04:31:00	BASE	12.19	282	15.12	279	-2.6	100	-2.6	0	0	978.2	NA	0.0000	-SN BR	3100	0	0	0	1050
2019/10/29 04:32:00	BASE	12.59	279	15.12	279	-2.6	100	-2.6	0	0	978.2	NA	0.0000	-SN BR	3600	0	0	0	1310
2019/10/29 04:33:00	BASE	12.10	276	15.12	279	-2.5	100	-2.5	0	0	978.2	NA	0.0000	-SN BR	3400	0	0	0	1180
2019/10/29 04:34:00	BASE	12.13	278	15.12	279	-2.5	100	-2.5	0	0	978.2	NA	0.0000	-SN BR	3800	0	0	0	1940
2019/10/29 04:35:00	BASE	12.61	280	15.12	279	-2.6	100	-2.6	0	0	978.2	NA	0.0000	-SN BR	4000	0	0	0	1940
2019/10/29 04:36:00	BASE	11.48	283	15.07	279	-2.5	100	-2.5	0	0	978.2	NA	0.0000	-SN BR	4300	0	0	0	1540
2019/10/29 04:37:00	BASE	9.91	286	15.07	279	-2.5	100	-2.5	0	0	978.3	NA	0.0000	-SN BR	5000	0	0	0	1510
2019/10/29 04:38:00	BASE	9.04	286	15.07	279	-2.5	100	-2.5	0	0	978.3	NA	0.0000	-SN BR	9999	330	0	0	0
2019/10/29 04:39:00	BASE	9.60	291	15.07	279	-2.5	100	-2.5	0	0	978.2	NA	0.0000	-SN BR	9999	330	0	0	0
2019/10/29 04:40:00	BASE	12.27	290	16.26	288	-2.5	100	-2.5	0	0	978.2	NA	0.2540	-SN BR	9999	430	0	0	0
2019/10/29 04:41:00	BASE	13.33	289	16.26	288	-2.5	100	-2.5	0	0	978.2	NA	0.0000	-SN BR	9999	1250	0	0	0
2019/10/29 04:42:00	BASE	13.41	288	16.31	295	-2.5	100	-2.5	0	0	978.2	NA	0.0000	-SN BR	9999	1280	2070	0	0
2019/10/29 04:43:00	BASE	13.97	288	16.31	295	-2.5	100	-2.5	0	0	978.2	NA	0.0000	-SN BR	9999	1350	2360	0	0
2019/10/29 04:44:00	BASE	13.43	289	16.31	295	-2.5	100	-2.5	0	0	978.2	NA	0.0000	-SN BR	9999	1280	2100	0	0
2019/10/29 04:45:00	BASE	14.26	289	17.34	290	-2.5	100	-2.5	0	0	978.2	NA	0.0000	-SN	9999	1350	2200	0	0
2019/10/29 04:46:00	BASE	15.22	288	18.11	282	-2.5	100	-2.5	0	0	978.2	NA	0.0000	-SN	9999	1540	2530	0	0
2019/10/29 04:47:00	BASE	14.61	288	18.11	282	-2.5	100	-2.5	0	0	978.2	NA	0.0000	-SN	9999	1380	2260	0	0
2019/10/29 04:48:00	BASE	13.58	289	18.11	282	-2.5	100	-2.5	0	0	978.3	NA	0.0000	-SN	9999	1350	7250	0	0
2019/10/29 04:49:00	BASE	13.64	290	18.11	282	-2.5	100	-2.5	0	0	978.3	NA	0.0000		9999	1310	0	0	0
2019/10/29 04:50:00	BASE	15.09	289	18.67	285	-2.5	100	-2.5	0	0	978.3	NA	0.0000		9999	1380	0	0	0
2019/10/29 04:51:00	BASE	15.61	287	18.67	285	-2.5	100	-2.5	0	0	978.3	NA	0.0000		9999	1380	0	0	0
2019/10/29 04:52:00	BASE	15.29	284	18.67	285	-2.5	100	-2.5	0	0	978.3	NA	0.0000		9999	1440	0	0	0
2019/10/29 04:53:00	BASE	13.88	284	18.67	285	-2.5	100	-2.5	0	0	978.4	NA	0.0000		9999	1480	3770	0	0
2019/10/29 04:54:00	BASE	12.96	286	18.67	285	-2.5	100	-2.5	0	0	978.4	NA	0.0000		9999	1410	0	0	0
2019/10/29 04:55:00	BASE	13.72	287	18.67	285	-2.4	100	-2.4	0	0	978.4	NA	0.0000		9999	1540	0	0	0
2019/10/29 04:56:00	BASE	13.80	288	18.67	285	-2.4	100	-2.4	0	0	978.4	NA	0.0000		9999	1540	0	0	0
2019/10/29 04:57:00	BASE	13.27	287	18.67	285	-2.4	100	-2.4	0	0	978.5	NA	0.0000		9999	1540	0	0	0
2019/10/29 04:58:00	BASE	12.72	288	18.67	285	-2.4	100	-2.4	0	0	978.5	NA	0.0000		9999	1540	0	0	0
2019/10/29 04:59:00	BASE	12.37	287	18.67	285	-2.4	100	-2.4	0	0	978.5	NA	0.0000		9999	1610	0	0	0
2019/10/29 05:00:00	BASE	13.13	288	17.80	286	-2.4	100	-2.4	0	0	978.5	NA	0.0000		9999	1540	0	0	0
2019/10/29 05:01:00	BASE	14.40	291	17.80	286	-2.4	100	-2.4	0	0	978.4	NA	0.0000		9999	1610	0	0	0
2019/10/29 05:02:00	BASE	14.46	290	17.59	285	-2.3	100	-2.3	0	0	978.5	NA	0.0000		9999	1610	0	0	0
2019/10/29 05:03:00	BASE	13.93	289	17.59	285	-2.3	100	-2.3	0	0	978.5	NA	0.0000		9999	1670	0	0	0
2019/10/29 05:04:00	BASE	14.69	288	17.59	285	-2.3	100	-2.3	0	0	978.5	NA	0.0000		9999	1740	0	0	0
2019/10/29 05:05:00	BASE	15.80	288	17.59	285	-2.4	100	-2.4	0	0	978.5	NA	0.0000		9999	1770	0	0	0
2019/10/29 05:06:00	BASE	15.00	289	17.59	285	-2.4	100	-2.4	0	0	978.5	NA	0.0000		9999	1770	0	0	0
2019/10/29 05:07:00	BASE	13.51	286	17.59	285	-2.4	100	-2.4	0	0	978.6	NA	0.0000		9999	1800	0	0	0
2019/10/29 05:08:00	BASE	12.03	288	17.59	285	-2.4	100	-2.4	0	0	978.6	NA	0.0000		9999	1870	0	0	0
2019/10/29 05:09:00	BASE	11.56	288	17.59	285	-2.3	100	-2.3	0	0	978.6	NA	0.0000		9999	1770	0	0	0
2019/10/29 05:10:00	BASE	12.07	286	17.59	285	-2.3	100	-2.3	0	0	978.7	NA	0.0000		9999	1710	0	0	0
2019/10/29 05:11:00	BASE	11.82	288	17.44	293	-2.3	100	-2.3	0	0	978.7	NA	0.0000		9999	1800	0	0	0
2019/10/29 05:12:00	BASE	12.78	287	17.44	293	-2.3	100	-2.3	0	0	978.6	NA	0.0000		9999	1740	0	0	0
2019/10/29 05:13:00	BASE	12.87	286	17.44	293	-2.3	100	-2.3	0	0	978.7	NA	0.0000		9999	1770	0	0	0
2019/10/29 05:14:00	BASE	10.96	290	17.44	293	-2.3	100	-2.3	0	0	978.8	NA	0.0000		9999	1770	0	0	0
2019/10/29 05:15:00	BASE	10.61	293	16.41	282	-2.3	100	-2.3	0	0	978.8	NA	0.0000		9999	1670	0	0	0
2019/10/29 05:16:00	BASE	11.52	291	16.41	282	-2.3	100	-2.3	0	0	978.8	NA	0.0000		9999	1670	0	0	0
2019/10/29 05:17:00	BASE	11.37	291	16.41	282	-2.3	100	-2.3	0	0	978.8	NA	0.0000		9999	2260	0	0	0
2019/10/29 05:18:00	BASE	10.13	290	16.41	282	-2.3	100	-2.3	0	0	978.9	NA	0.0000		9999	2000	0	0	0
2019/10/29 05:19:00	BASE	10.04	290	15.48	283	-2.3	100	-2.3	0	0	978.9	NA	0.0000		9999	1670	2360	0	0
2019/10/29 05:20:00	BASE	10.99	291	15.48	283	-2.3	100	-2.3	0	0	978.8	NA	0.0000		9999	1770	0	0	0
2019/10/29 05:21:00	BASE	11.67	290	15.48	283	-2.3	100	-2.3	0	0	978.9	NA	0.0000		9999	2300	0	0	0
2019/10/29 05:22:00	BASE	11.33	289	14.76	285	-2.3	100	-2.3	0	0	978.9	NA	0.0000		9999	2070	0	0	0
2019/10/29 05:23:00	BASE	10.34	289	14.76	285	-2.3	100	-2.3	0	0	978.9	NA	0.0000		9999	1610	2300	0	0
2019/10/29 05:24:00	BASE	9.43	291	14.76	285	-2.3	100	-2.3	0	0	979.0	NA	0.0000		9999	2330	0	0	0
2019/10/29 05:25:00	BASE	9.65	293	14.76	285	-2.3	100	-2.3	0	0	979.0	NA	0.0000		9999	1570	2460	0	0
2019/10/29 05:26:00	BASE	10.56	292	14.76	285	-2.3	100	-2.3	0	0	979.0	NA	0.0000		9999	1640	2490	0	0
2019/10/29 05:27:00	BASE	10.78	290	14.76	285	-2.4	100	-2.4	0	0	979.0	NA	0.0000		9999	1800	2490	0	0
2019/10/29 05:28:00	BASE	10.80	289	14.76	285	-2.4	100	-2.4	0	0	979.1	NA	0.0000		9999	2560	0	0	0
2019/10/29 05:29:00	BASE	11.23	288	14.76	285	-2.4	100	-2.4	0	0	979.0	NA	0.0000		9999	2530	0	0	0
2019/10/29 05:30:00	BASE	12.66	290	15.28	289	-2.4	100	-2.4	0	0	979.0	NA	0.0000		9999	2590	0	0	0
2019/10/29 05:31:00	BASE	12.84	289	15.28	289	-2.4	100	-2.4	0	0	979.0	NA	0.0000		9999	2590	0	0	0
2019/10/29 05:32:00	BASE	11.98	288	15.28	289	-2.4	99	-2.5	0	0	979.1	NA	0.0000		9999	2660	0	0	0
2019/10/29 05:33:00	BASE	12.82	290	15.38	289	-2.3	99	-2.5	0	0	979.0	NA	0.0000		9999	2660	0	0	0
2019/10/29 05:34:00	BASE	13.06	291	15.38	289	-2.3	98	-2.6	0	0	979.1	NA	0.0000		9999	2760	0	0	0
2019/10/29 05:35:01	BASE	11.72	294	15.38	289	-2.3	98	-2.6	0	0	979.1	NA	0.0000		9999	2820	0	0	0
2019/10/29 05:36:00	BASE	10.97	296	15.38	289	-2.3	97	-2.7	0	0	979.2	NA	0.0000		9999	2260	2920	0	0
2019/10/29 05:37:00	BASE	10.62	297	15.38	289	-2.3	97	-2.7	0	0	979.2	NA	0.0000		9999	2170	0	0	0
2019/10/29 05:38:00	BASE	10.36	298	15.38	289	-2.3	97	-2.7	0	0	979.2	NA	0.0000		9999	2260	0	0	0
2019/10/29 05:39:01	BASE	11.33	295	15.38	289	-2.3	97	-2.7	0	0	979.2	NA	0.0000		9999	2260	0	0	0
2019/10/29 05:40:00	BASE	11.70	293	15.38	289	-2.3	97	-2.7	0	0	979.2	NA	0.0000		9999	2360	0	0	0
2019/10/29 05:41:00	BASE	11.05	293	15.38	289	-2.3	97	-2.7	0	0	979.2	NA	0.0000		9999	2330	0	0	0
2019/10/29 05:42:00	BASE	11.32	294	15.38	289	-2.3	97	-2.7	0	0	979.2	NA	0.0000		9999	2460	0	0	0
2019/10/29 05:43:00	BASE	10.88	296	14.30	297	-2.3	97	-2.7	0	0	979.2	NA	0.0000		9999	2660	0	0	0
2019/10/29 05:44:00	BASE	10.54	298	13.99	291	-2.3	97	-2.7	0	0	979.2	NA	0.0000		9999	2620	0	0	0
2019/10/29 05:45:00	BASE	10.63	300	13.99	291	-2.3	97	-2.7	0	0	979.2	NA	0.0000		9999	1770	0	0	0
2019/10/29 05:46:00	BASE	10.52	302	13.99	291	-2.3	97	-2.7	0	0	979.2	NA	0.0000		9999	2490	0	0	0
2019/10/29 05:47:00	BASE	11.31	302	13.99	291	-2.3	98	-2.6	0	0	979.2	NA	0.0000		9999	2530	0	0	0
2019/10/29 05:48:00	BASE	11.67	305	13.99	291	-2.3	98	-2.6	0	0	979.2	NA	0.0000		9999	2590	0	0	0
2019/10/29 05:49:00	BASE	12.09	305	15.38	303	-2.3	98	-2.6	0	0	979.2	NA	0.0000		9999	2620	0	0	0
2019/10/29 05:50:00	BASE	13.05	304	15.38	303	-2.3	98	-2.6	0	0	979.2	NA	0.0000		9999	2620	0	0	0
2019/10/29 05:51:00	BASE	12.83	304	15.38	303	-2.3	98	-2.6	0	0	979.3	NA	0.0000		9999	2690	0	0	0
2019/10/29 05:52:01	BASE	12.12	302	15.38	303	-2.3	98	-2.6	0	0	979.3	NA	0.0000		9999	2030	2720	0	0
2019/10/29 05:53:00	BASE	11.94	302	15.38	303	-2.3	98	-2.6	0	0	979.3	NA	0.0000		9999	1870	2890	0	0
2019/10/29 05:54:01	BASE	12.31	303	15.38	303	-2.3	97	-2.7	0	0	979.3	NA	0.0000		9999	2100	2850	0	0
2019/10/29 05:55:00	BASE	12.40	303	15.38	303	-2.3	97	-2.7	0	0	979.3	NA	0.0000		9999	2000	2850	0	0
2019/10/29 05:56:00	BASE	11.65	305	15.38	303	-2.3	97	-2.7	0	0	979.4	NA	0.0000		9999	2890	0	0	0
2019/10/29 05:57:00	BASE	11.47	307	15.38	303	-2.3	97	-2.7	0	0	979.4	NA	0.0000		9999	2890	0	0	0
2019/10/29 05:58:00	BASE	11.56	307	15.38	303	-2.3	97	-2.7	0	0	979.4	NA	0.0000		9999	3020	4170	0	0
2019/10/29 05:59:00	BASE	12.28	308	14.71	306	-2.3	97	-2.7	0	0	979.4	NA	0.0000		9999	3120	4100	0	0
2019/10/29 06:00:00	BASE	12.62	308	14.51	314	-2.3	97	-2.7	0	0	979.5	NA	0.0000		9999	1940	3180	4100	0
2019/10/29 06:01:00	BASE	11.46	307	14.51	314	-2.3	98	-2.7	0	0	979.5	NA	0.0000		9999	4070	0	0	0
2019/10/29 06:02:00	BASE	11.32	305	14.51	314	-2.4	98	-2.7	0	0	979.5	NA	0.0000		9999	4170	0	0	0
2019/10/29 06:03:00	BASE	11.35	306	14.51	314	-2.4	98	-2.6	0	0	979.5	NA	0.0000		9999	2260	4230	0	0
2019/10/29 06:04:00	BASE	11.04	307	14.51	314	-2.4	98	-2.7	0	0	979.6	NA	0.0000		9999	2230	4300	0	0
2019/10/29 06:05:00	BASE	11.18	306	14.51	314	-2.4	98	-2.7	0	0	979.6	NA	0.0000		9999	1770	2300	4360	0
2019/10/29 06:06:00	BASE	10.97	308	14.51	314	-2.4	98	-2.7	0	0	979.6	NA	0.0000		9999	1800	4490	0	0
2019/10/29 06:07:00	BASE	10.76	309	14.51	314	-2.4	98	-2.7	0	0	979.6	NA	0.0000		9999	1670	0	0	0
2019/10/29 06:08:00	BASE	11.11	308	14.51	314	-2.4	98	-2.7	0	0	979.6	NA	0.0000		9999	1940	0	0	0
2019/10/29 06:09:00	BASE	11.66	308	13.38	304	-2.4	98	-2.7	0	0	979.7	NA	0.0000		9999	2030	4720	0	0
2019/10/29 06:10:00	BASE	11.81	304	13.38	304	-2.4	98	-2.7	0	0	979.7	NA	0.0000		9999	4560	0	0	0
2019/10/29 06:11:00	BASE	11.85	302	13.38	302	-2.4	98	-2.7	0	0	979.7	NA	0.0000		9999	4560	0	0	0
2019/10/29 06:12:00	BASE	11.66	304	13.38	302	-2.4	98	-2.7	0	0	979.7	NA	0.0000		9999	3770	4690	0	0
2019/10/29 06:13:00	BASE	10.91	304	13.38	302	-2.4	98	-2.7	0	0	979.7	NA	0.0000		9999	3770	0	0	0
2019/10/29 06:14:00	BASE	10.46	307	13.38	302	-2.4	97	-2.8	0	0	979.7	NA	0.0000		9999	3740	0	0	0
2019/10/29 06:15:00	BASE	11.23	308	13.68	305	-2.4	97	-2.8	0	0	979.7	NA	0.0000		9999	3710	0	0	0
2019/10/29 06:16:00	BASE	11.29	308	13.68	305	-2.4	97	-2.9	0	0	979.8	NA	0.0000		9999	3770	0	0	0
2019/10/29 06:17:00	BASE	10.88	309	13.68	305	-2.4	96	-2.9	0	0	979.8	NA	0.0000		9999	3770	0	0	0
2019/10/29 06:18:00	BASE	10.95	308	13.68	305	-2.4	96	-2.9	0	0	979.8	NA	0.0000		9999	3810	0	0	0
2019/10/29 06:19:00	BASE	10.63	308	13.68	305	-2.4	96	-3.0	0	0	979.8	NA	0.0000		9999	3710	0	0	0
2019/10/29 06:20:00	BASE	10.55	311	13.68	305	-2.4	96	-3.0	0	0	979.8	NA	0.0000		9999	3840	0	0	0
2019/10/29 06:21:00	BASE	10.50	311	13.68	305	-2.4	96	-3.0	0	0	979.8	NA	0.0000		9999	4000	0	0	0
2019/10/29 06:22:00	BASE	11.20	307	13.68	305	-2.4	96	-3.0	0	0	979.8	NA	0.0000		9999	4130	0	0	0
2019/10/29 06:23:00	BASE	11.20	307	13.68	305	-2.4	96	-3.0	0	0	979.8	NA	0.0000		9999	4100	0	0	0
2019/10/29 06:24:00	BASE	10.54	307	13.68	305	-2.4	96	-3.0	0	0	979.9	NA	0.0000		9999	4100	0	0	0
2019/10/29 06:25:00	BASE	10.17	306	13.12	303	-2.4	95	-3.0	0	0	979.9	NA	0.0000		9999	4130	0	0	0
2019/10/29 06:26:00	BASE	10.01	305	13.12	303	-2.4	95	-3.1	0	0	979.9	NA	0.0000		9999	4170	0	0	0
2019/10/29 06:27:00	BASE	10.28	307	13.12	303	-2.4	95	-3.1	0	0	979.9	NA	0.0000		9999	4230	0	0	0
2019/10/29 06:28:00	BASE	9.96	309	13.12	303	-2.4	95	-3.1	0	0	980.0	NA	0.0000		9999	4270	0	0	0
2019/10/29 06:29:00	BASE	9.78	308	13.12	303	-2.4	95	-3.1	0	0	979.9	NA	0.0000		9999	4230	0	0	0
2019/10/29 06:30:00	BASE	10.56	307	13.12	303	-2.4	95	-3.1	0	0	980.0	NA	0.0000		9999	4200	0	0	0
2019/10/29 06:31:00	BASE	11.03	307	13.12	303	-2.4	95	-3.1	0	0	980.0	NA	0.0000		9999	4170	0	0	0
2019/10/29 06:32:01	BASE	10.91	307	12.66	309	-2.4	95	-3.1	0	0	980.0	NA	0.0000		9999	4300	0	0	0
2019/10/29 06:33:01	BASE	10.82	307	12.66	309	-2.4	95	-3.1	0	0	980.1	NA	0.0000		9999	2230	4360	0	0
2019/10/29 06:34:01	BASE	10.80	307	12.66	309	-2.4	95	-3.1	0	0	980.1	NA	0.0000		9999	2200	4360	0	0
2019/10/29 06:35:01	BASE	10.78	307	12.66	309	-2.4	95	-3.1	0	0	980.1	NA	0.0000		9999	4330	0	0	0
2019/10/29 06:36:01	BASE	10.71	307	12.66	309	-2.4	95	-3.1	0	0	980.1	NA	0.0000		9999	4300	0	0	0
2019/10/29 06:37:01	BASE	10.76	305	12.66	309	-2.4	94	-3.2	0	0	980.1	NA	0.0000		9999	3380	4330	0	0
2019/10/29 06:38:01	BASE	11.16	304	12.81	302	-2.4	94	-3.2	0	0	980.1	NA	0.0000		9999	3510	4360	0	0
2019/10/29 06:39:01	BASE	11.22	304	12.81	302	-2.4	94	-3.2	0	0	980.1	NA	0.0000		9999	2990	3410	4230	0
2019/10/29 06:40:01	BASE	10.44	304	12.81	302	-2.4	94	-3.2	0	0	980.2	NA	0.0000		9999	2920	0	0	0
2019/10/29 06:41:00	BASE	9.46	305	12.81	302	-2.4	94	-3.3	0	0	980.2	NA	0.0000		9999	2820	0	0	0
2019/10/29 06:42:01	BASE	9.13	307	12.81	302	-2.4	94	-3.3	0	0	980.2	NA	0.0000		9999	3280	0	0	0
2019/10/29 06:43:00	BASE	8.91	310	12.81	302	-2.4	94	-3.3	0	0	980.3	NA	0.0000		9999	3220	0	0	0
2019/10/29 06:44:00	BASE	8.42	311	12.81	302	-2.4	94	-3.3	0	0	980.3	NA	0.0000		9999	3120	0	0	0
2019/10/29 06:45:00	BASE	8.38	311	12.81	302	-2.4	94	-3.3	0	0	980.3	NA	0.0000		9999	3020	0	0	0
2019/10/29 06:46:00	BASE	8.35	314	12.81	302	-2.5	94	-3.2	0	0	980.3	NA	0.0000		9999	2950	0	0	0
2019/10/29 06:47:01	BASE	8.56	314	12.81	302	-2.5	95	-3.2	0	0	980.3	NA	0.0000		9999	2920	0	0	0
2019/10/29 06:48:01	BASE	9.59	311	12.35	310	-2.5	96	-3.1	0	0	980.3	NA	0.0000		9999	2920	0	0	0
2019/10/29 06:49:00	BASE	10.26	311	11.57	305	-2.5	96	-3.0	0	0	980.3	NA	0.0000		9999	2790	0	0	0
2019/10/29 06:50:00	BASE	9.84	310	11.57	305	-2.5	97	-3.0	0	0	980.3	NA	0.0000		9999	2620	0	0	0
2019/10/29 06:51:00	BASE	9.50	310	11.57	305	-2.5	97	-3.0	0	0	980.4	NA	0.0000		9999	2590	0	0	0
2019/10/29 06:52:00	BASE	9.33	311	11.57	305	-2.5	97	-3.0	0	0	980.4	NA	0.0000		9999	2620	0	0	0
2019/10/29 06:53:00	BASE	8.39	311	11.57	305	-2.5	96	-3.0	0	0	980.4	NA	0.0000		9999	2400	0	0	0
2019/10/29 06:54:00	BASE	7.93	312	11.57	305	-2.5	96	-3.0	0	0	980.4	NA	0.0000		9999	2300	0	0	0
2019/10/29 06:55:00	BASE	8.05	312	11.57	305	-2.5	96	-3.1	0	0	980.4	NA	0.0000		9999	2530	3280	0	0
2019/10/29 06:56:00	BASE	7.81	310	11.57	305	-2.5	96	-3.1	0	0	980.4	NA	0.0000		9999	2560	0	0	0
2019/10/29 06:57:00	BASE	7.99	310	11.57	305	-2.5	96	-3.1	0	0	980.4	NA	0.0000		9999	2230	2820	0	0
2019/10/29 06:58:00	BASE	8.37	310	10.85	308	-2.5	96	-3.1	0	0	980.4	NA	0.0000		9999	1900	0	0	0
2019/10/29 06:59:00	BASE	8.86	308	10.65	309	-2.5	96	-3.1	0	0	980.4	NA	0.0000		9999	1870	0	0	0
2019/10/29 07:00:01	BASE	9.07	307	10.08	303	-2.5	96	-3.1	0	0	980.4	NA	0.0000		9999	1800	3280	0	0
2019/10/29 07:01:01	BASE	8.98	310	10.08	303	-2.5	96	-3.1	0	0	980.4	NA	0.0000		9999	1770	0	0	0
2019/10/29 07:02:01	BASE	9.49	310	11.57	313	-2.5	96	-3.1	0	0	980.4	NA	0.0000		9999	1740	2330	0	0
2019/10/29 07:03:00	BASE	10.61	311	12.24	312	-2.5	96	-3.0	0	0	980.4	NA	0.0000		9999	2460	0	0	0
2019/10/29 07:04:00	BASE	10.89	312	12.24	312	-2.5	96	-3.0	0	0	980.4	NA	0.0000		9999	2850	0	0	0
2019/10/29 07:05:00	BASE	10.82	318	12.35	327	-2.5	96	-3.0	0	0	980.4	NA	0.0000		9999	2360	0	0	0
2019/10/29 07:06:00	BASE	11.19	320	13.27	317	-2.5	96	-3.0	0	0	980.4	NA	0.0000		9999	4430	0	0	0
2019/10/29 07:07:00	BASE	11.21	320	13.27	317	-2.5	97	-2.9	0	0	980.4	NA	0.0000		9999	3350	4040	4430	0
2019/10/29 07:08:00	BASE	11.42	321	13.27	317	-2.5	97	-2.9	0	0	980.5	NA	0.0000		9999	2200	3050	0	0
2019/10/29 07:09:00	BASE	10.79	319	13.27	317	-2.5	97	-2.9	0	0	980.6	NA	0.0000		9999	1800	0	0	0
2019/10/29 07:10:00	BASE	9.85	317	13.27	317	-2.5	97	-2.9	0	0	980.6	NA	0.0000		9999	1710	0	0	0
2019/10/29 07:11:00	BASE	9.99	316	13.27	317	-2.5	97	-2.9	0	0	980.6	NA	0.0000		9999	1670	4860	0	0
2019/10/29 07:12:00	BASE	10.15	315	13.27	317	-2.5	97	-2.9	0	0	980.6	NA	0.0000		9999	5050	6690	0	0
2019/10/29 07:13:00	BASE	10.62	313	13.27	317	-2.5	98	-2.8	0	0	980.6	NA	0.0000		9999	6590	0	0	0
2019/10/29 07:14:00	BASE	10.92	308	13.27	317	-2.5	98	-2.8	0	0	980.6	NA	0.0000		9999	6790	0	0	0
2019/10/29 07:15:00	BASE	10.21	306	13.27	317	-2.5	98	-2.8	0	0	980.7	NA	0.0000		9999	3740	6790	0	0
2019/10/29 07:16:00	BASE	9.42	306	13.17	330	-2.5	98	-2.8	0	0	980.7	NA	0.0000		9999	3610	6760	0	0
2019/10/29 07:17:00	BASE	9.05	304	13.17	330	-2.5	98	-2.8	0	0	980.7	NA	0.0000		9999	3480	0	0	0
2019/10/29 07:18:00	BASE	9.03	304	12.09	311	-2.5	98	-2.8	0	0	980.7	NA	0.0000		9999	3450	0	0	0
2019/10/29 07:19:00	BASE	8.83	307	12.09	311	-2.5	98	-2.8	0	0	980.7	NA	0.0000		9999	3380	0	0	0
2019/10/29 07:20:00	BASE	8.46	313	12.09	311	-2.5	98	-2.8	0	0	980.7	NA	0.0000		9999	3380	0	0	0
2019/10/29 07:21:00	BASE	7.89	316	12.09	311	-2.5	98	-2.8	0	0	980.8	NA	0.0000		9999	3380	0	0	0
2019/10/29 07:22:00	BASE	6.96	317	12.09	311	-2.5	98	-2.8	0	0	980.8	NA	0.0000		9999	3310	0	0	0
2019/10/29 07:23:01	BASE	6.65	317	11.68	303	-2.5	98	-2.8	0	0	980.8	NA	0.0000		9999	3350	0	0	0
2019/10/29 07:24:01	BASE	6.78	315	11.01	296	-2.6	98	-2.8	0	0	980.8	NA	0.0000		9999	3450	0	0	0
2019/10/29 07:25:01	BASE	6.75	316	10.49	308	-2.6	99	-2.8	0	0	980.8	NA	0.0000		9999	3450	0	0	0
2019/10/29 07:26:01	BASE	6.48	318	10.49	308	-2.6	99	-2.8	0	0	980.8	NA	0.0000		9999	3380	0	0	0
2019/10/29 07:27:01	BASE	6.09	320	10.49	308	-2.7	99	-2.8	0	0	980.8	NA	0.0000		9999	3380	0	0	0
2019/10/29 07:28:01	BASE	6.29	321	9.83	305	-2.7	100	-2.8	0	0	980.8	NA	0.0000		9999	3310	0	0	0
2019/10/29 07:29:00	BASE	6.73	320	9.83	305	-2.7	100	-2.8	0	0	980.9	NA	0.0000		9999	3180	0	0	0
2019/10/29 07:30:01	BASE	6.79	320	8.18	315	-2.7	100	-2.7	1	0	980.9	NA	0.0000		9999	3250	0	0	0
2019/10/29 07:31:00	BASE	6.89	320	7.77	321	-2.8	100	-2.8	1	0	980.9	NA	0.0000		9999	3350	0	0	0
2019/10/29 07:32:00	BASE	6.80	318	7.77	321	-2.8	100	-2.8	1	0	980.9	NA	0.0000		9999	3220	0	0	0
2019/10/29 07:33:00	BASE	6.63	317	7.77	321	-2.8	100	-2.8	1	0	980.9	NA	0.0000		9999	3280	0	0	0
2019/10/29 07:34:00	BASE	6.68	318	7.77	321	-2.8	100	-2.8	1	0	980.9	NA	0.0000		9999	3220	0	0	0
2019/10/29 07:35:00	BASE	6.50	317	7.77	321	-2.8	100	-2.8	1	0	980.9	NA	0.0000		9999	3220	0	0	0
2019/10/29 07:36:00	BASE	6.38	317	7.77	321	-2.8	100	-2.8	1	0	980.9	NA	0.0000		9999	3050	0	0	0
2019/10/29 07:37:00	BASE	6.39	321	7.77	321	-2.8	100	-2.8	1	0	980.9	NA	0.0000		9999	2950	0	0	0
2019/10/29 07:38:01	BASE	6.55	322	7.72	318	-2.8	100	-2.8	1	0	980.9	NA	0.0000		9999	3180	0	0	0
2019/10/29 07:39:01	BASE	6.78	322	7.72	318	-2.8	100	-2.8	1	0	980.9	NA	0.0000		9999	2820	0	0	0
2019/10/29 07:40:00	BASE	6.62	326	7.72	318	-2.8	100	-2.8	1	0	980.9	NA	0.0000		9999	2760	0	0	0
2019/10/29 07:41:00	BASE	6.75	328	7.82	331	-2.8	100	-2.8	1	0	981.0	NA	0.0000		9999	2790	6040	0	0
2019/10/29 07:42:00	BASE	7.17	326	7.82	331	-2.8	100	-2.8	1	0	981.0	NA	0.0000		9999	2720	0	0	0
2019/10/29 07:43:00	BASE	7.35	324	7.82	316	-2.8	100	-2.8	1	0	981.0	NA	0.0000		9999	2690	0	0	0
2019/10/29 07:44:00	BASE	7.16	325	7.82	316	-2.8	100	-2.8	1	0	981.0	NA	0.0000		9999	2620	0	0	0
2019/10/29 07:45:00	BASE	6.99	326	7.82	316	-2.8	100	-2.8	1	0	981.0	NA	0.0000		9999	2560	3610	0	0
2019/10/29 07:46:00	BASE	7.07	326	7.82	316	-2.8	100	-2.8	1	0	981.0	NA	0.0000		9999	2560	3350	0	0
2019/10/29 07:47:00	BASE	6.78	326	7.82	316	-2.8	100	-2.8	2	0	981.0	NA	0.0000		9999	2590	3380	0	0
2019/10/29 07:48:00	BASE	6.42	329	7.82	316	-2.8	100	-2.8	2	0	981.0	NA	0.0000		9999	2620	3310	0	0
2019/10/29 07:49:00	BASE	6.71	330	7.82	316	-2.8	100	-2.8	2	0	981.0	NA	0.0000		9999	2720	3350	0	0
2019/10/29 07:50:00	BASE	7.46	329	9.11	326	-2.8	100	-2.8	2	0	981.0	NA	0.0000		9999	3350	0	0	0
2019/10/29 07:51:00	BASE	7.98	327	9.11	326	-2.8	100	-2.8	2	0	981.0	NA	0.0000		9999	2690	0	0	0
2019/10/29 07:52:00	BASE	8.05	325	9.11	326	-2.8	100	-2.8	2	0	981.0	NA	0.0000		9999	2690	0	0	0
2019/10/29 07:53:00	BASE	7.77	325	9.11	326	-2.8	100	-2.8	2	0	981.0	NA	0.0000		9999	2690	0	0	0
2019/10/29 07:54:00	BASE	7.64	324	9.11	326	-2.8	100	-2.8	2	0	981.0	NA	0.0000		9999	2760	0	0	0
2019/10/29 07:55:00	BASE	7.60	323	9.11	326	-2.7	100	-2.7	2	0	981.0	NA	0.0000		9999	2760	0	0	0
2019/10/29 07:56:00	BASE	7.62	320	9.11	326	-2.7	100	-2.7	3	0	981.0	NA	0.0000		9999	2720	3280	5510	0
2019/10/29 07:57:00	BASE	7.60	317	9.11	326	-2.7	100	-2.7	3	0	981.0	NA	0.0000		9999	2850	3280	5350	0
2019/10/29 07:58:00	BASE	7.20	316	9.11	326	-2.7	100	-2.7	3	0	981.0	NA	0.0000		9999	2820	0	0	0
2019/10/29 07:59:00	BASE	7.10	316	9.11	326	-2.7	100	-2.7	3	0	981.0	NA	0.0000		9999	2820	0	0	0
2019/10/29 08:00:00	BASE	7.07	314	9.00	322	-2.7	100	-2.7	3	0	981.0	NA	0.0000		9999	2620	0	0	0
2019/10/29 08:01:00	BASE	6.77	314	8.64	311	-2.7	100	-2.7	3	0	981.0	NA	0.0000		9999	2620	0	0	0
2019/10/29 08:02:00	BASE	6.44	314	8.64	311	-2.7	100	-2.7	3	0	981.0	NA	0.0000		9999	2590	3080	0	0
2019/10/29 08:03:00	BASE	6.37	314	8.64	311	-2.7	100	-2.7	3	0	981.0	NA	0.0000		9999	3080	3540	0	0
2019/10/29 08:04:00	BASE	6.57	313	8.64	311	-2.7	100	-2.7	4	0	981.0	NA	0.0000		9999	3050	0	0	0
2019/10/29 08:05:01	BASE	6.43	313	8.44	319	-2.7	100	-2.7	4	0	981.0	NA	0.0000		9999	2560	0	0	0
2019/10/29 08:06:01	BASE	6.24	314	8.44	319	-2.7	100	-2.7	5	0	981.0	NA	0.0000		9999	2530	0	0	0
2019/10/29 08:07:01	BASE	6.38	316	7.92	320	-2.7	100	-2.7	5	0	981.0	NA	0.0000		9999	2990	0	0	0
2019/10/29 08:08:01	BASE	6.16	316	7.92	320	-2.7	100	-2.7	6	0	981.1	NA	0.0000		9999	2790	0	0	0
2019/10/29 08:09:01	BASE	5.64	318	7.41	317	-2.7	100	-2.7	6	0	981.1	NA	0.0000		9999	2490	0	0	0
2019/10/29 08:10:01	BASE	5.57	319	7.41	317	-2.7	100	-2.7	8	0	981.1	NA	0.0000		9999	2170	2620	0	0
2019/10/29 08:11:01	BASE	5.72	319	7.41	317	-2.7	100	-2.7	9	0	981.0	NA	0.0000		9999	2330	0	0	0
2019/10/29 08:12:00	BASE	6.04	321	7.41	317	-2.7	100	-2.7	10	0	981.0	NA	0.0000		9999	2400	0	0	0
2019/10/29 08:13:00	BASE	6.38	322	7.41	317	-2.7	100	-2.7	12	0	981.0	NA	0.0000		9999	2460	0	0	0
2019/10/29 08:14:00	BASE	6.27	324	7.05	310	-2.7	100	-2.7	15	0	981.0	NA	0.0000		9999	2400	5380	0	0
2019/10/29 08:15:00	BASE	5.94	328	6.94	318	-2.7	100	-2.7	17	0	981.0	NA	0.0000		9999	5380	0	0	0
2019/10/29 08:16:00	BASE	5.85	334	6.94	318	-2.7	100	-2.7	20	0	981.0	NA	0.0000		9999	2360	3080	5510	0
2019/10/29 08:17:00	BASE	6.00	338	6.94	318	-2.7	100	-2.7	22	0	981.0	NA	0.0000		9999	2300	2890	0	0
2019/10/29 08:18:00	BASE	5.91	341	6.94	318	-2.8	100	-2.8	23	0	981.0	NA	0.0000		9999	2300	0	0	0
2019/10/29 08:19:00	BASE	5.69	345	6.94	318	-2.8	100	-2.8	24	0	981.0	NA	0.0000		9999	2300	2720	5480	0
2019/10/29 08:20:00	BASE	5.65	343	6.94	318	-2.8	100	-2.8	24	0	981.0	NA	0.0000		9999	2230	0	0	0
2019/10/29 08:21:00	BASE	5.93	341	6.94	318	-2.8	100	-2.8	24	0	981.0	NA	0.0000		9999	1770	2200	0	0
2019/10/29 08:22:00	BASE	6.02	341	6.94	318	-2.8	100	-2.8	24	0	981.0	NA	0.0000		9999	2130	0	0	0
2019/10/29 08:23:00	BASE	5.64	341	6.58	337	-2.8	100	-2.8	24	0	981.0	NA	0.0000		9999	2070	0	0	0
2019/10/29 08:24:00	BASE	5.43	340	6.58	337	-2.8	100	-2.8	25	0	981.0	NA	0.0000		9999	2070	0	0	0
2019/10/29 08:25:00	BASE	5.69	339	6.58	337	-2.8	100	-2.8	26	0	981.0	NA	0.0000		9999	2070	2560	5220	0
2019/10/29 08:26:00	BASE	5.88	339	6.58	337	-2.8	100	-2.8	26	0	981.0	NA	0.0000		9999	2400	5250	0	0
2019/10/29 08:27:00	BASE	5.81	341	6.48	343	-2.8	100	-2.8	26	0	981.0	NA	0.0000		9999	2460	5020	0	0
2019/10/29 08:28:00	BASE	5.78	342	6.48	343	-2.8	100	-2.8	26	0	981.0	NA	0.0000		9999	2530	4820	0	0
2019/10/29 08:29:00	BASE	5.75	342	6.48	343	-2.8	100	-2.8	24	0	981.0	NA	0.0000		9999	4820	0	0	0
2019/10/29 08:30:00	BASE	5.72	340	6.48	343	-2.8	100	-2.8	23	0	981.0	NA	0.0000		9999	2000	5020	0	0
2019/10/29 08:31:00	BASE	5.90	340	6.69	333	-2.8	100	-2.8	22	0	981.0	NA	0.0000		9999	1870	0	0	0
2019/10/29 08:32:00	BASE	5.94	339	6.69	333	-2.8	100	-2.8	21	0	981.0	NA	0.0000		9999	1740	0	0	0
2019/10/29 08:33:00	BASE	5.80	339	6.69	333	-2.8	100	-2.8	21	0	981.0	NA	0.0000		9999	1740	0	0	0
2019/10/29 08:34:00	BASE	5.90	340	6.69	333	-2.8	100	-2.8	22	0	981.0	NA	0.0000		9999	1640	2260	0	0
2019/10/29 08:35:00	BASE	6.02	341	6.69	333	-2.8	100	-2.8	22	0	981.0	NA	0.0000		9999	1640	2560	0	0
2019/10/29 08:36:00	BASE	6.18	341	6.69	333	-2.8	100	-2.8	22	0	981.0	NA	0.0000		9999	1800	2400	5050	0
2019/10/29 08:37:00	BASE	6.29	340	6.69	340	-2.8	100	-2.8	23	0	981.0	NA	0.0000		9999	2400	4920	0	0
2019/10/29 08:38:00	BASE	6.27	340	6.69	340	-2.8	100	-2.8	23	0	981.0	NA	0.0000		9999	4950	0	0	0
2019/10/29 08:39:00	BASE	6.24	340	6.69	340	-2.7	100	-2.7	23	0	981.1	NA	0.0000		9999	4920	0	0	0
2019/10/29 08:40:00	BASE	6.28	341	6.74	339	-2.7	100	-2.7	23	0	981.2	NA	0.0000		9999	4920	0	0	0
2019/10/29 08:41:00	BASE	6.36	340	7.05	339	-2.7	100	-2.7	23	0	981.2	NA	0.0000		9999	4890	0	0	0
2019/10/29 08:42:00	BASE	6.49	340	7.05	339	-2.7	100	-2.7	22	0	981.2	NA	0.0000		9999	4820	0	0	0
2019/10/29 08:43:00	BASE	6.51	341	7.05	339	-2.7	100	-2.7	21	0	981.2	NA	0.0000		9999	1740	4890	0	0
2019/10/29 08:44:00	BASE	6.97	341	7.67	343	-2.7	100	-2.7	21	0	981.1	NA	0.0000		9999	1670	5180	0	0
2019/10/29 08:45:00	BASE	7.20	341	7.67	343	-2.7	100	-2.7	21	0	981.1	NA	0.0000		9999	1670	0	0	0
2019/10/29 08:46:00	BASE	6.98	342	7.77	344	-2.7	100	-2.7	20	0	981.1	NA	0.0000		9999	1610	0	0	0
2019/10/29 08:47:00	BASE	7.33	342	8.03	343	-2.7	100	-2.7	20	0	981.1	NA	0.0000		9999	1940	0	0	0
2019/10/29 08:48:00	BASE	7.71	340	8.28	344	-2.7	100	-2.7	19	0	981.1	NA	0.0000		9999	360	0	0	0
2019/10/29 08:49:00	BASE	7.42	340	8.28	344	-2.7	100	-2.7	19	0	981.1	NA	0.0000	UP	9999	300	1640	0	0
2019/10/29 08:50:00	BASE	6.98	339	8.28	344	-2.7	100	-2.7	19	0	981.2	NA	0.0000	UP	9999	260	0	0	0
2019/10/29 08:51:00	BASE	6.76	340	8.28	344	-2.7	100	-2.7	20	0	981.2	NA	0.0000	UP	9000	300	1410	0	0
2019/10/29 08:52:00	BASE	6.43	340	8.28	344	-2.7	100	-2.7	20	0	981.2	NA	0.0000	UP	9000	260	22080	0	0
2019/10/29 08:53:00	BASE	6.26	338	8.28	344	-2.7	100	-2.7	19	0	981.2	NA	0.0000	UP	9000	0	0	0	3280
2019/10/29 08:54:00	BASE	6.05	340	8.28	344	-2.7	100	-2.7	19	0	981.2	NA	0.0000	UP	7000	0	0	0	4330
2019/10/29 08:55:00	BASE	6.16	341	8.28	344	-2.7	100	-2.7	19	0	981.2	NA	0.0000	UP BR	5000	0	0	0	3410
2019/10/29 08:56:00	BASE	6.63	340	8.28	344	-2.8	100	-2.8	19	0	981.2	NA	0.0000	UP BR	5000	0	0	0	2170
2019/10/29 08:57:00	BASE	6.92	339	8.28	344	-2.8	100	-2.8	19	0	981.2	NA	0.0000	UP BR	5000	0	0	0	2070
2019/10/29 08:58:00	BASE	7.22	339	7.82	344	-2.8	100	-2.8	20	0	981.2	NA	0.0000	UP BR	6000	0	0	0	2000
2019/10/29 08:59:00	BASE	7.61	340	8.59	333	-2.8	100	-2.8	20	0	981.1	NA	0.0000	UP BR	4900	0	0	0	2400
2019/10/29 09:00:00	BASE	7.46	337	8.59	333	-2.8	100	-2.8	21	0	981.2	NA	0.0000	-SN BR	4400	0	0	0	2430
2019/10/29 09:01:00	BASE	6.97	337	8.59	333	-2.8	100	-2.8	23	0	981.2	NA	0.0000	-SN BR	3000	0	0	0	2760
2019/10/29 09:02:00	BASE	6.76	345	8.59	333	-2.8	100	-2.8	24	0	981.2	NA	0.0000	-SN BR	3500	300	0	0	0
2019/10/29 09:03:00	BASE	6.70	348	8.59	333	-2.9	100	-2.9	24	0	981.2	NA	0.0000	-SN BR	9000	1840	0	0	0
2019/10/29 09:04:00	BASE	7.08	344	8.59	333	-2.9	100	-2.9	25	0	981.2	NA	0.0000	-SN BR	9999	390	0	0	0
2019/10/29 09:05:00	BASE	7.63	339	8.59	333	-2.9	100	-2.9	26	0	981.1	NA	0.0000	-SN BR	9000	230	1740	0	0
2019/10/29 09:06:00	BASE	7.53	335	8.59	333	-2.9	100	-2.9	29	0	981.1	NA	0.0000	-SN BR	6000	0	0	0	2100
2019/10/29 09:07:00	BASE	7.10	339	8.59	333	-2.9	100	-2.9	31	0	981.1	NA	0.0000	-SN BR	7000	330	2130	0	0
2019/10/29 09:08:00	BASE	6.88	347	8.59	333	-2.8	100	-2.8	32	0	981.2	NA	0.0000	-SN BR	8000	330	0	0	0
2019/10/29 09:09:00	BASE	6.57	352	8.18	338	-2.8	100	-2.8	36	0	981.2	NA	0.0000	-SN BR	9000	300	1350	0	0
2019/10/29 09:10:00	BASE	6.12	356	8.18	338	-2.8	100	-2.8	38	0	981.2	NA	0.0000	-SN BR	8000	1120	0	0	0
2019/10/29 09:11:00	BASE	5.92	357	8.18	338	-2.8	100	-2.8	40	0	981.2	NA	0.0000	-SN BR	9999	1120	0	0	0
2019/10/29 09:12:00	BASE	6.17	354	8.18	338	-2.8	100	-2.8	41	0	981.2	NA	0.0000	-SN BR	9999	1250	5120	0	0
2019/10/29 09:13:00	BASE	6.51	353	8.18	338	-2.8	100	-2.8	41	0	981.1	NA	0.0000	-SN BR	9999	2430	5020	0	0
2019/10/29 09:14:00	BASE	6.36	350	8.18	338	-2.8	100	-2.8	41	0	981.2	NA	0.0000	-SN BR	9999	1350	2030	0	0
2019/10/29 09:15:00	BASE	6.76	348	8.18	346	-2.8	100	-2.8	41	0	981.1	NA	0.0000	-SN	9999	2920	5090	0	0
2019/10/29 09:16:00	BASE	8.10	347	9.21	343	-2.8	100	-2.8	42	0	981.1	NA	0.0000	-SN	9999	5090	0	0	0
2019/10/29 09:17:00	BASE	8.59	346	9.21	345	-2.8	100	-2.8	43	0	981.1	NA	0.0000	-SN	9999	5120	0	0	0
2019/10/29 09:18:00	BASE	8.77	345	9.88	341	-2.8	100	-2.8	44	0	981.1	NA	0.0000	-SN	9999	5120	0	0	0
2019/10/29 09:19:00	BASE	8.81	344	9.88	341	-2.7	100	-2.7	47	0	981.1	NA	0.0000		9999	5050	0	0	0
2019/10/29 09:20:00	BASE	8.80	341	10.03	349	-2.7	100	-2.7	50	0	981.1	NA	0.0000		9999	2070	5090	0	0
2019/10/29 09:21:00	BASE	9.22	340	10.13	345	-2.7	100	-2.7	54	0	981.1	NA	0.0000		9999	5050	0	0	0
2019/10/29 09:22:00	BASE	9.60	340	10.34	338	-2.7	100	-2.7	58	0	981.0	NA	0.0000		9999	5150	0	0	0
2019/10/29 09:23:00	BASE	9.90	339	10.96	336	-2.7	100	-2.7	63	0	981.0	NA	0.0000		9999	4300	4890	0	0
2019/10/29 09:24:00	BASE	9.78	338	10.96	336	-2.7	100	-2.7	67	0	981.0	NA	0.0000		9999	4300	4990	0	0
2019/10/29 09:25:00	BASE	9.86	336	10.96	336	-2.7	100	-2.7	71	0	981.0	NA	0.0000		9999	5050	0	0	0
2019/10/29 09:26:00	BASE	9.93	335	11.11	336	-2.7	100	-2.7	74	0	981.0	NA	0.0000		9999	3840	5090	0	0
2019/10/29 09:27:00	BASE	9.86	337	11.52	340	-2.7	100	-2.7	76	0	981.0	NA	0.0000		9999	4000	5090	0	0
2019/10/29 09:28:00	BASE	10.53	336	13.48	330	-2.7	100	-2.7	78	0	981.0	NA	0.0000		9999	5180	0	0	0
2019/10/29 09:29:00	BASE	11.06	336	13.48	330	-2.7	100	-2.7	78	0	981.0	NA	0.0000		9999	5150	0	0	0
2019/10/29 09:30:00	BASE	10.98	336	13.48	330	-2.7	100	-2.7	78	0	981.0	NA	0.0000		9999	5150	0	0	0
2019/10/29 09:31:00	BASE	10.85	333	13.48	330	-2.7	100	-2.7	77	0	981.0	NA	0.0000		9999	1610	5280	0	0
2019/10/29 09:32:00	BASE	10.08	335	13.48	330	-2.6	100	-2.6	76	0	981.1	NA	0.0000		9999	1740	5480	0	0
2019/10/29 09:33:00	BASE	9.78	337	13.48	330	-2.6	100	-2.6	75	0	981.1	NA	0.0000		9999	1870	5410	0	0
2019/10/29 09:34:00	BASE	10.12	337	13.48	330	-2.6	100	-2.6	76	0	981.1	NA	0.0000		9999	5350	0	0	0
2019/10/29 09:35:00	BASE	9.97	340	13.48	330	-2.6	100	-2.6	77	0	981.1	NA	0.0000		9999	5280	0	0	0
2019/10/29 09:36:00	BASE	9.58	341	13.48	330	-2.6	100	-2.6	78	0	981.1	NA	0.0000		9999	5320	0	0	0
2019/10/29 09:37:00	BASE	8.93	340	13.48	330	-2.6	100	-2.6	79	0	981.2	NA	0.0000		9999	5220	0	0	0
2019/10/29 09:38:00	BASE	8.08	342	12.45	337	-2.6	100	-2.6	80	0	981.2	NA	0.0000		9999	5250	0	0	0
2019/10/29 09:39:00	BASE	7.75	346	11.99	337	-2.7	100	-2.7	81	0	981.1	NA	0.0000		9999	5220	0	0	0
2019/10/29 09:40:00	BASE	8.28	345	11.99	337	-2.7	100	-2.7	82	0	981.1	NA	0.0000		9999	5220	0	0	0
2019/10/29 09:41:00	BASE	8.71	343	11.11	327	-2.7	100	-2.7	82	0	981.1	NA	0.0000		9999	5150	0	0	0
2019/10/29 09:42:00	BASE	8.54	346	11.11	327	-2.7	100	-2.7	83	0	981.1	NA	0.0000		9999	5150	0	0	0
2019/10/29 09:43:00	BASE	7.81	348	10.75	334	-2.6	100	-2.6	83	0	981.1	NA	0.0000		9999	5120	0	0	0
2019/10/29 09:44:00	BASE	8.33	350	10.60	354	-2.6	100	-2.6	84	0	981.0	NA	0.0000		9999	5180	0	0	0
2019/10/29 09:45:00	BASE	9.40	349	10.60	354	-2.6	100	-2.6	85	0	981.0	NA	0.0000		9999	5050	0	0	0
2019/10/29 09:46:00	BASE	9.08	349	10.60	354	-2.6	100	-2.6	86	0	981.0	NA	0.0000		9999	5020	0	0	0
2019/10/29 09:47:00	BASE	9.49	350	11.21	349	-2.6	100	-2.6	86	0	981.0	NA	0.0000		9999	5020	0	0	0
2019/10/29 09:48:00	BASE	10.05	351	11.42	346	-2.5	100	-2.5	87	0	981.0	NA	0.0000		9999	4990	0	0	0
2019/10/29 09:49:00	BASE	9.47	353	11.42	346	-2.5	100	-2.5	88	0	981.0	NA	0.0000		9999	4920	0	0	0
2019/10/29 09:50:00	BASE	9.60	348	11.68	346	-2.5	100	-2.5	89	0	980.9	NA	0.0000		9999	5020	0	0	0
2019/10/29 09:51:00	BASE	9.66	349	11.68	346	-2.5	100	-2.5	90	0	980.9	NA	0.0000		9999	4920	0	0	0
2019/10/29 09:52:00	BASE	9.31	2	11.68	346	-2.5	100	-2.5	93	0	980.9	NA	0.0000		9999	4920	0	0	0
2019/10/29 09:53:00	BASE	9.67	3	11.68	346	-2.5	100	-2.5	98	0	980.9	NA	0.0000		9999	5120	0	0	0
2019/10/29 09:54:00	BASE	10.03	359	11.68	346	-2.5	100	-2.6	101	0	980.9	NA	0.0000		9999	5180	0	0	0
2019/10/29 09:55:00	BASE	10.29	356	11.68	346	-2.5	99	-2.6	101	0	980.9	NA	0.0000		9999	5090	0	0	0
2019/10/29 09:56:00	BASE	10.42	358	11.68	346	-2.5	99	-2.6	100	0	980.9	NA	0.0000		9999	5050	0	0	0
2019/10/29 09:57:00	BASE	10.63	355	12.30	354	-2.5	99	-2.7	101	0	980.8	NA	0.0000		9999	5120	6860	0	0
2019/10/29 09:58:00	BASE	10.63	351	12.30	354	-2.5	99	-2.7	106	0	980.8	NA	0.0000		9999	5320	6760	0	0
2019/10/29 09:59:00	BASE	10.16	353	12.30	354	-2.6	99	-2.7	114	0	980.8	NA	0.0000		9999	5220	7090	0	0
2019/10/29 10:00:00	BASE	10.19	355	12.30	354	-2.6	99	-2.7	122	0	980.8	NA	0.0000		9999	5150	0	0	0
2019/10/29 10:01:00	BASE	10.81	0	12.30	354	-2.6	99	-2.8	130	0	980.8	NA	0.0000		9999	5220	0	0	0
2019/10/29 10:02:00	BASE	10.76	355	12.30	354	-2.6	99	-2.8	138	0	980.8	NA	0.0000		9999	6270	0	0	0
2019/10/29 10:03:00	BASE	10.84	352	12.91	10	-2.6	98	-2.8	145	0	980.8	NA	0.0000		9999	6200	0	0	0
2019/10/29 10:04:00	BASE	12.05	359	14.04	1	-2.6	98	-2.8	153	0	980.7	NA	0.0000		9999	6200	0	0	0
2019/10/29 10:05:00	BASE	12.66	360	14.04	1	-2.6	98	-2.9	159	0	980.7	NA	0.0000		9999	6040	0	0	0
2019/10/29 10:06:00	BASE	12.91	358	14.04	1	-2.6	98	-2.9	160	0	980.8	NA	0.0000		9999	4530	6100	0	0
2019/10/29 10:07:00	BASE	13.38	355	14.61	352	-2.6	98	-2.9	158	0	980.7	NA	0.0000		9999	4400	0	0	0
2019/10/29 10:08:00	BASE	13.26	355	14.61	352	-2.6	98	-2.9	153	0	980.8	NA	0.0000		9999	4270	0	0	0
2019/10/29 10:09:00	BASE	12.88	359	14.61	352	-2.6	98	-2.9	148	0	980.7	NA	0.0000		9999	5870	0	0	0
2019/10/29 10:10:00	BASE	13.50	3	15.64	1	-2.6	98	-2.9	142	0	980.7	NA	0.0000		9999	5770	0	0	0
2019/10/29 10:11:00	BASE	13.99	4	15.64	1	-2.6	98	-2.9	138	0	980.7	NA	0.0000		9999	7710	0	0	0
2019/10/29 10:12:00	BASE	14.56	6	16.82	3	-2.6	98	-2.9	134	0	980.6	NA	0.0000		9999	7450	0	0	0
2019/10/29 10:13:00	BASE	15.54	7	16.82	3	-2.6	98	-2.9	129	0	980.6	NA	0.0000		9999	7150	0	0	0
2019/10/29 10:14:00	BASE	15.08	7	16.82	3	-2.5	97	-2.9	123	0	980.6	NA	0.0000		9999	4630	0	0	0
2019/10/29 10:15:00	BASE	14.38	7	16.82	3	-2.5	97	-3.0	119	0	980.6	NA	0.0000		9999	4630	0	0	0
2019/10/29 10:16:00	BASE	15.25	7	17.39	3	-2.5	96	-3.0	116	0	980.6	NA	0.0000		9999	4720	0	0	0
2019/10/29 10:17:00	BASE	15.63	7	17.39	3	-2.5	96	-3.0	115	0	980.6	NA	0.0000		9999	6590	0	0	0
2019/10/29 10:18:00	BASE	15.21	9	17.39	3	-2.5	96	-3.1	116	0	980.7	NA	0.0000		9999	6560	0	0	0
2019/10/29 10:19:00	BASE	15.38	10	17.39	3	-2.5	96	-3.1	118	0	980.7	NA	0.0000		9999	6430	0	0	0
2019/10/29 10:20:00	BASE	14.52	9	17.39	3	-2.5	96	-3.1	121	0	980.7	NA	0.0000		9999	4460	0	0	0
2019/10/29 10:21:00	BASE	14.02	8	17.39	3	-2.5	95	-3.1	125	0	980.7	NA	0.0000		9999	4460	5320	0	0
2019/10/29 10:22:00	BASE	14.74	11	17.39	3	-2.5	95	-3.2	130	0	980.7	NA	0.0000		9999	4300	5540	0	0
2019/10/29 10:23:00	BASE	15.02	13	17.39	3	-2.5	95	-3.2	136	0	980.7	NA	0.0000		9999	4170	5480	0	0
2019/10/29 10:24:00	BASE	14.75	11	17.39	3	-2.5	95	-3.2	140	0	980.7	NA	0.0000		9999	4130	0	0	0
2019/10/29 10:25:00	BASE	15.33	10	17.90	5	-2.5	94	-3.3	139	0	980.6	NA	0.0000		9999	2530	0	0	0
2019/10/29 10:26:00	BASE	15.57	9	17.90	5	-2.5	94	-3.3	134	0	980.7	NA	0.0000		9999	2620	4170	0	0
2019/10/29 10:27:00	BASE	15.05	9	17.90	5	-2.5	94	-3.4	126	0	980.7	NA	0.0000		9999	4130	0	0	0
2019/10/29 10:28:00	BASE	14.79	10	17.90	5	-2.5	93	-3.4	120	0	980.7	NA	0.0000		9999	2920	0	0	0
2019/10/29 10:29:00	BASE	14.77	11	17.90	5	-2.5	93	-3.5	117	0	980.7	NA	0.0000		9999	5580	0	0	0
2019/10/29 10:30:00	BASE	15.29	13	17.90	5	-2.4	92	-3.6	119	0	980.7	NA	0.0000		9999	5350	0	0	0
2019/10/29 10:31:00	BASE	15.62	13	17.90	5	-2.4	91	-3.7	125	0	980.7	NA	0.0000		9999	5120	0	0	0
2019/10/29 10:32:00	BASE	15.36	13	17.90	5	-2.4	91	-3.7	133	0	980.7	NA	0.0000		9999	4820	0	0	0
2019/10/29 10:33:00	BASE	14.88	12	17.90	5	-2.4	90	-3.8	140	0	980.7	NA	0.0000		9999	4330	0	0	0
2019/10/29 10:34:00	BASE	14.73	11	17.90	5	-2.4	90	-3.9	144	0	980.7	NA	0.0000		9999	4070	0	0	0
2019/10/29 10:35:00	BASE	14.50	11	16.87	16	-2.4	89	-3.9	144	0	980.7	NA	0.0000		9999	4100	0	0	0
2019/10/29 10:36:00	BASE	14.87	12	17.08	14	-2.4	89	-3.9	142	0	980.7	NA	0.0000		9999	22770	0	0	0
2019/10/29 10:37:00	BASE	15.25	11	17.08	14	-2.4	89	-4.0	139	0	980.7	NA	0.0000		9999	3710	0	0	0
2019/10/29 10:38:00	BASE	15.24	10	17.08	14	-2.3	88	-4.0	136	0	980.7	NA	0.0000		9999	4230	0	0	0
2019/10/29 10:39:00	BASE	15.06	10	17.08	14	-2.3	88	-4.0	133	0	980.7	NA	0.0000		9999	3810	0	0	0
2019/10/29 10:40:00	BASE	15.43	9	17.39	9	-2.3	88	-4.1	133	0	980.7	NA	0.0000		9999	3710	0	0	0
2019/10/29 10:41:00	BASE	15.84	5	18.01	1	-2.3	88	-4.1	134	0	980.7	NA	0.0000		9999	3870	0	0	0
2019/10/29 10:42:00	BASE	16.17	3	18.73	1	-2.3	87	-4.2	137	0	980.7	NA	0.0000		9999	3870	0	0	0
2019/10/29 10:43:00	BASE	16.58	5	18.73	1	-2.3	86	-4.3	142	0	980.8	NA	0.0000		9999	3810	0	0	0
2019/10/29 10:44:00	BASE	16.01	3	18.73	1	-2.3	85	-4.5	149	0	980.8	NA	0.0000		9999	22470	0	0	0
2019/10/29 10:45:00	BASE	15.58	1	18.73	1	-2.3	84	-4.6	154	0	980.8	NA	0.0000		9999	0	0	0	4040
2019/10/29 10:46:00	BASE	15.59	358	18.73	1	-2.3	83	-4.7	159	0	980.8	NA	0.0000		9999	0	0	0	3510
2019/10/29 10:47:00	BASE	16.00	0	18.73	1	-2.3	83	-4.9	164	0	980.8	NA	0.0000		9999	0	0	0	3350
2019/10/29 10:48:00	BASE	15.29	360	18.73	1	-2.4	82	-4.9	171	0	980.9	NA	0.0000		9999	0	0	0	3940
2019/10/29 10:49:00	BASE	13.67	359	18.73	1	-2.4	82	-5.0	172	0	980.9	NA	0.0000		9999	0	0	0	5220
2019/10/29 10:50:00	BASE	12.75	360	18.73	1	-2.4	82	-5.0	169	0	980.9	NA	0.0000		9999	0	0	0	4920
2019/10/29 10:51:00	BASE	13.33	357	18.73	1	-2.4	82	-5.0	166	0	980.9	NA	0.0000		9999	0	0	0	4460
2019/10/29 10:52:00	BASE	13.88	355	17.34	6	-2.5	83	-5.0	164	0	980.9	NA	0.0000		9999	0	0	0	4660
2019/10/29 10:53:00	BASE	13.16	358	17.34	6	-2.5	83	-5.0	168	0	981.0	NA	0.0000		9999	0	0	0	4100
2019/10/29 10:54:00	BASE	12.30	3	16.93	360	-2.5	84	-4.9	177	0	981.0	NA	0.0000		9999	0	0	0	3840
2019/10/29 10:55:00	BASE	11.08	360	16.93	360	-2.6	84	-4.9	187	0	981.0	NA	0.0000		9999	0	0	0	5540
2019/10/29 10:56:00	BASE	11.43	0	16.93	360	-2.6	84	-4.9	196	0	981.0	NA	0.0000		9999	0	0	0	3870
2019/10/29 10:57:00	BASE	12.60	2	16.67	3	-2.6	85	-4.8	205	0	981.0	NA	0.0000		9999	0	0	0	4330
2019/10/29 10:58:00	BASE	12.38	2	16.10	354	-2.6	85	-4.8	212	0	981.0	NA	0.0000		9999	0	0	0	4170
2019/10/29 10:59:00	BASE	12.07	0	15.64	350	-2.6	85	-4.7	212	0	981.0	NA	0.0000		9999	0	0	0	4170
2019/10/29 11:00:00	BASE	11.29	356	15.64	350	-2.6	86	-4.7	205	0	981.0	NA	0.0000		9999	0	0	0	3870
2019/10/29 11:01:00	BASE	10.36	353	14.61	355	-2.7	86	-4.6	195	0	981.0	NA	0.0000		9999	2820	16080	0	0
2019/10/29 11:02:00	BASE	9.94	352	14.25	360	-2.7	87	-4.6	188	0	981.0	NA	0.0000		9999	0	0	0	3380
2019/10/29 11:03:00	BASE	9.22	347	14.25	360	-2.7	87	-4.5	182	0	981.0	NA	0.0000		9999	0	0	0	4360
2019/10/29 11:04:00	BASE	8.87	343	14.25	360	-2.7	88	-4.5	179	0	981.0	NA	0.0000		9999	0	0	0	4690
2019/10/29 11:05:00	BASE	9.36	348	14.25	360	-2.7	88	-4.4	178	0	981.0	NA	0.0000		9999	0	0	0	4890
2019/10/29 11:06:00	BASE	8.80	351	13.74	360	-2.7	88	-4.4	178	0	981.0	NA	0.0000		9999	0	0	0	4630
2019/10/29 11:07:00	BASE	7.74	350	13.27	11	-2.8	89	-4.4	181	0	981.0	NA	0.0000		9999	0	0	0	4820
2019/10/29 11:08:00	BASE	7.87	352	12.71	2	-2.8	89	-4.3	188	0	981.0	NA	0.0000		9999	0	0	0	5120
2019/10/29 11:09:00	BASE	7.77	349	11.78	347	-2.8	90	-4.2	195	0	981.0	NA	0.0000		9999	0	0	0	4400
2019/10/29 11:10:00	BASE	7.73	346	11.63	360	-2.8	90	-4.2	198	0	981.0	NA	0.0000		9999	0	0	0	4490
2019/10/29 11:11:00	BASE	7.82	349	11.63	360	-2.8	91	-4.1	199	0	981.0	NA	0.0000		9999	0	0	0	4270
2019/10/29 11:12:00	BASE	7.35	352	11.01	2	-2.8	91	-4.1	196	0	981.0	NA	0.0000		9999	0	0	0	4230
2019/10/29 11:13:00	BASE	7.41	355	11.01	2	-2.8	91	-4.0	194	0	981.0	NA	0.0000		9999	0	0	0	4460
2019/10/29 11:14:00	BASE	7.01	356	11.01	2	-2.8	92	-3.9	193	0	981.0	NA	0.0000		9999	22210	23200	0	0
2019/10/29 11:15:00	BASE	6.64	357	9.11	360	-2.7	92	-3.9	195	0	981.0	NA	0.0000		9999	0	0	0	4760
2019/10/29 11:16:00	BASE	7.85	352	9.93	338	-2.7	92	-3.8	199	0	980.9	NA	0.0000		9999	0	0	0	5050
2019/10/29 11:17:00	BASE	8.97	353	12.45	62	-2.7	92	-3.8	205	0	980.8	NA	0.0000		9999	0	0	0	5220
2019/10/29 11:18:00	BASE	10.27	5	13.58	12	-2.7	92	-3.8	209	0	980.7	NA	0.0000		9999	0	0	0	5580
2019/10/29 11:19:00	BASE	11.80	360	13.99	346	-2.7	92	-3.7	208	0	980.7	NA	0.0000		9999	3080	0	0	0
2019/10/29 11:20:00	BASE	13.30	3	15.48	19	-2.6	92	-3.7	201	0	980.6	NA	0.0000		9999	3380	0	0	0
2019/10/29 11:21:00	BASE	14.04	14	15.48	19	-2.6	92	-3.8	194	0	980.6	NA	0.0000		9999	22870	0	0	0
2019/10/29 11:22:00	BASE	14.68	14	17.54	15	-2.6	91	-3.8	193	0	980.5	NA	0.0000		9999	0	0	0	5410
2019/10/29 11:23:00	BASE	15.63	13	17.54	15	-2.6	91	-3.8	199	0	980.5	NA	0.0000		9999	0	0	0	5680
2019/10/29 11:24:00	BASE	15.53	13	17.95	7	-2.5	91	-3.9	213	0	980.4	NA	0.0000		9999	3350	0	0	0
2019/10/29 11:25:00	BASE	16.35	14	19.65	16	-2.5	90	-3.9	230	0	980.4	NA	0.0000		9999	3280	0	0	0
2019/10/29 11:26:00	BASE	17.38	13	20.11	14	-2.5	90	-4.0	244	0	980.4	NA	0.0000		9999	0	0	0	5770
2019/10/29 11:27:00	BASE	16.97	13	20.11	14	-2.5	89	-4.0	253	0	980.4	NA	0.0000		9999	0	0	0	5740
2019/10/29 11:28:00	BASE	16.46	13	20.11	14	-2.5	89	-4.1	260	0	980.4	NA	0.0000		9999	0	0	0	5480
2019/10/29 11:29:00	BASE	17.07	14	20.73	13	-2.5	89	-4.1	265	0	980.4	NA	0.0000		9999	0	0	0	5250
2019/10/29 11:30:00	BASE	17.91	16	20.73	13	-2.5	88	-4.2	266	0	980.4	NA	0.0000		9999	0	0	0	5180
2019/10/29 11:31:00	BASE	18.14	19	20.83	18	-2.5	88	-4.2	264	0	980.4	NA	0.0000		9999	0	0	0	5540
2019/10/29 11:32:00	BASE	18.11	20	20.83	18	-2.5	88	-4.2	255	0	980.3	NA	0.0000		9999	0	0	0	5410
2019/10/29 11:33:00	BASE	17.92	19	20.83	18	-2.5	88	-4.2	242	0	980.4	NA	0.0000		9999	0	0	0	5610
2019/10/29 11:34:00	BASE	18.72	19	20.83	18	-2.5	88	-4.2	230	0	980.4	NA	0.0000		9999	0	0	0	5810
2019/10/29 11:35:00	BASE	18.81	21	20.83	18	-2.5	88	-4.3	221	0	980.4	NA	0.0000		9999	0	0	0	5450
2019/10/29 11:36:00	BASE	18.22	23	20.83	18	-2.6	88	-4.3	215	0	980.4	NA	0.0000		9999	0	0	0	5450
2019/10/29 11:37:00	BASE	18.60	22	20.83	18	-2.6	88	-4.3	210	0	980.4	NA	0.0000		9999	3380	0	0	0
2019/10/29 11:38:00	BASE	18.03	21	20.83	18	-2.6	88	-4.3	208	0	980.5	NA	0.0000		9999	3970	0	0	0
2019/10/29 11:39:00	BASE	17.68	21	20.83	18	-2.6	88	-4.3	208	0	980.5	NA	0.0000		9999	22280	0	0	0
2019/10/29 11:40:00	BASE	16.87	21	20.83	18	-2.6	88	-4.3	213	0	980.5	NA	0.0000		9999	0	0	0	5740
2019/10/29 11:41:00	BASE	16.07	20	20.68	16	-2.6	88	-4.3	220	0	980.4	NA	0.0000		9999	0	0	0	5770
2019/10/29 11:42:00	BASE	16.43	26	20.47	18	-2.5	87	-4.3	228	0	980.5	NA	0.0000		9999	0	0	0	4920
2019/10/29 11:43:00	BASE	15.97	29	20.47	18	-2.5	87	-4.4	238	0	980.5	NA	0.0000		9999	0	0	0	4890
2019/10/29 11:44:00	BASE	16.14	26	20.47	18	-2.5	86	-4.5	247	0	980.4	NA	0.0000		9999	0	0	0	5120
2019/10/29 11:45:00	BASE	16.44	28	20.47	18	-2.5	86	-4.5	252	0	980.4	NA	0.0000		9999	0	0	0	5280
2019/10/29 11:46:00	BASE	16.06	29	20.47	18	-2.5	86	-4.6	250	0	980.4	NA	0.0000		9999	0	0	0	5940
2019/10/29 11:47:00	BASE	16.27	27	20.47	18	-2.5	85	-4.6	244	0	980.4	NA	0.0000		9999	0	0	0	5610
2019/10/29 11:48:00	BASE	15.42	27	20.47	18	-2.5	85	-4.6	242	0	980.4	NA	0.0000		9999	0	0	0	5510
2019/10/29 11:49:00	BASE	15.36	31	19.65	29	-2.4	85	-4.6	239	0	980.4	NA	0.0000		9999	0	0	0	5150
2019/10/29 11:50:00	BASE	16.69	32	19.65	29	-2.4	85	-4.6	234	0	980.4	NA	0.0000		9000	22770	0	0	0
2019/10/29 11:51:00	BASE	16.38	30	19.65	29	-2.4	85	-4.5	230	0	980.4	NA	0.0000		9999	0	0	0	5090
2019/10/29 11:52:00	BASE	15.43	30	19.65	29	-2.4	86	-4.5	226	0	980.4	NA	0.0000		9999	0	0	0	5050
2019/10/29 11:53:00	BASE	15.59	31	19.65	29	-2.4	86	-4.4	221	0	980.4	NA	0.0000		9999	0	0	0	5120
2019/10/29 11:54:00	BASE	16.21	31	19.03	28	-2.4	87	-4.3	215	0	980.4	NA	0.0000		9999	0	0	0	4950
2019/10/29 11:55:00	BASE	16.06	32	19.03	28	-2.4	87	-4.3	211	0	980.4	NA	0.0000		9000	0	0	0	4920
2019/10/29 11:56:00	BASE	16.58	35	19.86	41	-2.4	87	-4.3	210	0	980.4	NA	0.0000	UP	6000	0	0	0	4130
2019/10/29 11:57:00	BASE	16.91	33	19.86	41	-2.4	87	-4.3	211	0	980.3	NA	0.0000	UP BR	6000	19460	22280	0	0
2019/10/29 11:58:00	BASE	16.24	34	19.86	41	-2.4	87	-4.3	211	0	980.3	NA	0.0000	UP BR	5000	0	0	0	3250
2019/10/29 11:59:00	BASE	16.96	37	19.86	41	-2.4	87	-4.3	212	0	980.2	NA	0.0000	UP BR	5000	20310	0	0	0
2019/10/29 12:00:00	BASE	17.60	37	19.86	41	-2.4	87	-4.3	212	0	980.2	NA	0.0000	UP BR	4900	0	0	0	3180
2019/10/29 12:01:00	BASE	18.23	34	22.28	22	-2.4	87	-4.3	213	0	980.1	NA	0.0000	UP BR	6000	0	0	0	2660
2019/10/29 12:02:00	BASE	18.69	32	22.28	22	-2.4	87	-4.3	214	0	980.2	NA	0.0000	UP BR	9999	0	0	0	2820
2019/10/29 12:03:00	BASE	19.62	37	23.36	38	-2.4	87	-4.3	215	0	980.1	NA	0.0000	UP BR	9999	0	0	0	2850
2019/10/29 12:04:00	BASE	20.22	40	23.36	38	-2.5	87	-4.3	214	0	980.1	NA	0.0000	UP BR	9999	0	0	0	2530
2019/10/29 12:05:00	BASE	18.79	35	23.36	38	-2.5	87	-4.3	211	0	980.1	NA	0.0000	UP BR	9999	0	0	0	2620
2019/10/29 12:06:00	BASE	18.28	31	23.36	38	-2.5	87	-4.3	212	0	980.0	NA	0.0000	UP BR	9999	0	0	0	2460
2019/10/29 12:07:00	BASE	20.90	33	29.37	40	-2.5	88	-4.3	215	0	980.0	NA	0.0000	UP BR	9999	0	0	0	2460
2019/10/29 12:08:00	BASE	23.59	39	29.37	40	-2.5	88	-4.2	217	0	980.0	NA	0.0000	-SN BR	9999	0	0	0	2620
2019/10/29 12:09:00	BASE	23.47	41	29.37	40	-2.5	88	-4.1	217	0	979.9	NA	0.0000	-SN	9999	0	0	0	2950
2019/10/29 12:10:00	BASE	23.87	42	29.37	40	-2.5	89	-4.1	216	0	979.7	NA	0.2540	-SN	9999	0	0	0	4130
2019/10/29 12:11:00	BASE	24.07	40	29.37	40	-2.5	89	-4.1	218	0	979.6	NA	0.0000	-SN	9999	0	0	0	3080
2019/10/29 12:12:00	BASE	24.27	39	29.37	40	-2.5	89	-4.0	225	0	979.7	NA	0.0000	-SN	9999	0	0	0	3120
2019/10/29 12:13:00	BASE	25.24	38	29.63	38	-2.5	89	-4.0	229	0	979.7	NA	0.0000	-SN	9999	0	0	0	4690
2019/10/29 12:14:00	BASE	24.78	38	29.63	38	-2.5	89	-4.0	230	0	979.8	NA	0.0000	-SN	9999	0	0	0	5150
2019/10/29 12:15:00	BASE	24.01	36	29.63	38	-2.5	90	-3.9	229	0	979.8	NA	0.0000	-SN	9999	0	0	0	5380
2019/10/29 12:16:00	BASE	24.06	31	29.63	38	-2.4	90	-3.9	231	0	979.6	NA	0.0000	-SN	9999	0	0	0	4890
2019/10/29 12:17:00	BASE	24.51	29	29.63	38	-2.4	90	-3.8	235	0	979.7	NA	0.0000	-SN	9999	0	0	0	4560
2019/10/29 12:18:00	BASE	24.72	32	29.63	38	-2.4	90	-3.8	238	0	979.6	NA	0.0000	-SN	9999	0	0	0	4040
2019/10/29 12:19:00	BASE	24.65	29	29.63	38	-2.3	90	-3.8	240	0	979.5	NA	0.0000	-SN	6000	0	0	0	5120
2019/10/29 12:20:00	BASE	23.31	25	29.63	38	-2.2	89	-3.7	243	0	979.6	NA	0.0000	-SN	9999	0	0	0	5020
2019/10/29 12:21:00	BASE	23.23	29	29.99	41	-2.2	89	-3.7	246	0	979.6	NA	0.0000	-SN	9000	0	0	0	4690
2019/10/29 12:22:00	BASE	24.77	31	30.66	26	-2.1	88	-3.8	254	0	979.6	NA	0.0000	-SN	7000	0	0	0	4790
2019/10/29 12:23:00	BASE	24.06	27	30.66	26	-2.1	88	-3.9	263	0	979.5	NA	0.0000	-SN BR	7000	0	0	0	5180
2019/10/29 12:24:00	BASE	23.62	24	30.66	26	-2.1	87	-3.9	269	0	979.5	NA	0.0000	-SN BR	9999	0	0	0	5350
2019/10/29 12:25:00	BASE	24.26	25	30.66	26	-2.1	87	-4.0	277	0	979.5	NA	0.0000	-SN BR	9999	0	0	0	5410
2019/10/29 12:26:00	BASE	25.48	28	30.66	26	-2.1	87	-4.0	279	0	979.4	NA	0.0000	-SN BR	8000	0	0	0	5220
2019/10/29 12:27:00	BASE	26.20	26	32.05	23	-2.1	87	-4.0	268	0	979.3	NA	0.0000	-SN BR	9999	0	0	0	5050
2019/10/29 12:28:00	BASE	25.43	22	32.05	23	-2.1	87	-4.0	251	0	979.3	NA	0.0000	-SN BR	9999	0	0	0	3120
2019/10/29 12:29:00	BASE	25.86	24	32.05	23	-2.2	87	-4.0	234	0	979.3	NA	0.0000	-SN BR	9999	0	0	0	3120
2019/10/29 12:30:00	BASE	27.05	27	32.05	23	-2.2	88	-4.0	227	0	979.3	NA	0.0000	-SN BR	9999	0	0	0	2720
2019/10/29 12:31:00	BASE	26.67	28	32.05	23	-2.3	88	-3.9	227	0	979.3	NA	0.0000	-SN	9999	0	0	0	2790
2019/10/29 12:32:00	BASE	27.22	30	32.05	23	-2.3	89	-3.9	228	0	979.3	NA	0.0000	-SN	9999	0	0	0	2660
2019/10/29 12:33:00	BASE	27.63	29	32.05	23	-2.3	89	-3.9	229	0	979.3	NA	0.0000	-SN	9999	0	0	0	2690
2019/10/29 12:34:00	BASE	27.14	27	34.57	32	-2.3	89	-3.8	229	0	979.3	NA	0.0000	-SN	9999	0	0	0	2590
2019/10/29 12:35:00	BASE	27.14	27	34.57	32	-2.3	90	-3.8	231	0	979.3	NA	0.0000	-SN	9999	0	0	0	2490
2019/10/29 12:36:00	BASE	25.95	29	34.57	32	-2.3	90	-3.7	234	0	979.4	NA	0.0000	-SN	9999	0	0	0	2660
2019/10/29 12:37:00	BASE	25.54	31	34.57	32	-2.3	90	-3.7	235	0	979.4	NA	0.0000	-SN	9999	0	0	0	2690
2019/10/29 12:38:00	BASE	26.51	32	34.57	32	-2.2	90	-3.7	235	0	979.4	NA	0.0000	-SN	9999	0	0	0	2890
2019/10/29 12:39:00	BASE	25.87	30	34.57	32	-2.2	90	-3.6	233	0	979.4	NA	0.0000	-SN	9999	0	0	0	3080
2019/10/29 12:40:00	BASE	25.04	29	34.57	32	-2.2	90	-3.6	231	0	979.4	NA	0.0000	-SN	9999	0	0	0	2950
2019/10/29 12:41:00	BASE	25.73	29	34.57	32	-2.2	90	-3.6	227	0	979.4	NA	0.0000	-SN	9999	18670	0	0	0
2019/10/29 12:42:00	BASE	26.39	29	34.57	32	-2.2	90	-3.6	228	0	979.4	NA	0.0000	-SN	9999	0	0	0	2460
2019/10/29 12:43:00	BASE	26.56	29	34.57	32	-2.2	90	-3.6	232	0	979.4	NA	0.0000	-SN	9999	0	0	0	2360
2019/10/29 12:44:00	BASE	26.65	27	31.43	37	-2.2	91	-3.5	237	0	979.4	NA	0.0000	-SN	9000	0	0	0	2560
2019/10/29 12:45:00	BASE	25.88	26	31.43	37	-2.2	91	-3.5	240	0	979.4	NA	0.0000	-SN	4400	0	0	0	2990
2019/10/29 12:46:00	BASE	25.35	27	31.43	37	-2.2	91	-3.5	243	0	979.4	NA	0.2540	-SN BR	4700	0	0	0	3180
2019/10/29 12:47:00	BASE	25.36	26	31.43	37	-2.2	91	-3.4	245	0	979.4	NA	0.0000	-SN BR	5000	0	0	0	3020
2019/10/29 12:48:00	BASE	25.65	25	30.76	31	-2.1	91	-3.4	249	0	979.3	NA	0.0000	-SN BR	3500	0	0	0	3670
2019/10/29 12:49:00	BASE	28.09	26	32.20	34	-2.1	91	-3.3	253	0	979.2	NA	0.0000	-SN BR	4100	0	0	0	4070
2019/10/29 12:50:00	BASE	29.03	27	32.46	27	-2.1	92	-3.3	255	0	979.2	NA	0.0000	-SN BR	9999	0	0	0	4660
2019/10/29 12:51:00	BASE	28.16	27	32.46	27	-2.1	92	-3.3	257	0	979.2	NA	0.0000	-SN BR	9999	0	0	0	4760
2019/10/29 12:52:00	BASE	27.40	25	32.46	27	-2.1	92	-3.2	255	0	979.2	NA	0.0000	-SN BR	9999	0	0	0	5870
2019/10/29 12:53:00	BASE	27.04	26	32.46	27	-2.1	92	-3.2	251	0	979.2	NA	0.0000	-SN BR	9999	0	0	0	5320
2019/10/29 12:54:00	BASE	27.34	26	32.46	27	-2.1	92	-3.2	246	0	979.2	NA	0.0000	-SN BR	9999	23030	0	0	0
2019/10/29 12:55:00	BASE	27.13	25	32.46	27	-2.1	93	-3.1	243	0	979.0	NA	0.0000	-SN BR	8000	0	0	0	4790
2019/10/29 12:56:00	BASE	28.52	24	35.70	28	-2.0	93	-3.1	245	0	979.0	NA	0.0000	-SN BR	3900	0	0	0	4430
2019/10/29 12:57:03	BASE	29.38	23	35.70	28	-2.0	93	-3.0	246	0	979.0	NA	0.0000	-SN BR	2900	0	0	0	4400
2019/10/29 12:58:00	BASE	27.96	22	35.70	28	-2.0	93	-2.9	247	0	979.0	NA	0.0000	-SN BR	3900	21590	0	0	0
2019/10/29 12:59:00	BASE	28.63	23	35.70	28	-1.9	93	-2.9	251	0	978.9	NA	0.0000	-SN BR	4500	0	0	0	4040
2019/10/29 13:00:00	BASE	28.76	25	35.70	28	-1.9	94	-2.8	253	0	978.9	NA	0.0000	-SN BR	4300	0	0	0	4720
2019/10/29 13:01:00	BASE	29.30	28	35.70	28	-1.9	94	-2.8	257	0	978.9	NA	0.0000	-SN BR	4600	0	0	0	4560
2019/10/29 13:02:00	BASE	30.07	27	35.70	28	-1.9	94	-2.7	265	0	979.0	NA	0.0000	-SN BR	4400	0	0	0	4360
2019/10/29 13:03:00	BASE	29.36	26	35.70	28	-1.9	94	-2.7	273	0	979.0	NA	0.0000	-SN BR	5000	0	0	0	4170
2019/10/29 13:04:00	BASE	30.16	28	35.70	28	-1.9	94	-2.7	278	0	978.9	NA	0.0000	-SN BR	5000	0	0	0	5580
2019/10/29 13:05:00	BASE	30.80	28	35.70	28	-1.9	94	-2.7	277	0	979.0	NA	0.0000	-SN BR	5000	0	0	0	6040
2019/10/29 13:06:00	BASE	29.92	26	34.98	27	-1.8	94	-2.6	272	0	979.0	NA	0.0000	-SN BR	9999	0	0	0	4720
2019/10/29 13:07:00	BASE	29.87	27	35.34	21	-1.8	94	-2.6	264	0	979.0	NA	0.0000	-SN BR	9000	0	0	0	4230
2019/10/29 13:08:00	BASE	29.36	28	35.34	21	-1.8	94	-2.5	259	0	979.1	NA	0.0000	-SN BR	4800	0	0	0	2850
2019/10/29 13:09:00	BASE	28.72	26	35.34	21	-1.7	94	-2.5	261	0	979.0	NA	0.0000	-SN BR	5000	21360	0	0	0
2019/10/29 13:10:00	BASE	29.82	26	35.34	21	-1.7	94	-2.5	265	0	979.1	NA	0.0000	-SN BR	5000	0	0	0	2560
2019/10/29 13:11:00	BASE	29.68	26	35.34	21	-1.7	94	-2.5	268	0	979.1	NA	0.0000	-SN BR	5000	0	0	0	2820
2019/10/29 13:12:00	BASE	28.92	26	35.34	21	-1.6	94	-2.5	270	0	979.0	NA	0.0000	-SN BR	5000	19590	0	0	0
2019/10/29 13:13:00	BASE	30.03	25	35.34	21	-1.6	94	-2.4	274	0	979.0	NA	0.0000	-SN BR	7000	21790	0	0	0
2019/10/29 13:14:00	BASE	30.51	26	35.34	21	-1.5	94	-2.4	274	0	979.1	NA	0.0000	-SN BR	2400	23820	0	0	0
2019/10/29 13:15:00	BASE	28.96	26	35.34	21	-1.5	94	-2.4	275	0	979.2	NA	0.0000	-SN BR	1400	0	0	0	3380
2019/10/29 13:16:00	BASE	27.59	26	35.34	21	-1.5	94	-2.4	273	0	979.1	NA	0.0000	-SN BR	6000	23070	0	0	0
2019/10/29 13:17:00	BASE	26.99	28	34.78	29	-1.4	93	-2.4	271	0	979.1	NA	0.2540	-SN BR	9000	0	0	0	2890
2019/10/29 13:18:00	BASE	27.99	28	34.78	29	-1.4	93	-2.4	272	0	978.9	NA	0.0000	-SN BR	5000	0	0	0	2890
2019/10/29 13:19:00	BASE	29.01	26	34.78	29	-1.4	93	-2.5	278	0	978.9	NA	0.0000	-SN BR	9000	0	0	0	2690
2019/10/29 13:20:00	BASE	28.20	24	34.78	29	-1.4	92	-2.5	283	0	979.0	NA	0.0000	-SN BR	7000	0	0	0	2490
2019/10/29 13:21:00	BASE	28.66	26	34.78	29	-1.4	92	-2.5	289	0	979.0	NA	0.0000	-SN BR	4700	0	0	0	2820
2019/10/29 13:22:00	BASE	28.92	30	34.78	29	-1.4	92	-2.5	288	0	979.0	NA	0.0000	-SN BR	4500	0	0	0	2990
2019/10/29 13:23:00	BASE	29.29	30	34.00	26	-1.4	92	-2.5	287	0	979.0	NA	0.0000	-SN BR	5000	0	0	0	3480
2019/10/29 13:24:00	BASE	30.00	27	33.34	29	-1.4	92	-2.5	288	0	978.9	NA	0.0000	-SN BR	7000	0	0	0	3840
2019/10/29 13:25:00	BASE	29.61	25	33.75	23	-1.5	93	-2.5	290	0	979.0	NA	0.0000	-SN BR	4700	0	0	0	3900
2019/10/29 13:26:00	BASE	29.13	28	33.75	23	-1.5	93	-2.5	294	0	979.1	NA	0.0000	-SN BR	4600	0	0	0	3870
2019/10/29 13:27:00	BASE	28.42	29	33.75	23	-1.5	93	-2.4	295	0	979.1	NA	0.0000	-SN BR	4700	22410	0	0	0
2019/10/29 13:28:00	BASE	29.01	27	33.85	31	-1.5	93	-2.4	295	0	979.1	NA	0.2540	-SN BR	2600	0	0	0	3970
2019/10/29 13:29:00	BASE	28.95	26	33.85	31	-1.4	93	-2.4	298	0	979.0	NA	0.0000	UP BR	1100	0	0	0	3480
2019/10/29 13:30:00	BASE	28.18	25	33.85	31	-1.4	93	-2.4	302	0	979.1	NA	0.0000	UP BR	1100	0	0	0	3380
2019/10/29 13:31:00	BASE	28.41	25	33.85	31	-1.4	93	-2.4	313	0	979.1	NA	0.0000	UP BR	1100	0	0	0	3450
2019/10/29 13:32:00	BASE	29.42	24	33.85	31	-1.4	93	-2.4	325	0	979.1	NA	0.0000	UP BR	1000	0	0	0	2820
2019/10/29 13:33:00	BASE	28.89	25	33.85	31	-1.4	93	-2.3	327	0	979.1	NA	0.0000	UP BR	0900	0	0	0	3220
2019/10/29 13:34:00	BASE	27.85	26	34.00	26	-1.3	93	-2.3	331	0	979.1	NA	0.0000	UP BR	1100	0	0	0	3670
2019/10/29 13:35:00	BASE	29.34	26	34.00	26	-1.3	93	-2.3	334	0	979.1	NA	0.0000	UP BR	1400	0	0	0	3280
2019/10/29 13:36:00	BASE	30.48	28	34.00	26	-1.3	93	-2.2	338	0	979.1	NA	0.2540	UP BR	4700	0	0	0	3580
2019/10/29 13:37:00	BASE	29.70	27	34.00	26	-1.2	93	-2.2	335	0	979.0	NA	0.0000	UP BR	4900	0	0	0	3540
2019/10/29 13:38:00	BASE	29.29	26	34.00	26	-1.2	94	-2.1	329	0	979.1	NA	0.0000	UP BR	4800	0	0	0	3310
2019/10/29 13:39:00	BASE	29.08	26	34.00	26	-1.2	94	-2.0	324	0	979.1	NA	0.0000	UP BR	5000	0	0	0	3350
2019/10/29 13:40:00	BASE	29.17	27	34.00	26	-1.1	94	-2.0	321	0	979.1	NA	0.0000	UP BR	2800	0	0	0	3580
2019/10/29 13:41:00	BASE	30.60	25	34.62	28	-1.1	94	-2.0	320	0	979.1	NA	0.0000	UP BR	1200	0	0	0	3380
2019/10/29 13:42:00	BASE	30.93	26	34.62	28	-1.1	94	-1.9	317	0	979.1	NA	0.0000	UP BR	1400	0	0	0	3280
2019/10/29 13:43:00	BASE	30.80	28	34.93	21	-1.1	94	-1.9	314	0	979.1	NA	0.0000	UP BR	4700	0	0	0	3510
2019/10/29 13:44:00	BASE	30.73	27	34.93	21	-1.1	94	-1.9	308	0	979.1	NA	0.2540	UP BR	4700	0	0	0	2690
2019/10/29 13:45:00	BASE	30.29	25	34.93	21	-1.1	94	-1.9	308	0	979.1	NA	0.0000	UP BR	4900	0	0	0	2590
2019/10/29 13:46:00	BASE	29.93	25	34.93	21	-1.1	94	-1.9	311	0	979.1	NA	0.0000	UP BR	4900	0	0	0	2530
2019/10/29 13:47:00	BASE	30.00	25	34.93	21	-1.1	94	-1.9	314	0	979.1	NA	0.0000	UP BR	5000	0	0	0	2760
2019/10/29 13:48:00	BASE	30.77	26	35.39	24	-1.0	94	-1.9	311	0	979.0	NA	0.0000	UP BR	2800	0	0	0	2460
2019/10/29 13:49:00	BASE	30.88	24	35.39	24	-1.0	94	-1.8	310	0	979.0	NA	0.0000	UP BR	1200	0	0	0	1770
2019/10/29 13:50:00	BASE	30.69	23	35.39	24	-0.9	94	-1.8	309	0	979.1	NA	0.0000	UP BR	1200	0	0	0	1970
2019/10/29 13:51:00	BASE	29.36	23	35.39	24	-0.9	94	-1.7	306	0	979.1	NA	0.0000	UP BR	1400	0	0	0	2620
2019/10/29 13:52:00	BASE	29.64	23	35.39	24	-0.8	94	-1.7	299	0	979.0	NA	0.2540	UP BR	2600	0	0	0	2620
2019/10/29 13:53:00	BASE	30.23	23	35.39	24	-0.8	94	-1.7	296	0	979.2	NA	0.0000	UP BR	1300	0	0	0	2400
2019/10/29 13:54:00	BASE	28.30	22	35.39	24	-0.8	94	-1.7	295	0	979.2	NA	0.0000	UP BR	1200	0	0	0	2990
2019/10/29 13:55:00	BASE	28.23	23	35.39	24	-0.8	93	-1.8	297	0	979.1	NA	0.0000	UP BR	1300	0	0	0	2560
2019/10/29 13:56:00	BASE	28.52	24	35.39	24	-0.8	93	-1.8	300	0	979.2	NA	0.0000	-SN BR	1600	0	0	0	2820
2019/10/29 13:57:00	BASE	28.03	25	35.39	24	-0.9	93	-1.8	299	0	979.2	NA	0.0000	-SN BR	5000	0	0	0	3510
2019/10/29 13:58:00	BASE	27.90	27	33.49	22	-0.9	93	-1.8	298	0	979.3	NA	0.0000	-SN BR	3100	0	0	0	4000
2019/10/29 13:59:00	BASE	27.28	28	32.77	19	-0.9	94	-1.8	299	0	979.3	NA	0.2540	-SN BR	1500	0	0	0	3540
2019/10/29 14:00:00	BASE	27.04	26	32.77	19	-0.9	94	-1.8	301	0	979.2	NA	0.0000	-SN BR	5000	0	0	0	2990
2019/10/29 14:01:00	BASE	28.53	25	32.77	19	-0.9	94	-1.7	297	0	979.2	NA	0.0000	-SN BR	9999	0	0	0	3310
2019/10/29 14:02:00	BASE	28.52	24	32.20	28	-0.9	94	-1.7	289	0	979.2	NA	0.0000	-SN BR	9999	0	0	0	2820
2019/10/29 14:03:00	BASE	26.92	23	32.20	28	-0.9	94	-1.7	286	0	979.3	NA	0.0000	-SN BR	9999	0	0	0	2620
2019/10/29 14:04:00	BASE	26.94	26	32.20	28	-0.9	95	-1.6	290	0	979.4	NA	0.2540	-SN BR	9999	0	0	0	1900
2019/10/29 14:05:00	BASE	26.50	25	32.20	28	-0.8	95	-1.6	297	0	979.4	NA	0.0000	-SN BR	5000	0	0	0	1900
2019/10/29 14:06:00	BASE	25.35	26	32.20	28	-0.8	95	-1.6	305	0	979.4	NA	0.0000	-SN BR	6000	0	0	0	1940
2019/10/29 14:07:00	BASE	26.23	25	32.72	19	-0.8	94	-1.6	313	0	979.3	NA	0.0000	-SN BR	6000	0	0	0	2030
2019/10/29 14:08:00	BASE	27.59	23	32.72	19	-0.8	94	-1.6	318	0	979.3	NA	0.0000	-SN BR	6000	0	0	0	3150
2019/10/29 14:09:00	BASE	27.32	24	32.72	19	-0.7	94	-1.6	322	0	979.4	NA	0.0000	-SN BR	3400	0	0	0	4200
2019/10/29 14:10:00	BASE	27.96	24	32.72	19	-0.7	94	-1.6	326	0	979.3	NA	0.0000	-SN BR	1600	0	0	0	2590
2019/10/29 14:11:00	BASE	28.06	23	32.72	19	-0.7	94	-1.5	326	0	979.3	NA	0.2540	-SN BR	5000	0	0	0	3150
2019/10/29 14:12:00	BASE	26.82	22	32.72	19	-0.7	94	-1.5	330	0	979.4	NA	0.0000	-SN BR	5000	0	0	0	3310
2019/10/29 14:13:00	BASE	26.29	22	32.72	19	-0.7	94	-1.5	327	0	979.4	NA	0.0000	-SN BR	6000	0	0	0	4070
2019/10/29 14:14:00	BASE	26.44	22	32.72	19	-0.6	94	-1.5	320	0	979.4	NA	0.0000	-SN BR	6000	0	0	0	3150
2019/10/29 14:15:00	BASE	27.33	24	32.72	19	-0.6	94	-1.4	318	0	979.4	NA	0.0000	-SN BR	6000	0	0	0	2460
2019/10/29 14:16:00	BASE	27.58	25	32.72	19	-0.6	94	-1.4	323	0	979.3	NA	0.0000	-SN BR	2900	0	0	0	2030
2019/10/29 14:17:00	BASE	27.15	24	30.71	18	-0.6	95	-1.4	332	0	979.3	NA	0.0000	-SN BR	1200	0	0	0	2130
2019/10/29 14:18:00	BASE	27.51	22	30.71	18	-0.6	95	-1.3	330	0	979.1	NA	0.0000	-SN BR	1200	0	0	0	1800
2019/10/29 14:19:00	BASE	28.20	20	32.31	17	-0.6	95	-1.3	327	0	979.3	NA	0.0000	-SN BR	1200	19780	0	0	0
2019/10/29 14:20:00	BASE	29.62	21	33.39	21	-0.5	95	-1.2	318	0	979.1	NA	0.2540	-SN BR	1600	0	0	0	3180
2019/10/29 14:21:00	BASE	30.04	20	33.39	21	-0.5	95	-1.1	302	0	979.3	NA	0.0000	-SN BR	4400	0	0	0	2200
2019/10/29 14:22:00	BASE	28.78	19	33.39	21	-0.4	96	-1.1	289	0	979.3	NA	0.0000	-SN BR	4400	0	0	0	1840
2019/10/29 14:23:00	BASE	27.55	19	33.39	21	-0.4	96	-1.0	283	0	979.4	NA	0.0000	-SN BR	4500	0	0	0	1900
2019/10/29 14:24:00	BASE	26.26	19	33.39	21	-0.4	96	-1.0	295	0	979.4	NA	0.0000	-SN BR	5000	0	0	0	1740
2019/10/29 14:25:00	BASE	25.56	19	33.39	21	-0.4	96	-1.0	313	0	979.4	NA	0.0000	-SN BR	5000	0	0	0	1770
2019/10/29 14:26:00	BASE	26.15	17	33.39	21	-0.4	96	-1.0	324	0	979.3	NA	0.0000	-SN BR	5000	0	0	0	2100
2019/10/29 14:27:00	BASE	25.77	16	33.39	21	-0.4	96	-0.9	327	0	979.4	NA	0.0000	-SN BR	5000	0	0	0	2360
2019/10/29 14:28:00	BASE	24.53	17	33.39	21	-0.4	96	-0.9	306	0	979.4	NA	0.0000	-SN BR	7000	0	0	0	2790
2019/10/29 14:29:00	BASE	26.24	18	33.39	21	-0.4	96	-0.9	273	0	979.3	NA	0.0000	-SN BR	3700	0	0	0	2790
2019/10/29 14:30:00	BASE	27.13	19	31.54	18	-0.4	96	-0.9	284	0	979.3	NA	0.0000	-SN BR	2000	0	0	0	2560
2019/10/29 14:31:00	BASE	25.53	17	31.54	18	-0.4	96	-0.9	308	0	979.3	NA	0.0000	-SN BR	9999	0	0	0	1970
2019/10/29 14:32:00	BASE	25.61	18	30.76	20	-0.4	96	-0.9	322	0	979.2	NA	0.2540	-SN BR	9999	0	0	0	2030
2019/10/29 14:33:00	BASE	26.39	17	30.76	20	-0.4	96	-0.9	332	0	979.2	NA	0.0000	-SN BR	9999	0	0	0	2260
2019/10/29 14:34:00	BASE	27.10	14	30.76	20	-0.4	97	-0.9	319	0	979.1	NA	0.0000	-SN BR	9999	0	0	0	2170
2019/10/29 14:35:00	BASE	27.16	13	30.76	20	-0.4	97	-0.8	329	0	979.2	NA	0.0000	-SN BR	9999	0	0	0	2100
2019/10/29 14:36:00	BASE	26.74	16	30.76	20	-0.3	97	-0.8	331	0	979.3	NA	0.0000	-SN BR	9999	0	0	0	2200
2019/10/29 14:37:00	BASE	27.52	18	30.76	23	-0.3	97	-0.7	310	0	979.2	NA	0.0000	-SN BR	9999	0	0	0	2130
2019/10/29 14:38:00	BASE	28.06	17	30.76	23	-0.3	97	-0.7	290	0	979.2	NA	0.0000	-SN BR	9999	0	0	0	2130
2019/10/29 14:39:00	BASE	27.92	18	30.76	15	-0.3	97	-0.7	295	0	979.2	NA	0.0000	-SN BR	9000	0	0	0	1970
2019/10/29 14:40:00	BASE	26.67	17	30.76	15	-0.3	97	-0.6	299	0	979.3	NA	0.0000	-SN	5000	17820	0	0	0
2019/10/29 14:41:00	BASE	25.63	16	30.76	15	-0.3	98	-0.6	316	0	979.3	NA	0.0000	-SN BR	2200	0	0	0	1480
2019/10/29 14:42:00	BASE	25.25	15	30.76	15	-0.2	98	-0.6	318	0	979.3	NA	0.0000	-SN BR	2400	0	0	0	1710
2019/10/29 14:43:00	BASE	24.86	12	30.76	15	-0.2	98	-0.5	320	0	979.2	NA	0.0000	-SN BR	4300	24380	0	0	0
2019/10/29 14:44:00	BASE	24.91	8	30.76	15	-0.2	98	-0.5	324	0	979.2	NA	0.0000	-SN BR	5000	0	0	0	2300
2019/10/29 14:45:00	BASE	25.07	6	30.76	15	-0.2	98	-0.5	353	0	979.2	NA	0.2540	-SN BR	8000	0	0	0	1570
2019/10/29 14:46:00	BASE	24.20	7	30.76	15	-0.2	98	-0.4	381	0	979.3	NA	0.0000	-SN BR	6000	0	0	0	1640
2019/10/29 14:47:00	BASE	23.62	10	30.76	15	-0.2	98	-0.4	390	0	979.3	NA	0.0000	-SN BR	5000	0	0	0	1970
2019/10/29 14:48:00	BASE	23.54	6	30.76	15	-0.2	98	-0.4	371	0	979.2	NA	0.0000	-SN BR	2600	0	0	0	2300
2019/10/29 14:49:00	BASE	23.64	9	30.35	18	-0.2	98	-0.4	374	0	979.2	NA	0.0000	-SN BR	9000	22210	0	0	0
2019/10/29 14:50:00	BASE	23.10	10	29.99	15	-0.2	98	-0.4	379	0	979.3	NA	0.0000	-SN BR	9000	0	0	0	1940
2019/10/29 14:51:00	BASE	22.80	9	28.60	8	-0.2	99	-0.4	384	0	979.2	NA	0.0000	-SN BR	5000	0	0	0	2400
2019/10/29 14:52:00	BASE	24.96	15	30.40	16	-0.2	99	-0.3	385	0	979.2	NA	0.0000	-SN BR	3100	0	0	0	2230
2019/10/29 14:53:00	BASE	26.20	17	30.40	16	-0.2	99	-0.2	377	0	979.1	NA	0.0000	-SN BR	2100	0	0	0	2300
2019/10/29 14:54:00	BASE	25.87	15	30.40	16	-0.1	100	-0.2	363	0	979.2	NA	0.2540	-SN BR	2400	0	0	0	2530
2019/10/29 14:55:00	BASE	26.51	15	30.40	16	-0.1	100	-0.1	372	0	979.2	NA	0.0000	-SN BR	3000	0	0	0	2720
2019/10/29 14:56:00	BASE	26.50	16	30.40	16	-0.1	100	-0.1	378	0	979.2	NA	0.0000	-SN BR	2900	0	0	0	3220
2019/10/29 14:57:00	BASE	26.55	17	30.40	16	-0.1	100	-0.1	374	0	979.2	NA	0.0000	-SN BR	3400	0	0	0	4200
2019/10/29 14:58:00	BASE	26.92	17	30.40	16	-0.1	100	-0.1	382	0	979.3	NA	0.0000	-SN BR	4600	22470	0	0	0
2019/10/29 14:59:00	BASE	27.09	17	31.48	12	-0.1	99	-0.2	377	0	979.2	NA	0.0000	-SN BR	4400	0	0	0	4590
2019/10/29 15:00:00	BASE	28.45	19	31.74	17	-0.1	99	-0.2	348	0	979.2	NA	0.0000	-SN BR	4400	19980	23000	0	0
2019/10/29 15:01:00	BASE	28.64	18	31.74	17	-0.1	99	-0.2	337	0	979.2	NA	0.0000	-SN BR	5000	0	0	0	3670
2019/10/29 15:02:00	BASE	28.89	18	33.54	19	-0.1	99	-0.2	343	0	979.2	NA	0.0000	-SN BR	6000	0	0	0	2660
2019/10/29 15:03:00	BASE	29.35	18	33.54	19	-0.1	99	-0.2	341	0	979.1	NA	0.0000	-SN BR	4600	22080	0	0	0
2019/10/29 15:04:00	BASE	29.27	16	33.54	19	-0.1	99	-0.2	350	0	979.1	NA	0.0000	-SN BR	6000	0	0	0	2690
2019/10/29 15:05:00	BASE	29.18	15	33.54	19	-0.1	99	-0.2	369	0	979.1	NA	0.0000	-SN BR	6000	0	0	0	3640
2019/10/29 15:06:00	BASE	28.79	15	33.54	19	-0.1	99	-0.2	402	0	979.1	NA	0.0000	-SN BR	5000	0	0	0	3670
2019/10/29 15:07:00	BASE	27.78	15	33.54	19	-0.1	99	-0.2	421	0	979.1	NA	0.0000	-SN BR	7000	0	0	0	3640
2019/10/29 15:08:00	BASE	26.09	15	33.54	19	-0.1	99	-0.2	434	0	979.2	NA	0.0000	-SN BR	9000	0	0	0	5870
2019/10/29 15:09:00	BASE	25.29	15	33.54	19	-0.0	99	-0.2	451	0	979.1	NA	0.0000	-SN BR	9999	0	0	0	5510
2019/10/29 15:10:00	BASE	25.97	12	33.54	19	0.0	98	-0.2	464	0	979.0	NA	0.2540	-SN BR	9999	0	0	0	6140
2019/10/29 15:11:00	BASE	26.56	11	33.54	19	0.1	98	-0.2	450	0	979.1	NA	0.0000	-SN BR	9000	0	0	0	5870
2019/10/29 15:12:00	BASE	26.41	11	31.95	7	0.1	98	-0.2	448	0	979.1	NA	0.0000	-SN BR	9999	0	0	0	5510
2019/10/29 15:13:00	BASE	26.52	12	31.95	7	0.1	98	-0.2	440	0	979.1	NA	0.0000	-SN BR	9999	0	0	0	6170
2019/10/29 15:14:00	BASE	25.95	12	31.28	12	0.1	98	-0.2	422	0	979.1	NA	0.0000	-SN BR	9999	0	0	0	5150
2019/10/29 15:15:00	BASE	25.32	10	31.23	9	0.1	98	-0.2	424	0	979.1	NA	0.0000	-SN BR	9999	390	0	0	0
2019/10/29 15:16:00	BASE	25.96	10	31.07	15	0.1	98	-0.2	439	0	979.2	NA	0.0000	-SN	9999	0	0	0	4860
2019/10/29 15:17:00	BASE	27.32	11	31.07	15	0.2	97	-0.2	433	0	979.0	NA	0.0000	-SN	9999	0	0	0	5280
2019/10/29 15:18:00	BASE	28.04	11	31.07	10	0.2	97	-0.2	405	0	979.0	NA	0.0000	-SN	9999	0	0	0	5870
2019/10/29 15:19:00	BASE	26.81	11	31.07	10	0.2	97	-0.2	403	0	979.1	NA	0.0000	-SN	9999	0	0	0	5640
2019/10/29 15:20:00	BASE	25.15	11	31.07	10	0.2	97	-0.2	411	0	979.1	NA	0.0000	-SN	9999	0	0	0	5610
2019/10/29 15:21:00	BASE	24.82	9	31.07	10	0.2	97	-0.2	416	0	979.0	NA	0.0000	-SN	9999	0	0	0	5640
2019/10/29 15:22:00	BASE	25.64	8	31.07	10	0.2	97	-0.2	429	0	979.0	NA	0.0000	-SN	9999	0	0	0	2620
2019/10/29 15:23:00	BASE	25.76	9	31.07	10	0.2	97	-0.2	450	0	979.0	NA	0.2540	-SN	9999	20280	0	0	0
2019/10/29 15:24:00	BASE	25.44	7	31.07	10	0.2	97	-0.2	478	0	979.0	NA	0.0000	-SN	9999	0	0	0	2460
2019/10/29 15:25:00	BASE	26.12	7	31.07	10	0.2	97	-0.2	488	0	978.9	NA	0.0000	-SN	9999	0	0	0	2300
2019/10/29 15:26:00	BASE	25.86	9	31.07	10	0.3	97	-0.2	486	0	979.0	NA	0.0000	-SN	9999	0	0	0	4720
2019/10/29 15:27:00	BASE	25.49	9	31.07	10	0.3	97	-0.1	470	0	979.0	NA	0.0000	-SN	9999	0	0	0	5250
2019/10/29 15:28:00	BASE	25.15	9	29.48	6	0.3	97	-0.1	468	0	979.0	NA	0.0000	-SN	9999	0	0	0	4890
2019/10/29 15:29:00	BASE	25.72	11	29.48	6	0.3	97	-0.1	460	0	978.9	NA	0.2540	-SN	9999	0	0	0	4660
2019/10/29 15:30:00	BASE	27.52	11	29.48	6	0.3	97	-0.1	441	0	978.8	NA	0.0000	-SN	9999	0	0	0	4760
2019/10/29 15:31:00	BASE	26.59	10	29.48	6	0.3	97	-0.1	431	0	978.9	NA	0.0000	-SN	9999	0	0	0	3540
2019/10/29 15:32:00	BASE	24.78	10	29.17	9	0.3	97	-0.1	427	0	978.9	NA	0.0000	-SN	9999	0	0	0	5090
2019/10/29 15:33:00	BASE	25.24	11	29.17	9	0.3	97	-0.1	414	0	978.8	NA	0.0000	-SN	9999	0	0	0	5220
2019/10/29 15:34:00	BASE	27.23	12	31.07	7	0.3	97	-0.1	408	0	978.7	NA	0.2540	-SN	9999	0	0	0	4560
2019/10/29 15:35:00	BASE	27.80	11	31.07	7	0.3	97	-0.1	431	0	978.7	NA	0.0000	-SN	9999	0	0	0	4660
2019/10/29 15:36:00	BASE	27.54	11	31.07	7	0.3	97	-0.1	408	0	978.6	NA	0.0000	-SN	9999	0	0	0	5120
2019/10/29 15:37:00	BASE	27.66	11	31.54	16	0.3	97	-0.1	380	0	978.5	NA	0.0000	-SN	9999	23100	0	0	0
2019/10/29 15:38:00	BASE	27.81	12	31.54	16	0.3	97	-0.1	363	0	978.6	NA	0.0000	-SN	9999	0	0	0	4430
2019/10/29 15:39:00	BASE	28.27	11	31.54	16	0.3	97	-0.1	347	0	978.5	NA	0.0000	-SN	9999	0	0	0	4860
2019/10/29 15:40:00	BASE	29.48	11	32.41	12	0.3	97	-0.2	346	0	978.4	NA	0.2540	-SN	9999	0	0	0	4130
2019/10/29 15:41:00	BASE	29.02	11	32.41	12	0.3	96	-0.2	362	0	978.4	NA	0.0000	-SN	9999	0	0	0	3970
2019/10/29 15:42:00	BASE	28.08	12	32.41	12	0.3	96	-0.2	395	0	978.4	NA	0.0000	-SN	9999	22640	0	0	0
2019/10/29 15:43:00	BASE	28.57	12	32.92	8	0.3	96	-0.3	403	0	978.3	NA	0.0000	-SN	9999	0	0	0	5350
2019/10/29 15:44:00	BASE	29.38	12	32.92	14	0.3	96	-0.3	430	0	978.3	NA	0.0000	-SN	5000	0	0	0	5320
2019/10/29 15:45:00	BASE	28.89	11	32.92	14	0.3	96	-0.3	426	0	978.3	NA	0.2540	-SN BR	2900	0	0	0	5910
2019/10/29 15:46:00	BASE	28.25	11	32.98	13	0.3	96	-0.3	399	0	978.2	NA	0.0000	-SN BR	4600	0	0	0	4760
2019/10/29 15:47:00	BASE	29.11	13	32.98	13	0.3	96	-0.3	384	0	978.2	NA	0.0000	-SN BR	5000	22250	0	0	0
2019/10/29 15:48:00	BASE	29.14	15	32.98	13	0.3	96	-0.3	383	0	978.3	NA	0.0000	-SN BR	5000	0	0	0	4040
2019/10/29 15:49:00	BASE	29.38	13	33.13	9	0.3	96	-0.2	374	0	978.1	NA	0.0000	-SN BR	6000	0	0	0	5120
2019/10/29 15:50:00	BASE	28.35	12	33.13	9	0.3	96	-0.2	379	0	978.2	NA	0.0000	-SN BR	4500	0	0	0	3870
2019/10/29 15:51:00	BASE	27.48	13	33.13	9	0.3	97	-0.2	363	0	978.2	NA	0.0000	-SN BR	5000	0	0	0	4760
2019/10/29 15:52:00	BASE	28.37	13	33.13	9	0.3	97	-0.2	356	0	978.2	NA	0.0000	-SN BR	5000	0	0	0	4000
2019/10/29 15:53:00	BASE	28.62	13	33.13	9	0.3	97	-0.1	347	0	978.1	NA	0.0000	-SN BR	4500	0	0	0	3970
2019/10/29 15:54:00	BASE	28.32	14	33.13	9	0.3	97	-0.1	333	0	978.2	NA	0.2540	-SN BR	7000	0	0	0	5380
2019/10/29 15:55:00	BASE	28.28	15	33.13	9	0.3	97	-0.1	318	0	978.2	NA	0.0000	-SN BR	4600	0	0	0	3250
2019/10/29 15:56:00	BASE	29.55	15	33.34	19	0.3	97	-0.1	297	0	978.2	NA	0.0000	-SN BR	2700	0	0	0	2230
2019/10/29 15:57:00	BASE	29.47	16	33.34	19	0.3	97	-0.2	284	0	978.2	NA	0.0000	-SN BR	2300	0	0	0	1870
2019/10/29 15:58:00	BASE	29.09	17	33.34	19	0.2	97	-0.2	279	0	978.2	NA	0.0000	-SN BR	2300	0	0	0	1800
2019/10/29 15:59:00	BASE	28.59	17	33.34	19	0.2	97	-0.2	283	0	978.3	NA	0.0000	-SN BR	2100	19750	0	0	0
2019/10/29 16:00:00	BASE	27.65	17	33.34	19	0.2	98	-0.2	293	0	978.4	NA	0.0000	-SN BR	2000	0	0	0	1940
2019/10/29 16:01:00	BASE	29.24	18	33.34	19	0.1	98	-0.2	305	0	978.1	NA	0.0000	-SN BR	2000	0	0	0	2000
2019/10/29 16:02:00	BASE	30.35	17	34.83	15	0.1	98	-0.1	311	0	977.7	NA	0.0000	-SN BR	2300	0	0	0	2030
2019/10/29 16:03:00	BASE	30.09	17	34.83	15	0.1	98	-0.1	311	0	978.2	NA	0.0000	-SN BR	2000	0	0	0	2130
2019/10/29 16:04:00	BASE	30.03	19	34.83	15	0.1	99	-0.1	317	0	978.3	NA	0.0000	-SN BR	1800	0	0	0	1970
2019/10/29 16:05:00	BASE	29.13	19	34.83	15	0.1	99	-0.1	321	0	978.3	NA	0.0000	-SN BR	1500	18730	22340	0	0
2019/10/29 16:06:00	BASE	29.02	19	34.83	15	0.1	99	-0.0	322	0	978.1	NA	0.0000	-SN BR	1500	0	0	0	2200
2019/10/29 16:07:00	BASE	29.89	19	34.83	15	0.1	99	-0.0	320	0	978.2	NA	0.0000	-SN BR	1400	19490	24440	0	0
2019/10/29 16:08:00	BASE	30.32	19	34.83	15	0.1	99	-0.0	319	0	978.1	NA	0.0000	-SN BR	1600	0	0	0	2200
2019/10/29 16:09:00	BASE	29.93	17	34.83	15	0.1	99	0.0	318	0	978.2	NA	0.0000	-SN BR	1700	0	0	0	2330
2019/10/29 16:10:00	BASE	28.75	18	34.83	15	0.1	100	0.0	313	0	978.2	NA	0.0000	-SN BR	1800	0	0	0	2590
2019/10/29 16:11:00	BASE	27.72	19	34.83	15	0.1	100	0.1	314	0	978.2	NA	0.2540	-SN BR	2000	0	0	0	2170
2019/10/29 16:12:00	BASE	27.41	17	34.78	13	0.1	100	0.1	317	0	978.2	NA	0.0000	-SN BR	2200	20050	0	0	0
2019/10/29 16:13:00	BASE	28.10	18	33.85	20	0.1	100	0.1	323	0	978.2	NA	0.0000	-SN BR	1900	17490	0	0	0
2019/10/29 16:14:00	BASE	27.97	19	33.18	23	0.1	100	0.1	325	0	978.2	NA	0.0000	-SN BR	1900	0	0	0	1970
2019/10/29 16:15:00	BASE	28.63	19	34.00	16	0.1	100	0.1	330	0	978.1	NA	0.0000	-SN BR	1900	0	0	0	1940
2019/10/29 16:16:00	BASE	29.80	19	34.00	16	0.1	100	0.1	337	0	977.9	NA	0.0000	-SN BR	1500	0	0	0	2000
2019/10/29 16:17:00	BASE	29.37	20	34.00	16	0.1	100	0.1	339	0	978.1	NA	0.0000	-SN BR	1600	0	0	0	2430
2019/10/29 16:18:00	BASE	28.64	22	34.00	16	0.1	100	0.1	335	0	978.1	NA	0.0000	-SN BR	1800	0	0	0	2790
2019/10/29 16:19:00	BASE	28.73	22	34.00	16	0.1	100	0.1	319	0	978.1	NA	0.0000	-SN BR	2200	0	0	0	2990
2019/10/29 16:20:00	BASE	29.16	21	34.00	16	0.1	100	0.1	300	0	978.0	NA	0.0000	-SN BR	2700	0	0	0	2950
2019/10/29 16:21:00	BASE	29.82	21	34.00	16	0.1	100	0.1	292	0	978.0	NA	0.0000	-SN BR	2600	0	0	0	2230
2019/10/29 16:22:00	BASE	29.47	20	34.00	16	0.1	100	0.1	290	0	978.0	NA	0.0000	-SN BR	2000	0	0	0	2360
2019/10/29 16:23:00	BASE	29.33	21	34.00	16	0.2	99	0.1	287	0	978.0	NA	0.0000	-SN BR	2000	0	0	0	2100
2019/10/29 16:24:00	BASE	29.41	21	34.00	16	0.2	99	0.0	287	0	978.0	NA	0.0000	-SN BR	1800	0	0	0	1940
2019/10/29 16:25:00	BASE	29.06	22	33.39	22	0.1	99	0.0	293	0	978.0	NA	0.0000	-SN BR	1900	0	0	0	1770
2019/10/29 16:26:00	BASE	30.15	21	34.67	19	0.1	99	0.0	293	0	977.9	NA	0.0000	-SN BR	1800	0	0	0	1670
2019/10/29 16:27:00	BASE	30.71	21	34.67	19	0.1	99	0.0	295	0	977.9	NA	0.0000	-SN BR	1500	21330	0	0	0
2019/10/29 16:28:00	BASE	30.45	22	35.29	19	0.2	99	0.0	297	0	977.8	NA	0.0000	-SN BR	1500	23130	0	0	0
2019/10/29 16:29:00	BASE	30.88	22	35.29	19	0.2	99	0.0	295	0	977.9	NA	0.2540	-SN BR	1600	0	0	0	2230
2019/10/29 16:30:00	BASE	29.54	23	35.29	19	0.2	99	0.0	292	0	978.0	NA	0.0000	-SN BR	1600	20380	0	0	0
2019/10/29 16:31:00	BASE	29.74	23	35.29	19	0.2	99	0.0	285	0	977.8	NA	0.0000	-SN BR	1700	0	0	0	2230
2019/10/29 16:32:00	BASE	30.21	23	35.29	19	0.3	98	0.0	282	0	977.9	NA	0.0000	-SN BR	1700	0	0	0	2330
2019/10/29 16:33:00	BASE	29.50	24	35.29	19	0.3	98	0.0	281	0	977.9	NA	0.0000	-SN BR	1900	0	0	0	2490
2019/10/29 16:34:00	BASE	29.91	23	35.29	19	0.3	98	-0.0	279	0	977.9	NA	0.0000	-SN BR	2000	0	0	0	2490
2019/10/29 16:35:00	BASE	29.26	23	35.29	19	0.2	98	-0.0	277	0	977.9	NA	0.0000	-SN BR	1800	0	0	0	2620
2019/10/29 16:36:00	BASE	29.74	23	35.29	19	0.2	98	-0.1	273	0	977.8	NA	0.0000	-SN BR	1900	0	0	0	2720
2019/10/29 16:37:00	BASE	31.61	22	35.29	19	0.2	98	-0.1	268	0	977.8	NA	0.0000	-SN BR	2000	0	0	0	2460
2019/10/29 16:38:00	BASE	31.58	22	34.83	23	0.2	98	-0.1	268	0	977.8	NA	0.0000	-SN BR	1700	0	0	0	2260
2019/10/29 16:39:00	BASE	31.05	22	34.21	24	0.1	99	-0.1	278	0	977.8	NA	0.0000	-SN BR	2000	0	0	0	2000
2019/10/29 16:40:00	BASE	31.13	21	34.62	23	0.1	99	-0.0	284	0	977.7	NA	0.0000	-SN BR	2000	0	0	0	2170
2019/10/29 16:41:00	BASE	31.15	20	35.34	23	0.1	99	0.0	280	0	977.6	NA	0.0000	-SN BR	2000	0	0	0	2200
2019/10/29 16:42:00	BASE	31.50	21	35.34	23	0.1	99	0.0	277	0	977.7	NA	0.0000	-SN BR	2000	0	0	0	2130
2019/10/29 16:43:00	BASE	31.45	21	35.34	23	0.1	100	0.0	275	0	977.6	NA	0.0000	-SN BR	2100	0	0	0	2100
2019/10/29 16:44:00	BASE	30.90	21	35.34	23	0.1	100	0.1	270	0	977.6	NA	0.0000	-SN BR	2300	0	0	0	2100
2019/10/29 16:45:00	BASE	30.33	23	35.70	24	0.1	100	0.1	267	0	977.6	NA	0.0000	-SN BR	2200	0	0	0	2070
2019/10/29 16:46:00	BASE	30.15	23	35.70	24	0.1	100	0.1	266	0	977.7	NA	0.0000	-SN BR	2100	0	0	0	2000
2019/10/29 16:47:00	BASE	31.12	22	35.70	24	0.1	100	0.1	275	0	977.5	NA	0.0000	-SN BR	2100	0	0	0	2000
2019/10/29 16:48:00	BASE	31.30	21	35.70	24	0.2	100	0.2	289	0	977.6	NA	0.0000	-SN BR	2000	0	0	0	1900
2019/10/29 16:49:00	BASE	30.62	21	35.70	24	0.2	100	0.2	297	0	977.6	NA	0.0000	-SN BR	2600	0	0	0	2070
2019/10/29 16:50:00	BASE	30.34	21	35.70	24	0.2	100	0.2	295	0	977.6	NA	0.2540	-SN BR	9000	0	0	0	2200
2019/10/29 16:51:00	BASE	31.24	20	35.70	24	0.2	100	0.2	293	0	977.5	NA	0.0000	-SN BR	9999	0	0	0	2100
2019/10/29 16:52:00	BASE	32.58	20	35.70	24	0.2	100	0.2	289	0	977.3	NA	0.0000	-SN BR	9000	0	0	0	2100
2019/10/29 16:53:00	BASE	31.96	19	35.70	24	0.3	100	0.3	281	0	977.4	NA	0.0000	-SN BR	9000	0	0	0	2100
2019/10/29 16:54:00	BASE	31.21	20	35.70	24	0.3	100	0.3	274	0	977.5	NA	0.0000	-SN BR	4800	0	0	0	2230
2019/10/29 16:55:00	BASE	31.63	20	35.29	22	0.3	100	0.3	269	0	977.4	NA	0.0000	-SN BR	1900	0	0	0	2260
2019/10/29 16:56:00	BASE	32.49	19	35.45	24	0.3	100	0.3	272	0	977.4	NA	0.0000	-SN BR	1800	0	0	0	1970
2019/10/29 16:57:00	BASE	33.29	19	36.27	19	0.3	100	0.3	273	0	977.3	NA	0.0000	-SN BR	1600	0	0	0	2200
2019/10/29 16:58:00	BASE	33.47	19	36.47	21	0.3	100	0.3	268	0	977.2	NA	0.0000	-SN BR	1500	0	0	0	2260
2019/10/29 16:59:00	BASE	34.47	19	37.25	23	0.3	100	0.3	263	0	977.2	NA	0.0000	-SN BR	1700	20770	0	0	0
2019/10/29 17:00:00	BASE	35.02	20	39.10	20	0.3	100	0.3	256	0	977.1	NA	0.0000	-SN BR	1700	0	0	0	2430
2019/10/29 17:01:00	BASE	34.77	21	39.20	23	0.3	100	0.3	254	0	977.2	NA	0.0000	-SN BR	1900	0	0	0	2400
2019/10/29 17:02:00	BASE	35.02	22	39.20	23	0.3	100	0.3	254	0	977.1	NA	0.0000	-SN BR	2300	0	0	0	2760
2019/10/29 17:03:00	BASE	34.68	21	39.20	23	0.3	100	0.3	254	0	977.1	NA	0.0000	-SN BR	9000	0	0	0	2530
2019/10/29 17:04:00	BASE	33.52	22	39.20	23	0.3	100	0.3	254	0	977.2	NA	0.0000	-SN BR	7000	0	0	0	2850
2019/10/29 17:05:00	BASE	32.07	21	39.20	23	0.3	100	0.3	255	0	977.2	NA	0.0000	-SN BR	5000	0	0	0	2890
2019/10/29 17:06:00	BASE	32.77	21	39.20	23	0.3	100	0.3	253	0	977.1	NA	0.0000	-SN BR	9000	0	0	0	3450
2019/10/29 17:07:00	BASE	34.60	23	39.20	23	0.3	100	0.3	253	0	977.0	NA	0.0000	-SN BR	9000	0	0	0	3280
2019/10/29 17:08:00	BASE	35.04	23	39.20	23	0.3	100	0.3	246	0	977.0	NA	0.0000	-SN BR	7000	0	0	0	3640
2019/10/29 17:09:00	BASE	35.55	21	39.87	22	0.3	100	0.3	246	0	976.9	NA	0.0000	-SN BR	5000	0	0	0	3350
2019/10/29 17:10:00	BASE	34.95	22	39.87	22	0.3	100	0.3	245	0	977.0	NA	0.2540	-SN BR	9000	0	0	0	3350
2019/10/29 17:11:00	BASE	34.05	21	39.87	22	0.3	100	0.3	240	0	977.0	NA	0.0000	-SN BR	7000	0	0	0	3380
2019/10/29 17:12:00	BASE	34.85	21	39.87	22	0.3	100	0.3	242	0	977.0	NA	0.0000	-SN BR	4000	0	0	0	3580
2019/10/29 17:13:00	BASE	35.56	23	39.87	22	0.3	100	0.3	241	0	976.9	NA	0.0000	-SN BR	4000	0	0	0	3840
2019/10/29 17:14:00	BASE	35.87	23	39.87	22	0.3	100	0.3	236	0	976.9	NA	0.0000	-SN BR	4100	0	0	0	3610
2019/10/29 17:15:00	BASE	35.75	22	39.87	22	0.3	100	0.3	227	0	976.9	NA	0.0000	-SN BR	4200	22670	0	0	0
2019/10/29 17:16:00	BASE	36.59	21	39.87	22	0.4	100	0.4	222	0	976.7	NA	0.0000	-SN BR	3500	0	0	0	3770
2019/10/29 17:17:00	BASE	36.40	21	39.87	22	0.4	100	0.4	217	0	976.8	NA	0.0000	-SN BR	2600	0	0	0	4100
2019/10/29 17:18:00	BASE	35.83	20	39.87	22	0.4	100	0.4	211	0	976.7	NA	0.0000	-SN BR	4200	0	0	0	3540
2019/10/29 17:19:00	BASE	36.35	20	39.51	23	0.4	100	0.4	206	0	976.8	NA	0.0000	-SN BR	4500	0	0	0	3450
2019/10/29 17:20:00	BASE	35.84	21	39.51	23	0.4	100	0.4	196	0	976.7	NA	0.0000	UP BR	4800	0	0	0	2850
2019/10/29 17:21:00	BASE	35.91	21	39.51	23	0.3	100	0.3	188	0	976.8	NA	0.0000	-SN BR	5000	0	0	0	2660
2019/10/29 17:22:00	BASE	36.91	20	39.51	23	0.3	100	0.3	179	0	976.7	NA	0.0000	-SN BR	4900	0	0	0	2430
2019/10/29 17:23:00	BASE	36.30	20	39.51	23	0.3	100	0.3	170	0	976.8	NA	0.0000	-SN BR	1900	0	0	0	2330
2019/10/29 17:24:00	BASE	35.60	21	39.51	23	0.3	100	0.3	167	0	976.8	NA	0.0000	-SN BR	1800	0	0	0	2230
2019/10/29 17:25:00	BASE	36.62	22	39.56	20	0.3	100	0.3	166	0	976.7	NA	0.0000	-SN BR	1200	0	0	0	2000
2019/10/29 17:26:00	BASE	36.08	22	39.56	20	0.3	100	0.3	170	0	976.8	NA	0.0000	-SN BR	0800	0	0	0	1940
2019/10/29 17:27:00	BASE	35.85	22	39.56	20	0.3	100	0.3	171	0	976.8	NA	0.0000	-SN BR	1300	0	0	0	2070
2019/10/29 17:28:01	BASE	36.94	22	40.33	17	0.3	100	0.3	172	0	976.7	NA	0.0000	-SN BR	0700	0	0	0	2070
2019/10/29 17:29:00	BASE	36.53	22	40.33	17	0.3	100	0.3	171	0	976.7	NA	0.0000	-SN BR	0800	0	0	0	2330
2019/10/29 17:30:00	BASE	35.92	21	40.33	17	0.3	100	0.3	168	0	976.7	NA	0.0000	-SN BR	1800	0	0	0	2130
2019/10/29 17:31:00	BASE	35.27	22	40.33	17	0.3	100	0.3	165	0	976.8	NA	0.0000	-SN BR	1800	0	0	0	1970
2019/10/29 17:32:00	BASE	34.22	22	40.33	17	0.3	100	0.3	164	0	976.8	NA	0.2540	-SN BR	1600	23200	0	0	0
2019/10/29 17:33:00	BASE	33.78	21	40.33	17	0.3	100	0.3	159	0	976.8	NA	0.0000	-SN BR	1500	0	0	0	1800
2019/10/29 17:34:00	BASE	34.84	23	40.33	17	0.3	100	0.3	152	0	976.7	NA	0.0000	-SN BR	1500	0	0	0	1840
2019/10/29 17:35:00	BASE	35.78	22	40.33	17	0.3	100	0.3	143	0	976.8	NA	0.0000	-SN BR	1500	0	0	0	1570
2019/10/29 17:36:00	BASE	35.05	22	40.33	17	0.3	100	0.3	133	0	976.8	NA	0.0000	-SN BR	1400	0	0	0	1640
2019/10/29 17:37:00	BASE	34.40	22	40.33	17	0.3	100	0.3	123	0	976.8	NA	0.0000	-SN BR	1200	0	0	0	1540
2019/10/29 17:38:00	BASE	34.15	22	40.02	22	0.4	100	0.4	121	0	976.9	NA	0.0000	-SN BR	1200	0	0	0	1350
2019/10/29 17:39:00	BASE	32.18	22	38.84	21	0.4	100	0.4	121	0	977.0	NA	0.0000	-SN BR	1200	0	0	0	1120
2019/10/29 17:40:00	BASE	30.09	22	38.84	21	0.4	100	0.4	121	0	977.0	NA	0.0000	-SN BR	1200	0	0	0	1210
2019/10/29 17:41:00	BASE	30.41	23	38.84	21	0.4	100	0.4	124	0	977.0	NA	0.0000	-SN BR	1200	0	0	0	950
2019/10/29 17:42:00	BASE	30.02	24	38.84	21	0.3	100	0.3	128	0	977.1	NA	0.0000	-SN BR	0900	0	0	0	850
2019/10/29 17:43:00	BASE	29.21	26	38.84	21	0.3	100	0.3	130	0	977.0	NA	0.0000	SN BR	0450	0	0	0	690
2019/10/29 17:44:00	BASE	29.61	25	38.84	21	0.3	100	0.3	132	0	976.9	NA	0.0000	SN BR	0450	0	0	0	590
2019/10/29 17:45:00	BASE	31.20	23	37.66	18	0.2	100	0.2	135	0	976.7	NA	0.0000	-SN FG	0600	0	0	0	690
2019/10/29 17:46:00	BASE	31.84	24	37.66	18	0.2	100	0.2	135	0	976.8	NA	0.0000	-SN FG	2600	0	0	0	750
2019/10/29 17:47:00	BASE	32.94	26	37.66	18	0.2	100	0.2	137	0	976.7	NA	0.0000	-SN BR	2200	0	0	0	890
2019/10/29 17:48:00	BASE	33.37	24	36.27	25	0.2	100	0.2	133	0	976.7	NA	0.0000	-SN BR	2600	23390	0	0	0
2019/10/29 17:49:00	BASE	32.47	25	36.27	25	0.2	100	0.2	129	0	976.7	NA	0.0000	-SN BR	3100	0	0	0	1080
2019/10/29 17:50:00	BASE	33.26	25	38.58	22	0.2	100	0.2	129	0	976.6	NA	0.0000	RA BR	2900	0	0	0	1080
2019/10/29 17:51:00	BASE	32.78	25	38.58	22	0.2	100	0.2	130	0	976.7	NA	0.0000	RA BR	3000	0	0	0	1120
2019/10/29 17:52:00	BASE	31.75	24	38.58	22	0.2	100	0.2	132	0	976.6	NA	0.0000	RA BR	1400	0	0	0	1150
2019/10/29 17:53:01	BASE	32.12	26	38.58	22	0.2	100	0.2	135	0	976.6	NA	0.0000	RA BR	0600	0	0	0	1250
2019/10/29 17:54:00	BASE	33.03	26	38.58	22	0.2	100	0.2	139	0	976.4	NA	0.0000	RA BR	0800	0	0	0	1610
2019/10/29 17:55:00	BASE	34.20	26	39.51	34	0.2	100	0.2	151	0	976.4	NA	0.0000	RA BR	3100	0	0	0	1770
2019/10/29 17:56:00	BASE	33.99	27	39.51	34	0.2	100	0.2	157	0	976.4	NA	0.0000	RA BR	2900	0	0	0	1740
2019/10/29 17:57:00	BASE	33.52	26	39.51	34	0.2	100	0.2	157	0	976.4	NA	0.0000	RA BR	3400	0	0	0	2230
2019/10/29 17:58:00	BASE	34.01	24	39.51	34	0.2	100	0.2	160	0	976.3	NA	0.0000	RA BR	1600	22930	0	0	0
2019/10/29 17:59:00	BASE	33.48	27	39.51	34	0.2	100	0.2	167	0	976.5	NA	0.0000	-SN BR	0700	0	0	0	1870
2019/10/29 18:00:00	BASE	33.98	29	40.90	29	0.2	100	0.2	167	0	976.4	NA	0.2540	-SN BR	0800	0	0	0	2170
2019/10/29 18:01:00	BASE	33.42	28	40.90	29	0.2	100	0.2	165	0	976.4	NA	0.0000	SN BR	0450	0	0	0	2360
2019/10/29 18:02:00	BASE	31.66	26	40.90	29	0.2	100	0.2	163	0	976.3	NA	0.0000	SN BR	1100	0	0	0	1870
2019/10/29 18:03:00	BASE	32.12	27	40.90	29	0.3	100	0.3	160	0	976.4	NA	0.0000	SN BR	0700	0	0	0	2100
2019/10/29 18:04:00	BASE	32.30	27	40.90	29	0.2	100	0.2	162	0	976.3	NA	0.0000	SN BR	1300	0	0	0	2230
2019/10/29 18:05:00	BASE	33.33	28	40.90	29	0.2	100	0.2	164	0	976.3	NA	0.0000	SN BR	0700	0	0	0	2130
2019/10/29 18:06:00	BASE	34.05	29	40.90	29	0.2	100	0.2	165	0	976.2	NA	0.0000	-SN FG	0650	0	0	0	1870
2019/10/29 18:07:00	BASE	33.07	28	40.90	29	0.2	100	0.2	171	0	976.2	NA	0.0000	SN FG	0800	0	0	0	1940
2019/10/29 18:08:00	BASE	33.32	30	40.90	29	0.3	100	0.3	178	0	976.1	NA	0.0000	-SN FG	1300	0	0	0	2590
2019/10/29 18:09:00	BASE	34.40	27	40.90	29	0.3	100	0.3	179	0	976.2	NA	0.0000	-SN FG	0700	23130	0	0	0
2019/10/29 18:10:00	BASE	34.41	25	40.54	26	0.3	100	0.3	171	0	976.1	NA	0.0000	-SN FG	0800	0	0	0	2760
2019/10/29 18:11:00	BASE	33.73	28	40.54	26	0.3	100	0.3	169	0	976.3	NA	0.0000	-SN FG	0800	0	0	0	2490
2019/10/29 18:12:00	BASE	32.38	29	40.54	26	0.3	100	0.3	164	0	976.4	NA	0.0000	-SN FG	0750	17190	20930	0	0
2019/10/29 18:13:00	BASE	32.81	30	40.54	26	0.3	100	0.3	157	0	976.3	NA	0.2540	UP FG	0800	0	0	0	2820
2019/10/29 18:14:00	BASE	33.17	30	40.54	26	0.3	100	0.3	146	0	976.2	NA	0.0000	UP FG	0800	0	0	0	2530
2019/10/29 18:15:00	BASE	32.93	29	40.54	26	0.3	100	0.3	138	0	976.1	NA	0.0000	UP FG	0900	0	0	0	2530
2019/10/29 18:16:00	BASE	31.70	25	40.54	26	0.3	100	0.3	138	0	975.9	NA	0.0000	UP FG	1000	0	0	0	2230
2019/10/29 18:17:00	BASE	31.00	25	40.54	26	0.3	100	0.3	135	0	976.1	NA	0.0000	UP BR	1000	0	0	0	2230
2019/10/29 18:18:00	BASE	32.53	28	40.54	26	0.3	100	0.3	138	0	976.3	NA	0.0000	UP FG	1100	0	0	0	2170
2019/10/29 18:19:00	BASE	33.84	29	40.54	26	0.3	100	0.3	143	0	976.2	NA	0.0000	-SN BR	1800	0	0	0	2560
2019/10/29 18:20:00	BASE	33.40	29	39.05	31	0.3	100	0.3	144	0	976.1	NA	0.0000	-SN BR	2000	0	0	0	2790
2019/10/29 18:21:00	BASE	32.63	30	39.05	31	0.3	100	0.3	146	0	976.0	NA	0.0000	-SN BR	2000	0	0	0	2690
2019/10/29 18:22:00	BASE	33.31	31	39.05	31	0.3	100	0.3	149	0	976.1	NA	0.0000	-SN BR	2100	0	0	0	2760
2019/10/29 18:23:00	BASE	34.71	30	39.87	28	0.3	100	0.3	150	0	976.0	NA	0.0000	-SN BR	1600	0	0	0	2990
2019/10/29 18:24:00	BASE	36.08	29	39.97	29	0.3	100	0.3	149	0	976.0	NA	0.0000	-SN BR	1100	0	0	0	3250
2019/10/29 18:25:00	BASE	35.60	30	39.97	29	0.4	100	0.4	146	0	976.1	NA	0.0000	-SN BR	1700	0	0	0	2820
2019/10/29 18:26:00	BASE	34.32	30	39.97	29	0.4	100	0.4	143	0	976.2	NA	0.0000	-SN BR	0900	0	0	0	2360
2019/10/29 18:27:00	BASE	32.29	27	39.97	29	0.4	100	0.4	145	0	976.2	NA	0.0000	-SN BR	0900	0	0	0	2260
2019/10/29 18:28:00	BASE	31.41	26	39.97	29	0.4	100	0.4	147	0	976.1	NA	0.0000	-SN BR	1000	0	0	0	2170
2019/10/29 18:29:00	BASE	32.02	26	39.97	29	0.4	100	0.4	149	0	976.1	NA	0.0000	-SN BR	1000	0	0	0	2230
2019/10/29 18:30:00	BASE	31.90	26	39.97	29	0.4	100	0.4	152	0	976.1	NA	0.2540	-SN BR	1000	0	0	0	2070
2019/10/29 18:31:00	BASE	32.40	28	39.97	29	0.4	100	0.4	156	0	976.0	NA	0.0000	-SN BR	1000	0	0	0	1940
2019/10/29 18:32:00	BASE	34.26	31	39.97	29	0.4	100	0.4	159	0	976.0	NA	0.0000	-SN BR	1100	0	0	0	1970
2019/10/29 18:33:00	BASE	35.28	31	39.97	29	0.4	100	0.4	157	0	976.0	NA	0.0000	-SN BR	1500	0	0	0	2070
2019/10/29 18:34:00	BASE	34.36	30	39.66	26	0.4	100	0.4	151	0	976.0	NA	0.0000	UP BR	0800	0	0	0	2030
2019/10/29 18:35:00	BASE	34.93	31	39.77	26	0.4	100	0.4	146	0	975.9	NA	0.0000	UP BR	0900	0	0	0	1940
2019/10/29 18:36:00	BASE	35.21	30	39.77	26	0.4	100	0.4	145	0	975.9	NA	0.0000	UP BR	0800	0	0	0	1800
2019/10/29 18:37:00	BASE	35.28	30	42.65	25	0.4	100	0.4	144	0	975.8	NA	0.0000	-SN BR	1000	0	0	0	2100
2019/10/29 18:38:00	BASE	36.54	31	42.65	25	0.4	100	0.4	147	0	975.9	NA	0.2540	-SN BR	2000	0	0	0	1840
2019/10/29 18:39:00	BASE	36.17	31	42.65	25	0.5	100	0.5	149	0	976.0	NA	0.0000	-SN BR	1500	0	0	0	2950
2019/10/29 18:40:00	BASE	34.13	29	42.65	25	0.5	100	0.5	144	0	975.9	NA	0.0000	-SN BR	0900	0	0	0	3180
2019/10/29 18:41:00	BASE	32.33	26	42.65	25	0.5	100	0.5	141	0	975.9	NA	0.0000	-SN BR	1000	0	0	0	2300
2019/10/29 18:42:00	BASE	32.91	29	42.65	25	0.5	100	0.5	143	0	975.9	NA	0.0000	-SN BR	1000	0	0	0	2720
2019/10/29 18:43:00	BASE	34.03	30	42.65	25	0.5	100	0.5	143	0	976.0	NA	0.0000	-SN BR	0900	0	0	0	2690
2019/10/29 18:44:00	BASE	33.04	28	42.65	25	0.5	100	0.5	143	0	976.0	NA	0.0000	-SN BR	1000	0	0	0	1900
2019/10/29 18:45:00	BASE	31.98	27	42.65	25	0.5	100	0.5	146	0	976.0	NA	0.0000	-SN BR	1000	0	0	0	1940
2019/10/29 18:46:00	BASE	32.94	28	42.65	25	0.5	100	0.5	149	0	975.8	NA	0.0000	-SN BR	1200	0	0	0	2230
2019/10/29 18:47:00	BASE	36.17	28	44.81	31	0.5	100	0.5	152	0	975.8	NA	0.2540	-SN BR	1400	0	0	0	2720
2019/10/29 18:48:00	BASE	36.57	28	44.81	31	0.5	100	0.5	157	0	975.8	NA	0.0000	UP BR	0700	0	0	0	3610
2019/10/29 18:49:00	BASE	33.58	27	44.81	31	0.5	100	0.5	159	0	976.0	NA	0.0000	-SN BR	1000	20440	0	0	0
2019/10/29 18:50:00	BASE	32.82	28	44.81	31	0.5	100	0.5	161	0	975.9	NA	0.0000	-SN BR	2200	0	0	0	4040
2019/10/29 18:51:00	BASE	34.15	29	44.81	31	0.5	100	0.5	154	0	975.9	NA	0.0000	-SN BR	1700	0	0	0	3940
2019/10/29 18:52:00	BASE	35.45	30	44.81	31	0.5	100	0.5	143	0	975.7	NA	0.0000	-SN BR	0900	0	0	0	4000
2019/10/29 18:53:00	BASE	34.49	30	44.81	31	0.5	100	0.5	132	0	975.8	NA	0.0000	-SN BR	1000	0	0	0	2790
2019/10/29 18:54:00	BASE	33.90	27	44.81	31	0.5	100	0.5	125	0	975.9	NA	0.0000	-SN BR	1000	0	0	0	2460
2019/10/29 18:55:00	BASE	34.24	26	44.81	31	0.5	100	0.5	119	0	975.8	NA	0.0000	-SN BR	0900	0	0	0	2200
2019/10/29 18:56:00	BASE	34.85	26	44.81	31	0.5	100	0.5	114	0	975.7	NA	0.0000	-SN BR	1000	0	0	0	1610
2019/10/29 18:57:00	BASE	34.48	26	40.54	25	0.5	100	0.5	112	0	975.9	NA	0.2540	-SN BR	1900	0	0	0	1440
2019/10/29 18:58:00	BASE	33.11	27	40.54	25	0.4	100	0.4	113	0	975.9	NA	0.0000	-SN BR	1900	0	0	0	1510
2019/10/29 18:59:00	BASE	32.87	28	40.54	25	0.4	100	0.4	117	0	975.8	NA	0.0000	-SN BR	1200	0	0	0	1510
2019/10/29 19:00:00	BASE	32.84	27	40.54	25	0.4	100	0.4	124	0	975.8	NA	0.0000	-SN BR	0800	0	0	0	1440
2019/10/29 19:01:00	BASE	33.66	28	40.54	25	0.3	100	0.3	128	0	975.8	NA	0.0000	-SN BR	1600	0	0	0	1480
2019/10/29 19:02:00	BASE	36.08	28	40.54	25	0.3	100	0.3	129	0	975.6	NA	0.0000	-SN BR	0800	0	0	0	1440
2019/10/29 19:03:00	BASE	36.42	27	40.54	25	0.3	100	0.3	124	0	975.8	NA	0.0000	SN BR	0350	0	0	0	1280
2019/10/29 19:04:00	BASE	35.44	29	40.54	25	0.3	100	0.3	117	0	975.7	NA	0.0000	SN FG	0400	0	0	0	1350
2019/10/29 19:05:00	BASE	34.62	29	40.54	25	0.3	100	0.3	112	0	975.8	NA	0.0000	-SN FG	0550	0	0	0	1210
2019/10/29 19:06:00	BASE	34.94	30	39.97	26	0.3	100	0.3	107	0	975.7	NA	0.0000	-SN FG	0450	0	0	0	1310
2019/10/29 19:07:00	BASE	35.01	31	39.97	26	0.3	100	0.3	103	0	975.8	NA	0.0000	-SN FG	0500	0	0	0	1310
2019/10/29 19:08:00	BASE	33.75	31	39.97	26	0.3	100	0.3	102	0	975.7	NA	0.0000	-SN FG	0550	0	0	0	1210
2019/10/29 19:09:00	BASE	35.77	31	40.80	37	0.3	100	0.3	101	0	975.7	NA	0.0000	-SN FG	0500	0	0	0	1310
2019/10/29 19:10:00	BASE	36.75	30	42.13	31	0.3	100	0.3	102	0	975.7	NA	0.0000	UP FG	0400	0	0	0	1380
2019/10/29 19:11:00	BASE	36.09	30	42.13	31	0.3	100	0.3	105	0	975.8	NA	0.0000	UP FG	0350	0	0	0	1380
2019/10/29 19:12:00	BASE	35.33	33	42.13	31	0.3	100	0.3	106	0	975.8	NA	0.0000	UP FG	0400	0	0	0	1380
2019/10/29 19:13:00	BASE	35.29	32	42.13	31	0.3	100	0.3	108	0	975.7	NA	0.2540	SN FG	1200	0	0	0	1210
2019/10/29 19:14:00	BASE	35.52	29	42.13	31	0.3	100	0.3	112	0	975.9	NA	0.0000	SN FG	1100	0	0	0	1250
2019/10/29 19:15:00	BASE	34.63	28	42.13	31	0.3	100	0.3	110	0	975.8	NA	0.0000	SN FG	1000	0	0	0	1280
2019/10/29 19:16:00	BASE	34.00	28	42.13	31	0.3	100	0.3	111	0	975.7	NA	0.0000	SN FG	1300	0	0	0	1250
2019/10/29 19:17:00	BASE	34.32	30	42.13	31	0.3	100	0.3	112	0	975.7	NA	0.0000	SN FG	0800	0	0	0	1250
2019/10/29 19:18:00	BASE	35.43	33	42.13	31	0.3	100	0.3	113	0	975.7	NA	0.0000	SN FG	0400	0	0	0	1180
2019/10/29 19:19:00	BASE	36.28	31	42.13	31	0.3	100	0.3	113	0	975.7	NA	0.0000	SN FG	0450	0	0	0	1150
2019/10/29 19:20:00	BASE	35.54	32	41.00	32	0.3	100	0.3	112	0	975.8	NA	0.0000	-SN FG	0750	0	0	0	1250
2019/10/29 19:21:00	BASE	34.45	34	41.00	32	0.3	100	0.3	113	0	975.8	NA	0.0000	-SN FG	0300	0	0	0	1210
2019/10/29 19:22:00	BASE	35.15	32	40.54	32	0.3	100	0.3	115	0	975.8	NA	0.0000	-SN FG	0400	0	0	0	1180
2019/10/29 19:23:00	BASE	34.67	31	40.44	29	0.3	100	0.3	116	0	975.8	NA	0.0000	-SN FG	0400	0	0	0	1150
2019/10/29 19:24:00	BASE	35.28	31	40.44	29	0.3	100	0.3	113	0	975.8	NA	0.0000	-SN FG	0350	0	0	0	1080
2019/10/29 19:25:00	BASE	35.99	29	40.44	29	0.3	100	0.3	113	0	975.8	NA	0.0000	UP FG	0250	0	0	0	1180
2019/10/29 19:26:00	BASE	35.49	30	40.44	29	0.3	100	0.3	112	0	975.7	NA	0.0000	-RA FG	0350	0	0	0	1210
2019/10/29 19:27:00	BASE	36.41	32	40.44	29	0.3	100	0.3	108	0	975.6	NA	0.0000	-RA FG	1800	0	0	0	1250
2019/10/29 19:28:00	BASE	35.50	31	40.33	32	0.3	100	0.3	106	0	975.8	NA	0.0000	-RA FG	0700	0	0	0	1210
2019/10/29 19:29:00	BASE	34.95	31	40.33	32	0.3	100	0.3	104	0	975.8	NA	0.0000	UP FG	0250	0	0	0	1180
2019/10/29 19:30:00	BASE	34.64	31	40.33	32	0.3	100	0.3	103	0	975.8	NA	0.0000	UP FG	0300	0	0	0	1180
2019/10/29 19:31:00	BASE	33.95	30	40.33	32	0.3	100	0.3	104	0	975.8	NA	0.0000	UP FG	0300	0	0	0	1080
2019/10/29 19:32:00	BASE	34.49	29	40.33	32	0.3	100	0.3	103	0	975.8	NA	0.0000	-RA FG	0400	0	0	0	1050
2019/10/29 19:33:00	BASE	34.00	30	40.33	32	0.3	100	0.3	98	0	975.7	NA	0.0000	-SN FG	1500	0	0	0	1050
2019/10/29 19:34:00	BASE	33.35	29	40.18	35	0.3	100	0.3	95	0	975.7	NA	0.0000	-SN FG	0800	0	0	0	1050
2019/10/29 19:35:00	BASE	34.72	27	41.46	22	0.2	100	0.2	91	0	975.6	NA	0.0000	-SN FG	0500	0	0	0	1020
2019/10/29 19:36:00	BASE	35.31	29	41.46	22	0.2	100	0.2	88	0	975.7	NA	0.0000	-SN FG	2000	0	0	0	1080
2019/10/29 19:37:00	BASE	35.32	31	41.46	22	0.2	100	0.2	86	0	975.6	NA	0.0000	+RA FG	1400	0	0	0	1080
2019/10/29 19:38:00	BASE	36.16	32	42.13	33	0.2	100	0.2	83	0	975.7	NA	0.0000	+RA FG	1500	0	0	0	1120
2019/10/29 19:39:00	BASE	36.45	32	42.13	33	0.2	100	0.2	80	0	975.7	NA	0.0000	+RA FG	1500	0	0	0	1050
2019/10/29 19:40:00	BASE	35.42	32	42.13	33	0.2	100	0.2	79	0	975.8	NA	0.0000	+RA FG	2300	0	0	0	980
2019/10/29 19:41:00	BASE	33.44	30	42.13	33	0.2	100	0.2	78	0	975.8	NA	0.0000	+RA BR	1100	0	0	0	980
2019/10/29 19:42:00	BASE	31.57	29	42.13	33	0.2	100	0.2	77	0	975.8	NA	0.0000	+RA BR	0400	0	0	0	1020
2019/10/29 19:43:00	BASE	32.17	30	42.13	33	0.2	100	0.2	75	0	975.8	NA	0.0000	+RA BR	0750	0	0	0	1080
2019/10/29 19:44:00	BASE	34.40	31	42.13	33	0.2	100	0.2	74	0	975.6	NA	0.0000	+RA BR	1300	0	0	0	1080
2019/10/29 19:45:00	BASE	35.20	34	42.13	33	0.2	100	0.2	76	0	975.6	NA	0.2540	+RA BR	0600	0	0	0	1150
2019/10/29 19:46:00	BASE	36.48	36	42.13	33	0.2	100	0.2	76	0	975.6	NA	0.0000	+RA BR	2100	0	0	0	1280
2019/10/29 19:47:00	BASE	36.49	36	42.13	33	0.3	100	0.3	76	0	975.7	NA	0.0000	+RA BR	2300	0	0	0	1380
2019/10/29 19:48:00	BASE	33.82	34	41.93	38	0.3	100	0.3	78	0	975.8	NA	0.0000	+RA BR	3000	0	0	0	1150
2019/10/29 19:49:00	BASE	31.68	29	41.93	38	0.3	100	0.3	80	0	975.8	NA	0.0000	RA BR	4300	0	0	0	1150
2019/10/29 19:50:00	BASE	32.22	32	41.93	38	0.2	100	0.2	82	0	975.7	NA	0.0000	RA BR	5000	0	0	0	1350
2019/10/29 19:51:00	BASE	34.84	35	41.93	38	0.2	100	0.2	84	0	975.6	NA	0.0000	RA BR	1400	0	0	0	1540
2019/10/29 19:52:00	BASE	36.69	34	41.93	38	0.2	100	0.2	85	0	975.6	NA	0.0000	RA BR	0400	0	0	0	1610
2019/10/29 19:53:00	BASE	36.50	34	41.93	38	0.2	100	0.2	84	0	975.7	NA	0.0000	RA BR	0350	0	0	0	1570
2019/10/29 19:54:00	BASE	34.68	34	41.93	38	0.3	100	0.2	85	0	975.7	NA	0.0000	-RA FG	0350	0	0	0	1150
2019/10/29 19:55:00	BASE	33.86	34	41.05	36	0.3	100	0.3	86	0	975.8	NA	0.0000	-RA FG	0450	0	0	0	1080
2019/10/29 19:56:00	BASE	33.85	32	40.18	29	0.3	100	0.3	89	0	975.7	NA	0.0000	-RA FG	1000	0	0	0	1080
2019/10/29 19:57:00	BASE	32.90	31	40.18	29	0.3	100	0.3	91	0	975.7	NA	0.0000	-RA FG	0450	0	0	0	1050
2019/10/29 19:58:00	BASE	33.32	33	40.18	29	0.3	100	0.3	93	0	975.7	NA	0.0000	+RA FG	0700	0	0	0	1150
2019/10/29 19:59:00	BASE	33.64	34	40.18	29	0.2	100	0.2	94	0	975.7	NA	0.0000	+RA FG	2100	0	0	0	1150
2019/10/29 20:00:00	BASE	34.66	34	40.18	29	0.3	100	0.3	93	0	975.7	NA	0.0000	+RA FG	1900	0	0	0	1180
2019/10/29 20:01:00	BASE	35.56	32	40.18	29	0.3	100	0.3	91	0	975.6	NA	0.0000	+RA FG	2100	0	0	0	1180
2019/10/29 20:02:00	BASE	34.98	33	39.46	36	0.3	100	0.3	91	0	975.7	NA	0.0000	+RA FG	3000	0	0	0	1150
2019/10/29 20:03:00	BASE	33.71	32	39.46	36	0.3	100	0.3	91	0	975.7	NA	0.0000	+RA FG	2500	0	0	0	1080
2019/10/29 20:04:00	BASE	34.74	33	39.46	36	0.3	100	0.3	90	0	975.5	NA	0.0000	+RA BR	2500	0	0	0	1310
2019/10/29 20:05:00	BASE	35.78	36	39.46	36	0.3	100	0.3	90	0	975.6	NA	0.0000	+RA BR	2600	0	0	0	1210
2019/10/29 20:06:00	BASE	35.10	38	39.46	36	0.3	100	0.3	90	0	975.6	NA	0.0000	+RA BR	3400	0	0	0	1350
2019/10/29 20:07:00	BASE	35.34	37	39.56	36	0.4	100	0.4	92	0	975.6	NA	0.0000	+RA BR	3000	0	0	0	1380
2019/10/29 20:08:00	BASE	33.10	35	39.56	36	0.4	100	0.4	94	0	975.8	NA	0.0000	+RA BR	2400	0	0	0	1350
2019/10/29 20:09:00	BASE	32.31	34	39.56	36	0.4	100	0.4	97	0	975.9	NA	0.0000	+RA BR	3200	0	0	0	1670
2019/10/29 20:10:00	BASE	32.64	32	39.56	36	0.4	100	0.4	99	0	975.9	NA	0.0000	+RA BR	1800	0	0	0	1510
2019/10/29 20:11:00	BASE	30.90	31	39.56	36	0.4	100	0.4	96	0	975.9	NA	0.0000	+RA BR	0550	0	0	0	1510
2019/10/29 20:12:00	BASE	30.53	30	39.56	36	0.4	100	0.4	90	0	975.9	NA	0.0000	+RA BR	0700	0	0	0	1440
2019/10/29 20:13:00	BASE	32.36	31	39.56	36	0.4	100	0.4	84	0	975.8	NA	0.0000	-RA BR	0500	0	0	0	1350
2019/10/29 20:14:00	BASE	33.44	32	39.56	36	0.4	100	0.4	83	0	975.8	NA	0.0000	-RA BR	0400	0	0	0	1350
2019/10/29 20:15:00	BASE	32.47	29	39.56	36	0.4	100	0.4	80	0	975.8	NA	0.0000	-RA FG	0500	0	0	0	1350
2019/10/29 20:16:00	BASE	32.57	30	39.56	36	0.4	100	0.4	76	0	975.8	NA	0.0000	-RA FG	0450	0	0	0	1410
2019/10/29 20:17:00	BASE	33.59	33	37.86	35	0.5	100	0.5	74	0	975.8	NA	0.0000	+SN FG	0600	0	0	0	1280
2019/10/29 20:18:00	BASE	33.72	31	37.86	35	0.5	100	0.5	75	0	975.9	NA	0.0000	+SN FG	0900	0	0	0	1280
2019/10/29 20:19:00	BASE	31.82	30	37.86	35	0.5	100	0.5	75	0	976.1	NA	0.0000	+SN FG	1000	0	0	0	1380
2019/10/29 20:20:00	BASE	29.12	28	37.86	35	0.5	100	0.5	73	0	976.1	NA	0.0000	+SN FG	0900	0	0	0	1310
2019/10/29 20:21:00	BASE	29.11	27	37.86	35	0.5	100	0.5	70	0	976.0	NA	0.0000	+SN FG	0800	0	0	0	1210
2019/10/29 20:22:00	BASE	29.79	26	37.86	35	0.5	100	0.5	66	0	976.0	NA	0.0000	+SN FG	0600	0	0	0	1080
2019/10/29 20:23:00	BASE	28.89	26	37.86	35	0.5	100	0.5	63	0	976.0	NA	0.0000	+SN FG	0650	0	0	0	1180
2019/10/29 20:24:00	BASE	29.02	30	37.04	29	0.5	100	0.5	59	0	975.9	NA	0.0000	+SN FG	0750	0	0	0	1280
2019/10/29 20:25:00	BASE	30.84	29	37.04	29	0.5	100	0.5	57	0	975.9	NA	0.0000	SN FG	0650	0	0	0	1280
2019/10/29 20:26:00	BASE	31.09	27	37.04	29	0.5	100	0.5	54	0	975.9	NA	0.0000	SN FG	0700	0	0	0	1250
2019/10/29 20:27:00	BASE	29.09	28	37.04	29	0.5	100	0.5	52	0	976.0	NA	0.0000	SN FG	0700	0	0	0	1210
2019/10/29 20:28:00	BASE	28.45	28	36.83	20	0.5	100	0.5	52	0	975.9	NA	0.0000	SN FG	0750	0	0	0	1310
2019/10/29 20:29:00	BASE	29.70	29	36.83	20	0.5	100	0.5	52	0	975.9	NA	0.0000	SN FG	0750	0	0	0	1480
2019/10/29 20:30:00	BASE	31.10	28	36.83	20	0.5	100	0.5	52	0	975.9	NA	0.0000	SN FG	0750	0	0	0	1510
2019/10/29 20:31:00	BASE	30.85	28	36.83	20	0.5	100	0.5	51	0	975.9	NA	0.0000	SN FG	0800	0	0	0	1570
2019/10/29 20:32:00	BASE	29.34	29	36.83	20	0.5	100	0.5	49	0	976.0	NA	0.0000	SN FG	0700	0	0	0	1510
2019/10/29 20:33:00	BASE	28.91	29	36.83	20	0.6	100	0.6	49	0	976.0	NA	0.0000	SN FG	0800	0	0	0	1540
2019/10/29 20:34:00	BASE	28.45	29	36.83	20	0.6	100	0.6	49	0	976.0	NA	0.0000	SN FG	0900	0	0	0	1570
2019/10/29 20:35:00	BASE	29.36	28	34.52	27	0.6	100	0.6	48	0	976.0	NA	0.0000	SN FG	0700	0	0	0	1440
2019/10/29 20:36:00	BASE	29.82	27	34.52	27	0.6	100	0.6	47	0	975.9	NA	0.0000	SN FG	0900	0	0	0	1570
2019/10/29 20:37:00	BASE	28.22	27	34.52	27	0.6	100	0.6	46	0	976.0	NA	0.2540	SN FG	1100	0	0	0	1510
2019/10/29 20:38:00	BASE	29.03	27	34.52	27	0.6	100	0.6	47	0	976.0	NA	0.0000	SN FG	1100	0	0	0	1440
2019/10/29 20:39:00	BASE	29.92	25	34.52	27	0.6	100	0.6	48	0	975.9	NA	0.0000	SN FG	1000	0	0	0	1380
2019/10/29 20:40:00	BASE	28.63	24	34.21	20	0.6	100	0.6	48	0	976.1	NA	0.0000	SN BR	1100	0	0	0	1480
2019/10/29 20:41:00	BASE	28.27	26	34.21	20	0.6	100	0.6	48	0	976.0	NA	0.0000	SN BR	0900	0	0	0	1440
2019/10/29 20:42:00	BASE	28.64	27	34.21	20	0.7	100	0.7	47	0	976.0	NA	0.0000	SN BR	1200	0	0	0	1440
2019/10/29 20:43:00	BASE	28.40	25	34.21	20	0.6	100	0.6	46	0	976.0	NA	0.0000	SN BR	1400	0	0	0	1440
2019/10/29 20:44:00	BASE	27.40	23	34.21	20	0.6	100	0.6	45	0	976.1	NA	0.0000	SN BR	1300	0	0	0	1380
2019/10/29 20:45:00	BASE	28.14	22	34.21	20	0.6	100	0.6	44	0	976.0	NA	0.0000	-SN BR	1100	0	0	0	1350
2019/10/29 20:46:00	BASE	29.64	23	33.54	27	0.6	100	0.6	45	0	976.0	NA	0.0000	-SN BR	1200	0	0	0	1310
2019/10/29 20:47:00	BASE	29.86	22	33.54	27	0.6	100	0.6	45	0	976.0	NA	0.0000	-SN BR	1100	0	0	0	1410
2019/10/29 20:48:00	BASE	29.83	19	33.44	29	0.6	100	0.6	45	0	976.0	NA	0.0000	-SN BR	0900	0	0	0	1350
2019/10/29 20:49:00	BASE	27.69	21	33.44	29	0.6	100	0.6	45	0	976.2	NA	0.0000	-SN BR	1000	0	0	0	1380
2019/10/29 20:50:00	BASE	26.71	23	33.44	29	0.6	100	0.6	44	0	976.1	NA	0.0000	SN BR	0650	0	0	0	1310
2019/10/29 20:51:00	BASE	27.92	23	33.44	29	0.6	100	0.6	44	0	976.1	NA	0.0000	+SN BR	0750	0	0	0	1310
2019/10/29 20:52:00	BASE	28.27	24	33.44	29	0.6	100	0.6	43	0	976.0	NA	0.0000	+SN BR	0600	0	0	0	1280
2019/10/29 20:53:00	BASE	26.85	23	33.44	29	0.6	100	0.6	42	0	976.1	NA	0.0000	+SN BR	0900	0	0	0	1310
2019/10/29 20:54:00	BASE	26.14	25	33.44	29	0.6	100	0.6	41	0	976.1	NA	0.0000	SN FG	0600	0	0	0	1310
2019/10/29 20:55:00	BASE	27.55	24	33.44	29	0.6	100	0.6	40	0	976.1	NA	0.0000	SN FG	0550	0	0	0	1250
2019/10/29 20:56:00	BASE	27.48	21	33.44	29	0.6	100	0.6	38	0	976.1	NA	0.0000	SN FG	0650	0	0	0	1210
2019/10/29 20:57:00	BASE	28.18	22	32.46	25	0.6	100	0.6	38	0	976.1	NA	0.0000	SN FG	0800	0	0	0	1150
2019/10/29 20:58:00	BASE	27.72	22	32.00	32	0.6	100	0.6	38	0	976.2	NA	0.2540	SN FG	0600	0	0	0	1210
2019/10/29 20:59:00	BASE	26.05	22	32.00	32	0.6	100	0.6	38	0	976.2	NA	0.0000	+SN FG	0600	0	0	0	1250
2019/10/29 21:00:00	BASE	26.12	25	32.00	32	0.6	100	0.6	40	0	976.2	NA	0.0000	+SN FG	0600	0	0	0	1350
2019/10/29 21:01:00	BASE	26.27	25	31.90	27	0.6	100	0.6	41	0	976.1	NA	0.0000	+SN FG	0600	0	0	0	1670
2019/10/29 21:02:00	BASE	27.52	23	31.64	20	0.6	100	0.6	42	0	976.1	NA	0.0000	+SN FG	0650	0	0	0	1570
2019/10/29 21:03:00	BASE	27.66	22	31.64	20	0.6	100	0.6	42	0	976.2	NA	0.0000	+SN FG	0900	0	0	0	1540
2019/10/29 21:04:00	BASE	27.70	24	31.64	20	0.6	100	0.6	42	0	976.2	NA	0.0000	+SN FG	0900	0	0	0	1510
2019/10/29 21:05:00	BASE	28.49	23	31.64	20	0.6	100	0.6	39	0	976.1	NA	0.0000	SN FG	1000	0	0	0	1440
2019/10/29 21:06:00	BASE	26.82	22	31.64	20	0.7	100	0.7	37	0	976.3	NA	0.0000	SN FG	1100	0	0	0	1380
2019/10/29 21:07:00	BASE	26.46	22	30.76	21	0.7	100	0.7	34	0	976.2	NA	0.0000	SN FG	1100	0	0	0	1210
2019/10/29 21:08:00	BASE	26.74	21	30.76	21	0.7	100	0.7	32	0	976.3	NA	0.0000	SN FG	1200	0	0	0	1120
2019/10/29 21:09:00	BASE	25.81	21	30.76	21	0.6	100	0.6	30	0	976.3	NA	0.0000	SN FG	1100	0	0	0	1080
2019/10/29 21:10:00	BASE	26.15	20	30.76	21	0.6	100	0.6	30	0	976.3	NA	0.0000	SN BR	0900	0	0	0	1080
2019/10/29 21:11:00	BASE	26.05	19	30.76	21	0.6	100	0.6	29	0	976.3	NA	0.2540	SN BR	0900	0	0	0	1120
2019/10/29 21:12:00	BASE	25.10	20	30.76	21	0.6	100	0.6	28	0	976.4	NA	0.0000	+SN BR	0900	0	0	0	1350
2019/10/29 21:13:00	BASE	24.55	23	30.76	21	0.6	100	0.6	28	0	976.4	NA	0.0000	+SN BR	0700	0	0	0	1410
2019/10/29 21:14:00	BASE	24.80	24	30.76	21	0.6	100	0.6	27	0	976.4	NA	0.0000	+SN BR	0650	0	0	0	1570
2019/10/29 21:15:00	BASE	24.36	22	30.04	22	0.6	100	0.6	27	0	976.4	NA	0.0000	+SN BR	0800	0	0	0	1570
2019/10/29 21:16:00	BASE	24.55	21	30.04	22	0.6	100	0.6	26	0	976.4	NA	0.0000	SN BR	1200	0	0	0	1540
2019/10/29 21:17:00	BASE	25.77	20	28.91	22	0.6	100	0.6	26	0	976.3	NA	0.0000	SN BR	1200	0	0	0	1510
2019/10/29 21:18:00	BASE	26.72	22	29.58	30	0.6	100	0.6	26	0	976.3	NA	0.0000	SN BR	1300	0	0	0	1410
2019/10/29 21:19:00	BASE	26.91	22	29.73	18	0.6	100	0.6	26	0	976.3	NA	0.0000	SN BR	1300	0	0	0	1480
2019/10/29 21:20:00	BASE	25.68	20	29.73	18	0.6	100	0.6	27	0	976.4	NA	0.0000	SN BR	1400	0	0	0	1480
2019/10/29 21:21:00	BASE	24.29	22	29.73	18	0.6	100	0.6	26	0	976.5	NA	0.0000	SN BR	1300	0	0	0	1540
2019/10/29 21:22:00	BASE	24.27	22	29.73	18	0.6	100	0.6	26	0	976.5	NA	0.0000	SN BR	1300	0	0	0	1440
2019/10/29 21:23:00	BASE	24.36	20	29.73	18	0.6	100	0.6	27	0	976.4	NA	0.0000	-SN BR	1100	0	0	0	1410
2019/10/29 21:24:00	BASE	23.15	20	29.73	18	0.6	100	0.6	28	0	976.5	NA	0.0000	-SN BR	1100	0	0	0	1510
2019/10/29 21:25:00	BASE	22.99	21	29.73	18	0.6	100	0.6	28	0	976.5	NA	0.0000	-SN BR	1300	0	0	0	1640
2019/10/29 21:26:00	BASE	24.55	21	29.73	18	0.6	100	0.6	27	0	976.4	NA	0.2540	-SN BR	1400	0	0	0	1740
2019/10/29 21:27:00	BASE	24.48	19	29.73	18	0.6	100	0.6	27	0	976.5	NA	0.0000	-SN BR	1200	0	0	0	1710
2019/10/29 21:28:00	BASE	22.36	16	29.73	18	0.6	100	0.6	26	0	976.5	NA	0.0000	-SN BR	1600	0	0	0	1640
2019/10/29 21:29:00	BASE	21.59	16	27.16	27	0.6	100	0.6	26	0	976.6	NA	0.0000	-SN BR	1700	0	0	0	1540
2019/10/29 21:30:00	BASE	22.57	19	27.01	24	0.6	100	0.6	26	0	976.5	NA	0.0000	-SN BR	1200	0	0	0	1770
2019/10/29 21:31:00	BASE	23.95	19	27.01	24	0.6	100	0.6	26	0	976.5	NA	0.0000	-SN BR	1200	0	0	0	1800
2019/10/29 21:32:00	BASE	24.00	18	27.01	24	0.6	100	0.6	25	0	976.5	NA	0.0000	-SN BR	1200	0	0	0	1900
2019/10/29 21:33:00	BASE	23.40	17	27.01	24	0.6	100	0.6	25	0	976.5	NA	0.0000	-SN BR	1400	0	0	0	1770
2019/10/29 21:34:00	BASE	24.10	17	27.01	24	0.6	100	0.6	26	0	976.5	NA	0.0000	-SN BR	1500	0	0	0	1670
2019/10/29 21:35:00	BASE	23.27	14	27.01	24	0.6	100	0.6	27	0	976.5	NA	0.0000	-SN BR	1100	0	0	0	1900
2019/10/29 21:36:00	BASE	21.44	14	26.24	15	0.6	100	0.6	27	0	976.6	NA	0.0000	-SN BR	2100	0	0	0	2000
2019/10/29 21:37:00	BASE	22.66	16	27.27	13	0.6	100	0.6	28	0	976.4	NA	0.0000	-SN BR	1700	0	0	0	1970
2019/10/29 21:38:00	BASE	23.37	14	27.27	13	0.6	100	0.6	28	0	976.5	NA	0.0000	-SN BR	1700	0	0	0	2030
2019/10/29 21:39:01	BASE	23.22	15	27.27	13	0.7	100	0.7	27	0	976.5	NA	0.0000	-SN BR	1800	0	0	0	2070
2019/10/29 21:40:01	BASE	24.09	15	27.27	13	0.7	100	0.7	27	0	976.4	NA	0.0000	-SN BR	2000	0	0	0	2030
2019/10/29 21:41:01	BASE	24.73	15	29.48	17	0.7	100	0.7	26	0	976.3	NA	0.0000	-SN BR	2000	0	0	0	2000
2019/10/29 21:42:01	BASE	24.81	12	29.48	17	0.7	100	0.7	26	0	976.4	NA	0.0000	-SN BR	2200	0	0	0	1800
2019/10/29 21:43:01	BASE	23.59	11	29.48	17	0.8	100	0.8	26	0	976.4	NA	0.0000	-SN BR	2600	0	0	0	1800
2019/10/29 21:44:01	BASE	23.88	14	29.48	17	0.8	100	0.8	26	0	976.4	NA	0.0000	-SN BR	2300	0	0	0	1710
2019/10/29 21:45:01	BASE	23.97	18	29.48	17	0.8	100	0.8	25	0	976.5	NA	0.0000	-SN BR	1600	0	0	0	1610
2019/10/29 21:46:01	BASE	22.75	16	29.48	17	0.8	100	0.8	26	0	976.5	NA	0.0000	-SN BR	1600	0	0	0	1610
2019/10/29 21:47:01	BASE	23.52	14	29.48	17	0.8	100	0.8	25	0	976.4	NA	0.0000	-SN BR	1600	0	0	0	1710
2019/10/29 21:48:01	BASE	23.42	13	29.48	17	0.8	100	0.8	25	0	976.5	NA	0.0000	-SN BR	1300	0	0	0	1540
2019/10/29 21:49:01	BASE	22.49	12	29.48	17	0.8	100	0.8	24	0	976.5	NA	0.0000	-SN BR	1800	0	0	0	1540
2019/10/29 21:50:01	BASE	23.14	11	29.48	17	0.8	100	0.8	23	0	976.5	NA	0.0000	-SN BR	2000	0	0	0	1610
2019/10/29 21:51:00	BASE	23.43	11	27.52	11	0.8	100	0.8	23	0	976.5	NA	0.0000	-SN BR	2000	0	0	0	1740
2019/10/29 21:52:00	BASE	23.54	10	27.52	11	0.8	100	0.8	22	0	976.5	NA	0.0000	-SN BR	2100	0	0	0	1610
2019/10/29 21:53:00	BASE	23.83	8	27.52	11	0.8	100	0.8	21	0	976.5	NA	0.0000	-SN BR	4300	0	0	0	1540
2019/10/29 21:54:00	BASE	23.48	11	25.72	11	0.8	100	0.8	20	0	976.5	NA	0.0000	-SN BR	2300	0	0	0	1480
2019/10/29 21:55:00	BASE	23.39	12	25.72	11	0.8	100	0.8	20	0	976.5	NA	0.2540	-SN BR	2000	0	0	0	1640
2019/10/29 21:56:00	BASE	23.54	11	25.77	16	0.8	100	0.8	19	0	976.5	NA	0.0000	-SN BR	1900	0	0	0	1540
2019/10/29 21:57:00	BASE	23.09	12	25.77	16	0.8	100	0.8	19	0	976.6	NA	0.0000	-SN BR	2300	0	0	0	1610
2019/10/29 21:58:00	BASE	22.68	13	25.77	16	0.8	100	0.8	18	0	976.6	NA	0.0000	-SN BR	2200	0	0	0	1540
2019/10/29 21:59:00	BASE	22.53	13	25.77	16	0.8	100	0.8	18	0	976.6	NA	0.0000	-SN BR	1900	0	0	0	1380
2019/10/29 22:00:00	BASE	23.21	11	25.77	16	0.7	100	0.7	17	0	976.5	NA	0.0000	-SN BR	1800	0	0	0	1280
2019/10/29 22:01:00	BASE	23.84	8	26.34	4	0.7	100	0.7	18	0	976.5	NA	0.0000	-SN BR	2000	0	0	0	1250
2019/10/29 22:02:00	BASE	23.68	8	26.34	4	0.7	100	0.7	17	0	976.6	NA	0.0000	-SN BR	4300	0	0	0	1350
2019/10/29 22:03:00	BASE	24.36	11	26.34	14	0.7	100	0.7	17	0	976.6	NA	0.0000	-SN BR	2000	0	0	0	1380
2019/10/29 22:04:00	BASE	24.06	12	26.34	14	0.6	100	0.6	16	0	976.6	NA	0.0000	-SN BR	1600	0	0	0	1410
2019/10/29 22:05:00	BASE	23.82	12	26.34	14	0.6	100	0.6	16	0	976.6	NA	0.0000	-SN BR	2100	0	0	0	1380
2019/10/29 22:06:00	BASE	23.48	11	26.34	14	0.6	100	0.6	15	0	976.6	NA	0.0000	-SN BR	1500	0	0	0	1310
2019/10/29 22:07:00	BASE	23.12	12	26.34	14	0.6	100	0.6	15	0	976.6	NA	0.0000	-SN BR	1900	0	0	0	1280
2019/10/29 22:08:00	BASE	24.24	13	26.34	15	0.6	100	0.6	14	0	976.6	NA	0.0000	-SN BR	1300	0	0	0	1280
2019/10/29 22:09:00	BASE	23.76	15	26.65	17	0.6	100	0.6	15	0	976.7	NA	0.0000	-SN BR	1100	0	0	0	1280
2019/10/29 22:10:00	BASE	23.77	15	27.37	10	0.6	100	0.6	15	0	976.6	NA	0.0000	-SN BR	1200	0	0	0	1310
2019/10/29 22:11:00	BASE	23.76	10	27.37	10	0.6	100	0.6	15	0	976.7	NA	0.0000	-SN BR	1300	0	0	0	1280
2019/10/29 22:12:00	BASE	22.78	8	27.37	10	0.6	100	0.6	15	0	976.7	NA	0.0000	-SN BR	2100	0	0	0	1350
2019/10/29 22:13:00	BASE	23.02	12	27.37	10	0.6	100	0.6	14	0	976.7	NA	0.0000	-SN BR	1800	0	0	0	1350
2019/10/29 22:14:00	BASE	22.27	15	27.37	10	0.6	100	0.6	14	0	976.8	NA	0.0000	-SN BR	1200	0	0	0	1310
2019/10/29 22:15:00	BASE	21.80	14	27.37	10	0.6	100	0.6	13	0	976.7	NA	0.0000	-SN BR	1200	0	0	0	1350
2019/10/29 22:16:00	BASE	22.49	12	27.37	10	0.5	100	0.5	13	0	976.7	NA	0.0000	-SN BR	1600	0	0	0	1280
2019/10/29 22:17:00	BASE	23.47	12	27.37	10	0.5	100	0.5	13	0	976.7	NA	0.0000	-SN BR	1600	0	0	0	1250
2019/10/29 22:18:00	BASE	23.65	13	27.37	10	0.5	100	0.5	12	0	976.7	NA	0.0000	-SN BR	1300	0	0	0	1250
2019/10/29 22:19:00	BASE	22.44	13	27.37	10	0.5	100	0.5	12	0	976.8	NA	0.0000	-SN BR	1400	0	0	0	1250
2019/10/29 22:20:00	BASE	21.96	13	27.21	19	0.5	100	0.5	12	0	976.8	NA	0.0000	-SN BR	1400	0	0	0	1280
2019/10/29 22:21:00	BASE	22.34	12	27.21	19	0.5	100	0.5	12	0	976.8	NA	0.0000	-SN BR	1700	0	0	0	1310
2019/10/29 22:22:00	BASE	23.18	12	27.21	19	0.5	100	0.5	12	0	976.7	NA	0.0000	-SN BR	1700	0	0	0	1180
2019/10/29 22:23:00	BASE	23.46	14	27.21	19	0.5	100	0.5	12	0	976.7	NA	0.0000	-SN BR	1500	0	0	0	1180
2019/10/29 22:24:00	BASE	23.05	15	27.21	19	0.5	100	0.5	12	0	976.8	NA	0.0000	-SN BR	1300	0	0	0	1250
2019/10/29 22:25:00	BASE	23.36	12	27.21	19	0.5	100	0.5	12	0	976.7	NA	0.0000	-SN BR	1400	0	0	0	1180
2019/10/29 22:26:00	BASE	23.40	10	27.21	19	0.5	100	0.5	12	0	976.7	NA	0.0000	-SN BR	1300	0	0	0	1180
2019/10/29 22:27:00	BASE	23.65	10	25.77	13	0.5	100	0.5	12	0	976.6	NA	0.0000	-SN BR	2100	0	0	0	1150
2019/10/29 22:28:00	BASE	22.98	10	25.77	13	0.5	100	0.5	12	0	976.8	NA	0.0000	-SN BR	1600	0	0	0	1150
2019/10/29 22:29:00	BASE	22.34	10	25.77	13	0.5	100	0.5	12	0	976.8	NA	0.0000	-SN BR	1500	0	0	0	1180
2019/10/29 22:30:00	BASE	23.11	11	25.77	13	0.5	100	0.5	12	0	976.8	NA	0.2540	-SN BR	1600	0	0	0	1150
2019/10/29 22:31:00	BASE	22.56	11	25.77	13	0.5	100	0.5	12	0	976.9	NA	0.0000	-SN BR	1800	0	0	0	1050
2019/10/29 22:32:00	BASE	21.78	11	25.77	13	0.5	100	0.5	11	0	976.8	NA	0.0000	-SN BR	1700	0	0	0	1180
2019/10/29 22:33:00	BASE	22.13	11	25.77	13	0.5	100	0.5	11	0	976.9	NA	0.0000	-SN BR	1700	0	0	0	1180
2019/10/29 22:34:00	BASE	21.98	11	25.77	13	0.5	100	0.5	11	0	976.9	NA	0.0000	-SN BR	1200	0	0	0	1280
2019/10/29 22:35:00	BASE	22.16	12	25.77	13	0.5	100	0.5	10	0	976.9	NA	0.0000	-SN BR	1300	0	0	0	1280
2019/10/29 22:36:00	BASE	21.97	13	25.77	13	0.5	100	0.5	10	0	976.9	NA	0.0000	-SN BR	1200	0	0	0	1380
2019/10/29 22:37:00	BASE	20.47	12	25.31	13	0.5	100	0.5	10	0	977.0	NA	0.0000	-SN BR	1100	0	0	0	1410
2019/10/29 22:38:00	BASE	20.78	12	25.31	13	0.5	100	0.5	10	0	976.9	NA	0.0000	-SN BR	2000	0	0	0	1440
2019/10/29 22:39:00	BASE	21.63	11	25.05	5	0.5	100	0.5	10	0	976.9	NA	0.0000	-SN BR	1600	0	0	0	1510
2019/10/29 22:40:00	BASE	22.96	10	26.70	16	0.5	100	0.5	10	0	976.8	NA	0.0000	-SN BR	1700	0	0	0	1480
2019/10/29 22:41:00	BASE	23.72	11	26.70	16	0.5	100	0.5	10	0	976.8	NA	0.0000	-SN BR	1500	0	0	0	1570
2019/10/29 22:42:00	BASE	22.92	9	26.70	16	0.5	100	0.5	10	0	976.9	NA	0.0000	-SN BR	2200	0	0	0	1610
2019/10/29 22:43:00	BASE	21.87	9	26.70	16	0.5	100	0.5	10	0	976.9	NA	0.0000	-SN BR	2100	0	0	0	1710
2019/10/29 22:44:00	BASE	22.15	11	26.70	16	0.6	100	0.6	10	0	976.9	NA	0.0000	-SN BR	1600	0	0	0	1710
2019/10/29 22:45:00	BASE	22.31	9	26.70	16	0.6	100	0.6	9	0	977.0	NA	0.0000	-SN BR	1500	0	0	0	1740
2019/10/29 22:46:00	BASE	20.87	7	26.70	16	0.6	100	0.6	9	0	977.0	NA	0.0000	-SN BR	7000	0	0	0	1670
2019/10/29 22:47:00	BASE	21.08	7	26.70	16	0.6	100	0.6	8	0	977.0	NA	0.0000	-SN BR	3400	0	0	0	1710
2019/10/29 22:48:00	BASE	22.56	7	26.70	16	0.6	100	0.6	8	0	976.9	NA	0.0000	-SN BR	1900	0	0	0	1670
2019/10/29 22:49:00	BASE	22.09	8	26.70	16	0.6	100	0.6	8	0	977.0	NA	0.0000	-SN BR	2800	0	0	0	1710
2019/10/29 22:50:00	BASE	21.11	8	25.77	4	0.6	100	0.6	8	0	977.1	NA	0.0000	-SN BR	1900	0	0	0	1770
2019/10/29 22:51:00	BASE	20.97	8	25.77	4	0.6	100	0.6	7	0	977.1	NA	0.0000	-SN BR	1700	0	0	0	1800
2019/10/29 22:52:00	BASE	21.18	8	25.77	4	0.6	100	0.6	7	0	977.1	NA	0.0000	-SN BR	1800	0	0	0	1640
2019/10/29 22:53:00	BASE	21.49	11	25.77	4	0.6	100	0.6	7	0	977.1	NA	0.0000	-SN BR	2000	0	0	0	1740
2019/10/29 22:54:00	BASE	21.75	15	25.77	4	0.6	100	0.6	7	0	977.1	NA	0.0000	-SN BR	1400	0	0	0	1770
2019/10/29 22:55:00	BASE	21.44	13	25.77	4	0.6	100	0.6	6	0	977.1	NA	0.0000	-SN BR	1100	0	0	0	1710
2019/10/29 22:56:00	BASE	21.21	10	25.77	4	0.6	100	0.6	6	0	977.2	NA	0.0000	-SN BR	1900	0	0	0	1610
2019/10/29 22:57:00	BASE	21.70	10	25.77	4	0.6	100	0.6	6	0	977.1	NA	0.0000	-SN BR	1500	0	0	0	1570
2019/10/29 22:58:00	BASE	20.63	11	23.77	9	0.6	100	0.6	6	0	977.2	NA	0.0000	-SN BR	2300	0	0	0	1670
2019/10/29 22:59:00	BASE	20.20	10	23.77	9	0.6	100	0.6	6	0	977.2	NA	0.0000	-SN BR	2200	0	0	0	1670
2019/10/29 23:00:00	BASE	20.32	10	23.72	17	0.6	100	0.6	6	0	977.3	NA	0.0000	-SN BR	1800	0	0	0	1740
2019/10/29 23:01:00	BASE	21.06	12	23.72	17	0.6	100	0.6	6	0	977.2	NA	0.0000	-SN BR	1900	0	0	0	1740
2019/10/29 23:02:00	BASE	21.85	14	24.08	15	0.6	100	0.6	6	0	977.3	NA	0.0000	-SN BR	1300	0	0	0	1540
2019/10/29 23:03:00	BASE	21.26	12	24.08	15	0.6	100	0.6	5	0	977.3	NA	0.0000	-SN BR	1300	0	0	0	1610
2019/10/29 23:04:00	BASE	21.33	8	24.08	15	0.6	100	0.6	5	0	977.2	NA	0.0000	-SN BR	1400	0	0	0	1640
2019/10/29 23:05:00	BASE	21.47	7	24.08	15	0.6	100	0.6	5	0	977.2	NA	0.0000	-SN BR	2000	0	0	0	1640
2019/10/29 23:06:00	BASE	21.61	7	24.08	15	0.6	100	0.6	5	0	977.3	NA	0.0000	-SN BR	3600	0	0	0	1510
2019/10/29 23:07:00	BASE	21.47	8	24.08	15	0.6	100	0.6	5	0	977.3	NA	0.0000	-SN BR	4100	0	0	0	1510
2019/10/29 23:08:00	BASE	20.52	10	24.08	15	0.6	100	0.6	5	0	977.4	NA	0.0000	-SN BR	2200	0	0	0	1510
2019/10/29 23:09:00	BASE	19.65	9	24.08	15	0.6	100	0.6	5	0	977.4	NA	0.0000	-SN BR	1900	0	0	0	1670
2019/10/29 23:10:00	BASE	20.21	7	24.08	15	0.6	100	0.6	5	0	977.3	NA	0.2540	-SN BR	2300	0	0	0	1710
2019/10/29 23:11:00	BASE	20.87	7	24.08	15	0.6	100	0.6	5	0	977.4	NA	0.0000	-SN BR	2100	0	0	0	1770
2019/10/29 23:12:00	BASE	20.32	9	23.72	6	0.6	100	0.6	4	0	977.4	NA	0.0000	-SN BR	2400	0	0	0	1770
2019/10/29 23:13:00	BASE	20.56	10	23.72	6	0.6	100	0.6	4	0	977.4	NA	0.0000	-SN BR	1700	0	0	0	1800
2019/10/29 23:14:00	BASE	21.28	9	23.72	6	0.6	100	0.6	4	0	977.4	NA	0.0000	-SN BR	1400	0	0	0	1840
2019/10/29 23:15:00	BASE	20.94	10	23.20	6	0.6	100	0.6	4	0	977.4	NA	0.0000	-SN BR	1500	0	0	0	1900
2019/10/29 23:16:00	BASE	20.95	10	23.20	6	0.6	100	0.6	4	0	977.4	NA	0.0000	-SN BR	1400	0	0	0	1870
2019/10/29 23:17:00	BASE	20.58	9	23.20	6	0.6	100	0.6	4	0	977.4	NA	0.0000	-SN BR	2200	0	0	0	1870
2019/10/29 23:18:00	BASE	20.04	13	23.20	6	0.6	100	0.6	4	0	977.5	NA	0.0000	-SN BR	2400	0	0	0	1870
2019/10/29 23:19:00	BASE	20.61	13	23.20	6	0.6	100	0.6	4	0	977.5	NA	0.0000	-SN BR	1700	0	0	0	1870
2019/10/29 23:20:00	BASE	20.23	13	23.20	6	0.6	100	0.6	4	0	977.5	NA	0.0000	-SN BR	2000	0	0	0	1900
2019/10/29 23:21:00	BASE	19.54	12	23.20	6	0.6	100	0.6	3	0	977.6	NA	0.0000	-SN BR	1900	0	0	0	1840
2019/10/29 23:22:00	BASE	19.78	10	23.20	6	0.6	100	0.6	3	0	977.5	NA	0.0000	-SN BR	1800	0	0	0	1900
2019/10/29 23:23:00	BASE	20.15	10	23.20	6	0.6	100	0.6	3	0	977.6	NA	0.0000	-SN BR	2300	0	0	0	1940
2019/10/29 23:24:00	BASE	20.19	10	23.10	360	0.6	100	0.6	3	0	977.6	NA	0.0000	-SN BR	2300	0	0	0	1940
2019/10/29 23:25:00	BASE	20.46	11	23.10	360	0.6	100	0.6	3	0	977.5	NA	0.0000	-SN BR	4100	0	0	0	1840
2019/10/29 23:26:01	BASE	20.58	11	23.10	360	0.7	100	0.7	3	0	977.6	NA	0.0000	-SN BR	2600	0	0	0	1840
2019/10/29 23:27:01	BASE	20.47	10	23.10	360	0.7	100	0.7	3	0	977.6	NA	0.0000	-SN BR	1900	0	0	0	1800
2019/10/29 23:28:01	BASE	20.04	11	23.10	360	0.7	100	0.7	3	0	977.7	NA	0.0000	-SN BR	2300	0	0	0	1870
2019/10/29 23:29:01	BASE	20.15	12	22.33	6	0.7	100	0.7	3	0	977.6	NA	0.0000	-SN BR	1700	0	0	0	1900
2019/10/29 23:30:01	BASE	20.54	10	22.33	6	0.7	100	0.7	3	0	977.6	NA	0.0000	-SN BR	2000	0	0	0	1940
2019/10/29 23:31:01	BASE	19.83	12	22.33	6	0.7	100	0.7	3	0	977.7	NA	0.0000	-SN BR	1800	0	0	0	1870
2019/10/29 23:32:01	BASE	19.15	15	22.33	6	0.7	100	0.7	3	0	977.7	NA	0.0000	-SN BR	1600	0	0	0	1870
2019/10/29 23:33:01	BASE	19.79	16	22.74	17	0.7	100	0.7	2	0	977.7	NA	0.0000	-SN BR	1300	0	0	0	1840
2019/10/29 23:34:01	BASE	20.59	16	22.74	17	0.7	100	0.7	2	0	977.7	NA	0.0000	-SN BR	1400	0	0	0	1840
2019/10/29 23:35:01	BASE	20.23	15	22.74	17	0.6	100	0.6	2	0	977.7	NA	0.0000	-SN BR	1200	0	0	0	1840
2019/10/29 23:36:01	BASE	20.16	14	22.74	17	0.6	100	0.6	2	0	977.7	NA	0.0000	-SN BR	1700	0	0	0	1800
2019/10/29 23:37:01	BASE	19.99	15	22.74	17	0.6	100	0.6	2	0	977.8	NA	0.0000	-SN BR	1300	0	0	0	1840
2019/10/29 23:38:01	BASE	19.83	10	22.74	17	0.7	100	0.7	2	0	977.7	NA	0.0000	-SN BR	1900	0	0	0	1800
2019/10/29 23:39:01	BASE	19.99	13	22.74	17	0.7	100	0.7	2	0	977.8	NA	0.0000	-SN BR	2900	0	0	0	1800
2019/10/29 23:40:01	BASE	20.55	17	23.82	16	0.7	100	0.7	2	0	977.7	NA	0.0000	-SN BR	1500	0	0	0	1770
2019/10/29 23:41:01	BASE	20.67	15	23.82	16	0.7	100	0.7	1	0	977.7	NA	0.0000	-SN BR	1500	0	0	0	1770
2019/10/29 23:42:01	BASE	19.96	13	23.82	16	0.7	100	0.7	1	0	977.7	NA	0.0000	-SN BR	1600	0	0	0	1900
2019/10/29 23:43:01	BASE	19.70	13	23.82	16	0.7	100	0.7	1	0	977.7	NA	0.0000	-SN BR	1900	0	0	0	1870
2019/10/29 23:44:01	BASE	21.03	14	23.82	16	0.7	100	0.7	1	0	977.7	NA	0.0000	-SN BR	1400	0	0	0	1900
2019/10/29 23:45:01	BASE	21.68	12	23.82	16	0.7	100	0.7	1	0	977.7	NA	0.0000	-SN BR	1300	0	0	0	1940
2019/10/29 23:46:01	BASE	20.45	12	23.82	16	0.7	100	0.6	1	0	977.7	NA	0.0000	-SN BR	2000	0	0	0	1870
2019/10/29 23:47:01	BASE	20.10	13	23.82	16	0.7	100	0.7	1	0	977.7	NA	0.0000	-SN BR	1700	0	0	0	1900
2019/10/29 23:48:01	BASE	20.43	11	23.82	16	0.7	100	0.7	1	0	977.7	NA	0.2540	-SN BR	1500	0	0	0	1870
2019/10/29 23:49:01	BASE	21.03	9	23.82	16	0.7	100	0.7	1	0	977.7	NA	0.0000	-SN BR	2500	0	0	0	1840
2019/10/29 23:50:01	BASE	20.96	10	23.72	13	0.7	100	0.7	1	0	977.7	NA	0.0000	-SN BR	2200	0	0	0	1870
2019/10/29 23:51:01	BASE	20.75	13	23.72	13	0.7	100	0.7	1	0	977.8	NA	0.0000	-SN BR	1800	0	0	0	1840
2019/10/29 23:52:01	BASE	20.91	12	23.72	13	0.7	100	0.7	1	0	977.7	NA	0.0000	-SN BR	1300	0	0	0	1840
2019/10/29 23:53:01	BASE	20.45	11	23.72	13	0.7	100	0.7	0	0	977.8	NA	0.0000	-SN BR	1800	0	0	0	1740
2019/10/29 23:54:01	BASE	20.47	13	23.41	3	0.7	100	0.7	0	0	977.8	NA	0.0000	-SN BR	3300	0	0	0	1840
2019/10/29 23:55:01	BASE	20.89	15	23.41	3	0.7	100	0.7	0	0	977.8	NA	0.0000	-SN BR	2400	0	0	0	1870
2019/10/29 23:56:01	BASE	21.76	13	23.87	9	0.7	100	0.7	0	0	977.7	NA	0.0000	-SN BR	2400	0	0	0	1870
2019/10/29 23:57:01	BASE	21.84	10	23.87	9	0.7	100	0.7	0	0	977.8	NA	0.0000	-SN BR	2700	0	0	0	1770
2019/10/29 23:58:01	BASE	20.80	9	23.87	9	0.7	100	0.7	0	0	977.8	NA	0.0000	-SN BR	3700	0	0	0	1740
2019/10/29 23:59:01	BASE	20.28	10	23.87	9	0.7	100	0.7	0	0	977.8	NA	0.0000	-SN BR	3400	0	0	0	1670